[[{"header":{"parameterUnit":"m.s-1","parameterCategory":1,"la1":30.6,"la2":29.2853,"lo1":-89.7004,"lo2":-87.6739,"dy":0.0162,"dx":0.0183,"nx":112,"ny":82,"refTime":"2023-04-28T18:00:00:Z","depth":0,"parameterNumber":2,"parameterNumberName":"U-component_of_WINDS"},"data":[0.0,0.0,0.0,0.0,0.0,0.0,0.0,0.0,0.0,0.0,0.0,0.0,0.0,0.0,0.0,0.0,0.0,0.0,0.0,0.0,0.0,0.0,0.0,0.0,0.0,0.0,0.0,0.0,0.0,0.0,0.0,0.0,0.0,0.0,0.0,0.0,0.0,0.0,0.0,0.0,0.0,0.0,0.0,0.0,0.0,0.0,0.0,0.0,0.0,0.0,0.0,0.0,0.0,0.0,0.0,0.0,0.0,0.0,0.0,0.0,0.0,0.0,0.0,0.0,0.0,0.0,0.0,0.0,0.0,0.0,0.0,0.0,0.0,0.0,0.0,0.0,0.0,0.0,0.0,0.0,0.0,0.0,0.0,0.0,0.0,0.0,0.0,0.0,0.0,0.0,-0.2165,-0.2548,-0.2256,-0.1981,-0.1903,-0.194,-0.2791,-0.4696,0.0,0.0,0.0,0.0,0.0,0.0,0.0,0.0,0.0,0.0,0.0,0.0,0.0,0.0,0.0,0.0,0.0,0.0,0.0,0.0,0.0,0.0,0.0,0.0,0.0,0.0,0.0,0.0,0.0,0.0,0.0,0.0,0.0,0.0,0.0,0.0,0.0,0.0,0.0,0.0,0.0,0.0,0.0,0.0,0.0,0.0,0.0,0.0,0.0,0.0,0.0,0.0,0.0,0.0,0.0,0.0,0.0,0.0,0.0,0.0,0.0,0.0,0.0,0.0,0.0,0.0,0.0,0.0,0.0,0.0,0.0,0.0,0.0,0.0,0.0,0.0,0.0,0.0,0.0,0.0,0.0,0.0,0.0,0.0,0.0,0.0,0.0,0.0,0.0,0.0,0.0,0.0,0.0,0.0,0.0,0.0,0.0,0.0,0.0,0.0,0.0,0.0,0.0,0.0,0.0068,0.1001,0.0507,0.0944,0.2948,0.1438,0.0164,-0.0338,0.0,0.0,0.0,0.0,0.0,0.0,0.0,0.0,0.0,0.0,0.0,0.0,0.0,0.0,0.0,0.0,0.0,0.0,0.0,0.0,0.0,0.0,0.0,0.0,0.0,0.0,0.0,0.0,0.0,0.0,0.0,0.0,0.0,0.0,0.0,0.0,0.0,0.0,0.0,0.0,0.0,0.0,0.0,0.0,0.0,0.0,0.0,0.0,0.0,0.0,0.0,0.0,0.0,0.0,0.0,0.0,0.0,0.0,0.0,0.0,0.0,0.0,0.0,0.0,0.0,0.0,0.0,0.0,0.0,0.0,0.0,0.0,0.0,0.0,0.0,0.0,0.0,0.0,0.0,0.0,0.0,0.0,0.0,0.0,0.0,0.0,0.0,0.0,0.0,0.0,0.0,0.0,0.0,0.0,0.0,0.0,0.0,0.0,0.0,0.0,0.0,0.0,0.0,-0.0616,0.1067,0.26,0.2406,0.2902,0.4748,0.3934,0.2252,-0.0277,-0.125,0.0,0.0,0.0,0.0,0.0,0.0,0.0,0.0,0.0,0.0,0.0,0.0,0.0,0.0,0.0,0.0,0.0,0.0,0.0,0.0,0.0,0.0,0.0,0.0,0.0,0.0,0.0,0.0,0.0,0.0,0.0,0.0,0.0,0.0,0.0,0.0,0.0,0.0,0.0,0.0,0.0,0.0,0.0,0.0,0.0,0.0,0.0,0.0,0.0,0.0,0.0,0.0,0.0,0.0,0.0,0.0,0.0,0.0,0.0,0.0,0.0,0.0,0.0,0.0,0.0,0.0,0.0,0.0,0.0,0.0,0.0,0.0,0.0,0.0,0.0,0.0,0.0,0.0,0.0,0.0,0.0,0.0,0.0,0.0,0.0,0.0,0.0,0.0,0.0,0.0,0.0,0.0,0.0,0.0,0.0,0.0,0.0,0.0,0.0,0.0,0.0,0.0,0.1267,0.267,0.4366,0.4633,0.5292,0.6829,0.6752,0.4844,0.0708,0.178,0.0,0.0,0.0,0.0,0.0,0.0,0.0,0.0,0.0,0.0,0.0,0.0,0.0,0.0,0.0,0.0,0.0,0.0,0.0,0.0,0.0,0.0,0.0,0.0,0.0,0.0,0.0,0.0,0.0,0.0,0.0,0.0,0.0,0.0,0.0,0.0,0.0,0.0,0.0,0.0,0.0,0.0,0.0,0.0,0.0,0.0,0.0,0.0,0.0,0.0,0.0,0.0,0.0,0.0,0.0,0.0,0.0,0.0,0.0,0.0,0.0,0.0,0.0,0.0,0.0,0.0,0.0,0.0,0.0,0.0,0.0,0.0,0.0,0.0,0.0,0.0,0.0,0.0,0.0,0.0,0.0,0.0,0.0,0.0,0.0,0.0,0.0,0.0,0.0,0.0,0.0,0.0,0.0,0.0,0.0,0.0,0.0,0.0,0.0,0.0,0.0,0.0,0.4247,0.6129,0.7457,0.7931,0.8991,1.1084,1.0584,0.8831,0.5769,0.8277,0.0,0.0,0.0,0.0,0.0,0.0,0.0,0.0,0.0,0.0,0.0,0.0,0.0,0.0,0.0,0.0,0.0,0.0,0.0,0.0,0.0,0.0,0.0,0.0,0.0,0.0,0.0,0.0,0.0,0.0,0.0,0.0,0.0,0.0,0.0,0.0,0.0,0.0,0.0,0.0,0.0,0.0,0.0,0.0,0.0,0.0,0.0,0.0,0.0,0.0,0.0,0.0,0.0,0.0,0.0,0.0,0.0,0.0,0.0,0.0,0.0,0.0,0.0,0.0,0.0,0.0,0.0,0.0,0.0,0.0,0.0,0.0,0.0,0.0,0.0,0.0,0.0,0.0,0.0,0.0,0.0,0.0,0.0,0.0,0.0,0.0,0.0,0.0,0.0,0.0,0.0,0.0,0.0,0.0,0.0,0.0,0.0,0.0,0.0,0.0,0.0,0.0,0.5224,0.7474,0.8591,0.8848,0.959,1.1252,1.1104,0.9514,0.6193,0.0,0.0,0.0,0.0,0.0,0.0,0.0,0.0,0.0,0.0,0.0,0.0,0.0,0.0,0.0,0.0,0.0,0.0,0.0,0.0,0.0,0.0,0.0,0.0,0.0,0.0,0.0,0.0,0.0,0.0,0.0,0.0,0.0,0.0,0.0,0.0,0.0,0.0,0.0,0.0,0.0,0.0,0.0,0.0,0.0,0.0,0.0,0.0,0.0,0.0,0.0,0.0,0.0,0.0,0.0,0.0,0.0,0.0,0.0,0.0,0.0,0.0,0.0,0.0,0.0,0.0,0.0,0.0,0.0,0.0,0.0,0.0,0.0,0.0,0.0,0.0,0.0,0.0,0.0,0.0,0.0,0.0,0.0,0.0,0.0,0.0,0.0,0.0,0.0,0.0,0.0,0.0,0.0,0.0,0.0,0.0,0.0,0.0,0.0,0.0,0.0,0.0,0.3039,0.6427,0.8986,0.9849,1.0214,1.0913,1.2204,1.2264,1.0938,0.7902,0.0,0.0,0.0,0.0,0.0,0.0,0.0,0.0,0.0,0.0,0.0,0.0,0.0,0.0,0.0,0.0,0.0,0.0,0.0,0.0,0.0,0.0,0.0,0.0,0.0,0.0,0.0,0.0,0.0,0.0,0.0,0.0,0.0,0.0,0.0,0.0,0.0,0.0,0.0,0.0,0.0,0.0,0.0,0.0,0.0,0.0,0.0,0.0,0.0,0.0,0.0,0.0,0.0,0.0,0.0,0.0,0.0,0.0,0.0,0.0,0.0,0.0,0.0,0.0,0.0,0.0,0.0,0.0,0.0,0.0,0.0,0.0,0.0,0.0,0.0,0.0,0.0,0.0,0.0,0.0,0.0,0.0,0.0,0.0,0.0,0.0,0.0,0.0,0.0,0.0,0.0,0.0,0.0,0.0,0.0,0.0,0.0,0.0,0.0,0.0,0.0,0.0,0.4331,0.8167,1.0931,1.1459,1.2421,1.3484,1.4609,1.4532,1.3604,0.0,0.0,0.0,0.0,0.0,0.0,0.0,0.0,0.0,0.0,0.0,0.0,0.0,0.0,0.0,0.0,0.0,0.0,0.0,0.0,0.0,0.0,0.0,0.0,0.0,0.0,0.0,0.0,0.0,0.0,0.0,0.0,0.0,0.0,0.0,0.0,0.0,0.0,0.0,0.0,0.0,0.0,0.0,0.0,0.0,0.0,0.0,0.0,0.0,0.0,0.0,0.0,0.0,0.0,0.0,0.0,0.0,0.0,0.0,0.0,0.0,0.0,0.0,0.0,0.0,0.0,0.0,0.0,0.0,0.0,0.0,0.0,0.0,0.0,0.0,0.0,0.0,0.0,0.0,0.0,0.0,0.0,0.0,0.0,0.0,0.0,0.0,0.0,0.0,0.0,0.0,0.0,0.0,0.0,0.0,0.0,0.0,0.0,0.0,0.0,0.0,0.0,0.0,0.5698,0.9641,1.2447,1.2735,1.3502,1.4234,1.4805,1.53,1.4363,1.1429,0.0,0.0,0.0,0.0,0.0,0.0,0.0,0.0,0.0,0.0,0.0,0.0,0.0,0.0,0.0,0.0,0.0,0.0,0.0,0.0,0.0,0.0,0.0,0.0,0.0,0.0,0.0,0.0,0.0,0.0,0.0,0.0,0.0,0.0,0.0,0.0,0.0,0.0,0.0,0.0,0.0,0.0,0.0,0.0,0.0,0.0,0.0,0.0,0.0,0.0,0.0,0.0,0.0,0.0,0.0,0.0,0.0,0.0,0.0,0.0,0.0,0.0,0.0,0.0,0.0,0.0,0.0,0.0,0.0,0.0,0.0,0.0,0.0,0.0,0.0,0.0,0.0,0.0,0.0,0.0,0.0,0.0,0.0,0.0,0.0,0.0,0.0,0.0,0.0,0.0,0.0,0.0,0.0,0.0,0.0,0.0,0.0,0.0,0.0,0.0,0.0,0.0,0.6608,1.0595,1.3473,1.3933,1.437,1.5033,1.6054,1.6415,1.5646,1.3323,0.0,0.0,0.0,0.0,0.0,0.0,0.0,0.0,0.0,0.0,0.0,0.0,0.0,0.0,0.0,0.0,0.0,0.0,0.0,0.0,0.0,0.0,0.0,0.0,0.0,0.0,0.0,0.0,0.0,0.0,0.0,0.0,0.0,0.0,0.0,0.0,0.0,0.0,0.0,0.0,0.0,0.0,0.0,0.0,0.0,0.0,0.0,0.0,0.0,0.0,0.0,0.0,0.0,0.0,0.0,0.0,0.0,0.0,0.0,0.0,0.0,0.0,0.0,0.0,0.0,0.0,0.0,0.0,0.0,0.0,0.0,0.0,0.0,0.0,0.0,0.0,0.0,0.0,0.0,0.0,0.0,0.0,0.0,0.0,0.0,0.0,0.0,0.0,0.0,0.0,0.0,0.0,0.0,0.0,0.0,0.0,0.0,0.0,0.0,0.0,0.0,0.0,0.716,1.1121,1.4208,1.5061,1.5231,1.6035,1.7898,1.7755,1.7292,1.6548,0.0,0.0,0.0,0.0,0.0,0.0,0.0,0.0,0.0,0.0,0.0,0.0,0.0,0.0,0.0,0.0,0.0,0.0,0.0,0.0,0.0,0.0,0.0,0.0,0.0,0.0,0.0,0.0,0.0,0.0,0.0,0.0,0.0,0.0,0.0,0.0,0.0,0.0,0.0,0.0,0.0,0.0,0.0,0.0,0.0,0.0,0.0,0.0,0.0,0.0,0.0,0.0,0.0,0.0,0.0,0.0,0.0,0.0,0.0,0.0,-0.5044,-0.7667,0.0,0.0,0.0,0.0,0.0,0.0,0.0,0.0,0.0,0.0,0.0,0.0,0.0,0.0,0.0,0.0,0.0,0.0,0.0,0.0,0.0,0.0,0.0,0.0,0.0,0.0,0.0,0.0,0.0,0.0,0.0,0.0,0.0,0.0,0.0,0.0,0.0,0.0,0.0,0.0,0.7524,1.1569,1.4906,1.6328,1.7005,1.7648,1.8318,1.8843,1.8807,1.7994,1.8087,0.0,0.0,0.0,0.0,0.0,0.0,0.0,0.0,0.0,0.0,0.0,0.0,0.0,0.0,0.0,0.0,0.0,0.0,0.0,0.0,0.0,0.0,0.0,0.0,0.0,0.0,0.0,0.0,0.0,0.0,0.0,0.0,0.0,0.0,0.0,0.0,0.0,0.0,0.0,0.0,0.0,0.0,0.0,0.0,0.0,0.0,0.0,0.0,0.0,0.0,0.0,0.0,0.0,0.0,0.0,0.0,0.0,0.0,0.0,-0.3472,-0.5203,0.0,0.0,0.0,0.0,0.0,0.0,0.0,0.0,0.0,0.0,0.0,0.0,0.0,0.0,0.0,0.0,0.0,0.0,0.0,0.0,0.0,0.0,0.0,0.0,0.0,0.0,0.0,0.0,0.0,0.0,0.0,0.0,0.0,0.0,0.0,0.0,0.0,0.0,0.0,0.0,0.9217,1.305,1.6224,1.7958,1.8498,1.8938,1.9497,1.9835,1.9907,1.9697,1.9697,0.0,0.0,0.0,0.0,0.0,0.0,0.0,0.0,0.0,0.0,0.0,0.0,0.0,0.0,0.0,0.0,0.0,0.0,0.0,0.0,0.0,0.0,0.0,0.0,0.0,0.0,0.0,0.0,0.0,0.0,0.0,0.0,0.0,0.0,0.0,0.0,0.0,0.0,0.0,0.0,0.0,0.0,0.0,0.0,0.0,0.0,0.0,0.0,0.0,0.0,0.0,0.0,0.0,-0.1353,-0.0917,-0.0436,-0.0861,-0.0669,-0.0148,-0.1928,-0.2394,-0.2125,-0.5076,0.0,0.0,0.0,0.0,0.0,0.0,0.0,0.0,0.0,0.0,0.0,0.0,0.0,0.0,0.0,0.0,0.0,0.0,0.0,0.0,0.0,0.0,0.0823,-0.0399,0.1904,0.418,0.3379,0.0,0.0,0.0,0.0,0.0,0.0,0.0,0.0,0.0,0.0,0.0,1.1353,1.4743,1.7605,1.9575,1.9803,2.0085,2.0722,2.0722,2.0926,2.1588,2.1296,2.1397,0.0,0.0,0.0,0.0,0.0,0.0,0.0,0.0,0.0,0.0,0.0,0.0,0.0,0.0,0.0,0.0,0.0,0.0,0.0,0.0,0.0,0.0,0.0,0.0,0.0,0.0,0.0,0.0,0.0,0.0,0.0,0.0,-0.831,-0.8019,0.0,0.0,0.0,0.0,0.0,0.0,0.0,0.0,0.0,0.0,0.0,0.0,0.0,-0.3612,-0.3137,-0.1376,-0.038,-0.0168,0.1652,0.2728,0.3089,0.2301,0.2175,0.2528,0.1407,0.0,-0.2281,-0.2859,0.0,0.0,0.0,0.0,0.0,0.0,0.0,0.0,0.0,0.0,0.0,0.0,0.0,0.0,0.0,0.0,0.0,0.0,0.0,0.0,0.0,0.0,0.2942,0.4821,0.4987,0.5286,0.7218,0.5112,0.2915,0.3213,0.3768,0.3712,0.0,0.0,0.0,0.0,0.0,0.0,1.3081,1.585,1.8385,2.0726,2.0987,2.1031,2.1138,2.1494,2.2306,2.371,2.4111,2.4374,2.4621,2.4859,0.0,0.0,0.0,0.0,0.0,0.0,0.0,0.0,0.0,0.0,0.0,0.0,0.0,0.0,0.0,0.0,0.0,0.0,0.0,0.0,0.0,0.0,0.0,0.0,0.0,0.0,0.0,0.0,0.0,-0.933,-0.9029,-0.8516,-0.8281,-0.818,0.0,0.0,0.0,0.0,0.0,0.0,0.0,0.0,0.0,-0.2716,-0.1764,-0.1158,-0.0922,0.0529,0.1314,0.1452,0.2305,0.3053,0.3646,0.2754,0.242,0.2568,0.2043,0.1134,-0.0052,-0.0867,-0.2449,-0.4403,0.0,0.0,0.0,0.0,-0.5843,-0.5294,-0.3475,-0.2654,-0.2467,-0.2705,0.0,0.0,0.0,0.0,0.0,0.0,0.0,-0.3028,-0.088,0.0904,0.2563,0.4224,0.4929,0.583,0.7996,0.7192,0.5973,0.5743,0.565,0.514,0.373,0.4585,0.0,0.0,0.0,1.1127,1.4026,1.6456,1.8531,2.0011,2.057,2.0763,2.0582,2.1362,2.2217,2.3081,2.4728,2.5805,2.6032,2.6023,2.4095,0.0,0.0,0.0,0.0,0.0,0.0,0.0,0.0,0.0,0.0,0.0,0.0,0.0,0.0,0.0,0.0,0.0,0.0,0.0,0.0,0.0,0.0,0.0,0.0,0.0,0.0,0.0,0.0,-0.9591,-0.9328,-0.8689,-0.8111,-0.7795,0.0,0.0,0.0,0.0,0.0,0.0,-0.456,-0.3078,-0.1825,-0.0922,0.0074,0.0746,0.1091,0.1733,0.2078,0.2123,0.2227,0.2539,0.2992,0.2476,0.2294,0.2404,0.2287,0.2183,0.2032,0.0809,-0.0353,-0.1481,-0.2249,-0.3212,-0.4138,-0.3686,-0.3234,-0.2667,-0.1437,-0.0693,-0.0364,-0.0609,-0.0772,-0.114,-0.254,0.0,0.0,0.0,0.0,-0.2214,-0.1004,0.0823,0.2494,0.3251,0.4628,0.6209,0.7794,0.8186,0.8237,0.8321,0.7897,0.7081,0.571,0.6689,0.0,0.8129,1.0327,1.2851,1.5434,1.72,1.8661,1.9686,2.0303,2.0663,2.0696,2.1588,2.2367,2.2866,2.5044,2.6512,2.7017,2.6936,2.5512,2.2564,0.0,0.0,0.0,0.0,0.0,0.0,0.0,0.0,0.0,0.0,0.0,0.0,0.0,0.0,0.0,0.0,0.0,0.0,0.0,0.0,0.0,0.0,0.0,0.0,0.0,0.0,0.0,0.0,0.0,-0.7904,-0.7113,0.0,0.0,0.0,0.0,-0.5676,-0.5251,-0.4727,-0.4156,-0.2498,-0.118,-0.0375,0.0277,0.1009,0.1846,0.1519,0.1257,0.1091,0.1834,0.1939,0.1426,0.2024,0.253,0.2958,0.2872,0.2912,0.2961,0.206,0.0473,-0.139,-0.1331,-0.2487,-0.3971,-0.2054,-0.1327,-0.1083,0.0564,0.1086,0.0875,0.0098,-0.069,-0.1271,-0.0813,-0.122,0.0,0.0,-0.0244,0.0204,0.1502,0.2891,0.3989,0.4041,0.5188,0.6488,0.7275,0.7455,0.8124,1.0379,1.0832,1.0329,0.8689,0.0,1.0427,1.0771,1.1946,1.4149,1.7828,1.8356,1.9051,2.0742,2.0945,2.1354,2.2295,2.2848,2.3535,2.4515,2.566,2.6705,2.7623,2.8719,2.7803,2.4508,2.3164,0.0,0.0,0.0,0.0,0.0,0.0,0.0,0.0,0.0,0.0,0.0,0.0,0.0,0.0,0.0,0.0,0.0,0.0,0.0,0.0,0.0,0.0,0.0,0.0,0.0,0.0,0.0,0.0,-0.7731,-0.6546,0.0,-0.6284,-0.4899,-0.4075,-0.4295,-0.3229,-0.2421,-0.2125,-0.11,-0.0195,0.0503,0.0579,0.0696,0.0922,0.1006,0.0726,0.0117,0.1042,0.1594,0.175,0.1994,0.2413,0.2931,0.2631,0.2487,0.2433,0.2123,0.1685,0.1246,0.1299,0.0881,0.0327,0.0942,0.1193,0.1252,0.1715,0.1849,0.1663,0.0858,0.0679,0.0722,0.0436,0.0507,0.075,0.1107,0.1341,0.155,0.2004,0.2779,0.3574,0.4118,0.4909,0.5885,0.7141,0.7916,0.8777,1.0097,1.0393,1.0286,0.9994,1.1388,1.2513,1.236,1.3779,1.5317,1.6642,1.7548,1.8276,1.8816,1.9922,2.0715,2.1012,2.2167,2.3121,2.3703,2.5483,2.6878,2.7798,2.8904,2.8766,2.7204,2.5493,2.2924,0.0,0.0,0.0,0.0,0.0,0.0,0.0,0.0,0.0,0.0,0.0,0.0,0.0,0.0,0.0,0.0,0.0,0.0,0.0,0.0,0.0,0.0,0.0,0.0,0.0,-0.767,-0.6964,-0.7254,-0.5912,-0.5087,-0.5389,-0.3965,-0.3037,-0.3057,-0.1997,-0.1307,-0.1284,-0.08,-0.0213,0.0475,0.0023,-0.0046,0.0402,0.0178,-0.011,-0.0427,-0.0044,0.0604,0.1461,0.1468,0.1944,0.2748,0.2505,0.2342,0.2265,0.2168,0.2363,0.2707,0.2572,0.257,0.2599,0.2489,0.2435,0.2354,0.2138,0.203,0.1913,0.142,0.1433,0.1535,0.1053,0.1089,0.1379,0.1622,0.1732,0.1813,0.2057,0.2674,0.3398,0.4237,0.4975,0.5839,0.7156,0.82,0.9056,0.977,1.0263,1.0594,1.0806,1.2431,1.3418,1.2548,1.4301,1.5759,1.5817,1.6954,1.7913,1.8367,1.9858,2.0912,2.1159,2.193,2.2926,2.4088,2.5203,2.6268,2.7394,2.7823,2.7597,2.6642,2.5067,2.3151,2.0803,0.0,0.0,0.0,0.0,0.0,0.0,0.0,0.0,0.0,0.0,0.0,0.0,0.0,0.0,0.0,0.0,0.0,0.0,0.0,0.0,0.0,0.0,0.0,-0.7717,-0.7,-0.6387,-0.6446,-0.5174,-0.4023,-0.3349,-0.2921,-0.248,-0.2012,-0.1725,-0.1657,-0.1791,-0.1683,-0.1286,-0.0564,-0.145,-0.1218,0.0292,-0.0997,-0.1312,-0.0624,-0.1393,-0.1029,0.0292,0.0301,0.1056,0.2367,0.2411,0.2478,0.2484,0.2175,0.2301,0.2661,0.234,0.229,0.2417,0.2392,0.2317,0.2164,0.1917,0.1742,0.164,0.174,0.1387,0.0932,0.1032,0.0579,0.0202,0.0959,0.1086,0.1162,0.1896,0.277,0.3667,0.4514,0.547,0.6426,0.7292,0.8163,0.8956,0.9549,1.0704,1.1483,1.1196,1.2587,1.3165,1.1499,1.3618,0.0,1.5704,1.6704,1.7991,1.9507,2.0785,2.1903,2.292,2.2243,2.3024,2.59,2.4926,2.4931,2.6438,2.5706,2.452,2.2905,2.2022,2.1251,2.0504,0.0,0.0,0.0,0.0,0.0,0.0,0.0,0.0,0.0,0.0,0.0,0.0,0.0,0.0,0.0,0.0,0.0,0.0,0.0,0.0,0.0,-0.6827,-0.6595,-0.7042,-0.6149,-0.542,-0.5355,-0.4504,-0.3702,-0.3078,-0.2421,-0.1854,-0.1383,-0.1366,-0.1414,-0.1499,-0.199,-0.198,-0.1381,-0.2472,-0.2656,-0.1777,-0.2528,-0.2953,-0.3032,-0.3013,-0.2697,-0.2142,-0.2094,-0.1615,-0.0849,-0.0963,-0.0472,0.0341,-0.0764,-0.0515,0.0689,0.1989,0.2668,0.2866,0.2415,0.224,0.224,0.2618,0.2442,0.1955,0.1387,0.1132,0.0953,0.039,0.0493,0.1064,0.2328,0.2732,0.2942,0.3568,0.4283,0.4876,0.4962,0.5573,0.6262,0.681,0.76,0.8416,0.9131,1.0046,1.1061,1.2144,1.3416,1.4279,1.4294,1.539,1.6229,1.6273,1.7291,1.7623,1.6715,1.8292,1.9854,2.0909,2.1107,2.2455,2.5546,2.5398,2.5644,2.6613,2.6809,2.6766,2.6564,2.4801,2.2995,0.0,0.0,0.0,0.0,0.0,0.0,0.0,0.0,0.0,0.0,0.0,0.0,0.0,0.0,0.0,0.0,0.0,0.0,0.0,0.0,0.0,0.0,-0.6003,-0.5763,-0.5932,-0.5312,-0.4843,-0.4816,-0.4281,-0.3699,-0.3086,-0.251,-0.2007,-0.1626,-0.1594,-0.1853,-0.2458,-0.2953,-0.3172,-0.3078,-0.3739,-0.3746,-0.3018,-0.332,-0.3509,-0.355,-0.3965,-0.3673,-0.2794,-0.3383,-0.3071,-0.2062,-0.221,-0.1859,-0.1257,-0.2137,-0.1939,-0.0911,0.0,0.0,0.0,0.0,0.1644,0.1412,0.1708,0.1618,0.1345,0.1176,0.0986,0.0772,0.065,0.073,0.1154,0.2569,0.2974,0.3197,0.4132,0.4715,0.5123,0.5378,0.5819,0.6341,0.6961,0.7483,0.8152,0.9177,0.9795,0.0,1.2219,1.3456,1.4057,1.3649,1.4902,1.5822,1.5554,1.6921,1.7654,1.7011,1.8894,2.0512,2.1358,2.1341,0.0,0.0,0.0,2.5116,2.6103,2.6495,0.0,0.0,0.0,2.4453,2.3852,1.9978,0.0,0.0,1.1498,0.9076,0.0,0.0,0.0,0.0,0.0,0.0,0.0,0.0,0.0,0.0,0.0,0.0,0.0,0.0,0.0,0.0,-0.5149,-0.4625,-0.4771,-0.4646,-0.4582,-0.4691,-0.4413,-0.3985,-0.3406,-0.3111,-0.2799,-0.2393,-0.2184,-0.259,-0.3706,-0.3949,0.0,0.0,0.0,-0.462,-0.3906,-0.3925,-0.3745,-0.3377,-0.4676,-0.4438,-0.2909,-0.4275,-0.4044,-0.2585,-0.2649,-0.2652,-0.2651,-0.2956,-0.2844,-0.2383,-0.1386,-0.0551,0.0224,0.1076,0.0871,0.0195,0.0137,0.0,0.0,0.1076,0.0946,0.0638,0.1367,0.1115,0.089,0.2251,0.2586,0.2827,0.41,0.4679,0.5114,0.5768,0.6184,0.662,0.7358,0.7594,0.8092,0.945,0.9826,1.036,1.1855,1.3018,1.3198,1.1563,1.3473,1.4931,1.4438,1.6265,1.7872,1.8606,2.0684,0.0,2.2746,2.2112,2.2918,2.5786,2.4463,2.4216,2.5601,2.5751,2.6441,2.7751,2.5994,2.5847,2.7422,2.5822,2.4177,2.2331,1.298,1.0064,0.0,0.0,0.0,0.0,0.0,0.0,0.0,0.0,0.0,0.0,0.0,0.0,0.0,0.0,0.0,-0.5359,-0.4751,-0.4456,-0.4751,-0.4763,-0.4728,-0.4712,-0.4862,-0.4799,-0.4291,-0.4484,-0.409,-0.2797,-0.2673,-0.2563,-0.2397,-0.2823,-0.3444,-0.4254,-0.4952,-0.5459,-0.5782,-0.5944,-0.6086,-0.6202,-0.6438,0.0,-0.6337,-0.659,-0.6508,-0.6199,-0.6207,-0.5614,-0.4732,-0.6064,-0.5888,-0.4475,-0.1573,-0.0633,-0.0737,0.0707,0.0806,0.0273,0.072,0.0939,0.1033,0.1166,0.1222,0.124,0.1383,0.1343,0.0,0.298,0.3717,0.4245,0.4997,0.6107,0.6865,0.6218,0.6632,0.7143,0.699,0.7556,0.8318,0.9151,0.9937,1.0797,1.1904,1.2969,1.3674,1.3712,1.4499,1.52,1.5531,1.7084,1.7641,1.6339,1.8131,1.9778,2.0667,2.0962,2.2221,2.4878,2.4886,2.5486,2.711,2.7596,2.8529,3.0041,2.8702,2.8077,2.8259,2.6177,2.5231,2.5204,2.0349,1.7656,0.0,0.0,0.0,0.0,0.0,0.0,0.0,0.0,0.0,0.0,0.0,-0.7138,-0.6092,0.0,-0.55,-0.5028,-0.4773,-0.476,-0.5108,-0.5137,-0.5105,-0.497,-0.5271,-0.5373,-0.5038,-0.4908,-0.4573,-0.3904,-0.3722,-0.3734,-0.3932,-0.3858,-0.4191,-0.5073,-0.5256,-0.5462,-0.5699,-0.6264,-0.6527,-0.6514,-0.6846,-0.6978,-0.6952,-0.6916,-0.7029,-0.7231,-0.6865,-0.6574,-0.6391,-0.6856,-0.6433,-0.5286,-0.3094,-0.2214,-0.1986,-0.0608,-0.0552,-0.1085,-0.065,-0.0349,-0.0038,0.0635,0.1025,0.1374,0.2007,0.2212,0.2464,0.3733,0.4318,0.4772,0.5658,0.6456,0.6865,0.6375,0.6574,0.6836,0.6641,0.6976,0.7684,0.8952,0.9579,1.0376,1.1843,1.2697,1.3496,1.4366,1.5343,1.596,1.5995,1.7099,1.7641,1.6977,1.8356,1.9822,2.1103,2.2105,2.3216,2.4508,2.5094,2.6051,2.7534,2.8288,2.9162,3.0271,2.8621,2.8008,2.8543,2.5802,2.4551,2.4698,2.226,2.0639,0.0,0.0,0.0,0.0,0.0,0.0,0.0,0.0,-0.8346,-0.7047,-0.7013,-0.6731,-0.5104,-0.5172,-0.5336,-0.4851,-0.4923,-0.5183,-0.5513,-0.5573,-0.5577,-0.5501,-0.5767,-0.593,-0.5816,-0.5408,-0.514,-0.5127,-0.492,-0.5081,-0.5774,-0.5245,-0.5278,-0.6071,-0.5752,-0.5564,-0.5524,-0.6371,-0.6667,-0.6416,-0.7026,-0.7168,-0.6907,-0.6907,-0.7124,-0.7443,-0.6913,-0.7109,-0.7734,-0.7277,-0.674,-0.612,-0.5306,-0.4532,-0.3723,-0.2235,-0.2036,-0.2444,-0.2111,-0.1636,-0.1,0.0224,0.0929,0.1507,0.2538,0.2892,0.3128,0.3999,0.437,0.4748,0.5841,0.6218,0.6325,0.6438,0.6432,0.641,0.641,0.656,0.7165,0.8875,0.9344,1.0022,1.1791,1.2607,1.3322,1.4258,1.557,1.6362,1.6101,1.6895,1.775,1.8363,1.9309,2.0512,2.2058,2.3285,2.4012,2.4103,2.4767,2.5735,2.6979,2.8069,2.8797,2.9139,2.7813,2.7393,2.7866,2.5066,2.3557,2.3199,2.1847,2.1037,-1.0797,-1.0819,-1.021,-0.9225,-0.8912,-0.85,0.0,0.0,-0.672,-0.5856,-0.5213,-0.4731,-0.4509,-0.4604,-0.4691,-0.4635,-0.4983,-0.5384,-0.5711,-0.5866,-0.6097,-0.6488,-0.657,-0.6677,-0.6888,-0.7026,-0.677,-0.603,-0.5882,-0.5712,-0.5462,-0.5377,-0.5574,-0.6087,-0.6382,-0.6714,-0.7053,-0.7622,-0.7899,-0.787,-0.8015,-0.8062,-0.8019,-0.8019,-0.8048,-0.8105,-0.8329,-0.8543,-0.8764,-0.905,-0.8844,-0.8313,-0.7911,-0.7333,-0.6409,-0.3724,-0.2643,-0.2408,-0.1783,-0.0946,-0.0036,0.0764,0.151,0.2102,0.2243,0.2498,0.2768,0.2872,0.3506,0.4308,0.4988,0.5507,0.6007,0.6538,0.6575,0.6483,0.6483,0.7104,0.7957,0.8998,0.9871,1.0793,1.192,1.297,1.3695,1.371,1.4626,1.5454,1.5864,1.6859,1.7861,1.8818,1.9505,2.0512,2.2058,2.2357,2.2617,2.3036,2.3154,2.3717,2.4889,2.6747,2.7339,2.6463,2.7951,2.7612,2.5296,2.4291,2.3376,2.2556,2.0696,1.9383,-0.9141,-0.928,-0.9073,-0.8247,-0.7991,-0.7677,-0.6699,-0.638,-0.6003,-0.5021,-0.4652,-0.4491,-0.4364,-0.4539,-0.4818,-0.5079,-0.5291,-0.555,-0.5964,-0.6147,-0.6301,-0.6507,-0.6633,-0.6794,-0.7015,-0.6896,-0.6734,-0.6527,-0.6519,-0.6471,-0.6344,-0.6255,-0.6215,-0.6214,-0.6494,-0.6739,-0.6947,-0.7601,-0.7981,-0.8107,-0.8125,-0.8169,-0.8187,-0.7911,-0.7726,-0.7647,-0.8341,-0.823,-0.7575,-0.7789,-0.7708,-0.746,-0.733,-0.7366,-0.7277,-0.5534,-0.4542,-0.3986,-0.3393,-0.2225,-0.0849,0.0054,0.0973,0.1811,0.2192,0.2421,0.2577,0.2857,0.3336,0.389,0.4501,0.5346,0.6087,0.6346,0.6811,0.7203,0.7203,0.7412,0.8055,0.9549,1.0086,1.0789,1.2308,1.3062,1.3429,1.3368,1.4928,1.6073,1.6016,1.6584,1.7398,1.8479,1.9387,2.0407,2.1633,2.202,2.2287,2.2472,2.2822,2.3208,2.3599,2.5047,2.5643,2.5182,2.5659,2.5382,2.4259,2.2937,2.1486,1.9926,1.9321,1.8249,-0.8249,-0.8228,-0.8121,-0.7633,-0.7214,-0.6807,-0.6326,-0.5771,-0.5199,-0.4554,-0.448,-0.4536,-0.4568,-0.483,-0.5149,-0.5497,-0.5576,-0.5707,-0.6099,-0.6147,-0.6196,-0.6282,-0.6329,-0.6434,-0.6691,-0.6541,-0.653,-0.676,-0.6916,-0.708,-0.7233,-0.7287,-0.7195,-0.6912,-0.7062,-0.7141,-0.7085,-0.7635,-0.7986,-0.8125,-0.8049,-0.8091,-0.8205,-0.7774,-0.7647,-0.7775,-0.8283,-0.8238,-0.7784,-0.7404,-0.7381,-0.7571,-0.739,-0.7431,-0.7547,-0.6964,-0.6247,-0.5425,-0.4252,-0.2868,-0.1429,-0.0278,0.0812,0.1768,0.2283,0.2462,0.2585,0.2949,0.3425,0.3976,0.4558,0.5533,0.6412,0.6579,0.7147,0.7641,0.7641,0.7769,0.8375,0.9988,1.0452,1.1067,1.2652,1.306,1.3096,1.2938,1.4761,1.6071,1.5856,1.6421,1.7096,1.7776,1.881,1.9869,2.0885,2.1332,2.1684,2.1959,2.2402,2.2595,2.2503,2.3678,2.414,2.3728,2.3409,2.3086,2.2732,2.0954,1.9267,1.7655,1.7849,1.7193,-0.9219,-0.8547,-0.7763,-0.7557,-0.6625,-0.5751,-0.5727,-0.4701,-0.3954,-0.4638,-0.4532,-0.4514,-0.5145,-0.5481,-0.5669,-0.5692,-0.5748,-0.5836,-0.5976,-0.5734,-0.5657,-0.5977,-0.5676,-0.5589,-0.5995,-0.6315,-0.6551,-0.67,-0.7074,-0.7457,-0.7845,-0.8354,-0.8572,-0.8439,-0.8499,-0.8375,-0.8062,-0.8144,-0.8187,-0.8201,-0.7928,-0.7975,-0.8284,-0.7946,-0.829,-0.9105,-0.8482,-0.9217,-1.0756,-0.9253,-0.9208,-1.0027,-0.9375,-0.8429,-0.7446,-0.7749,-0.7301,-0.6161,-0.3417,-0.1998,-0.1163,0.0363,0.1551,0.238,0.247,0.2639,0.2805,0.2881,0.3762,0.4792,0.5321,0.6114,0.6931,0.7523,0.7572,0.7502,0.7502,0.8215,0.9139,1.0107,1.109,1.201,1.2854,1.2991,1.2839,1.2305,1.3504,1.4623,1.5058,1.651,1.7279,1.6806,1.7713,1.8785,1.9845,1.9969,2.0399,2.1358,2.1447,2.1447,2.1447,2.2914,2.3027,2.1523,2.1932,2.1453,2.0006,1.8202,1.7051,1.6525,1.6344,1.6011,-0.8635,-0.8097,-0.7581,-0.6729,-0.6112,-0.5496,-0.4682,-0.4459,-0.4396,-0.4225,-0.4707,-0.5397,-0.621,-0.6139,-0.6118,-0.6562,-0.609,-0.5596,-0.543,-0.5388,-0.5336,-0.5207,-0.5271,-0.5292,-0.522,-0.5674,-0.6161,-0.6604,-0.6969,-0.7384,-0.7874,-0.8322,-0.8572,-0.8572,-0.8505,-0.8344,-0.8102,-0.8031,-0.7947,-0.7878,-0.7782,-0.7935,-0.8299,-0.8086,-0.8122,-0.8333,-0.8146,-0.8193,-0.8424,-0.8624,-0.9109,-0.9693,-0.9298,-0.9127,-0.8943,-0.7447,-0.6884,-0.6572,-0.4509,-0.3034,-0.1895,-0.0841,0.037,0.1471,0.1854,0.2273,0.2618,0.274,0.3087,0.3622,0.4439,0.545,0.6454,0.7198,0.7833,0.8329,0.8406,0.861,0.9232,1.0801,1.1341,1.1885,1.3014,1.332,1.3369,1.3283,1.3926,1.4701,1.5511,1.6385,1.6974,1.7159,1.7501,1.814,1.9208,1.9307,1.9754,2.0799,2.0274,2.0375,2.1358,2.0967,2.0549,2.0217,1.9923,1.9143,1.7913,1.7214,1.6408,1.5567,1.5486,1.5527,-0.7752,-0.7237,-0.6701,-0.5887,-0.5505,-0.5081,-0.4228,-0.4301,-0.4517,-0.4398,-0.5345,-0.6447,-0.7291,-0.7036,-0.6864,-0.7353,-0.6485,-0.5627,-0.5286,-0.5218,-0.5056,-0.4661,-0.4768,-0.4864,-0.4862,-0.5271,-0.5797,-0.6478,-0.718,-0.7723,-0.8064,-0.8459,-0.8699,-0.8737,-0.8453,-0.8231,-0.8141,-0.7861,-0.7691,-0.764,-0.7746,-0.7853,-0.7938,-0.7862,-0.7996,-0.8276,-0.7852,-0.789,-0.8231,-0.8159,-0.854,-0.9158,-0.9062,-0.8998,-0.8791,-0.7355,-0.6704,-0.6328,-0.48,-0.3511,-0.2369,-0.1573,-0.0333,0.0947,0.158,0.2076,0.2508,0.2876,0.3236,0.3649,0.4202,0.5156,0.6169,0.6972,0.7677,0.8279,0.8667,0.9016,0.9697,1.1202,1.1758,1.2317,1.3422,1.3406,1.3324,1.3571,1.3693,1.4205,1.5452,1.6054,1.6489,1.6804,1.6826,1.7275,1.8345,1.8419,1.8894,1.9959,1.9468,1.9542,2.0499,1.9631,1.9222,1.9436,1.8655,1.7883,1.7177,1.6687,1.6104,1.5412,1.5379,1.5177,-0.67,-0.6052,-0.5262,-0.5079,-0.483,-0.4561,-0.4322,-0.4223,-0.4386,-0.5131,-0.6379,-0.7564,0.0,-0.8121,-0.785,-0.8025,-0.6902,-0.5876,-0.551,-0.5182,-0.4806,-0.4317,-0.417,-0.4323,-0.4943,-0.5157,-0.5587,-0.6382,-0.7629,-0.8372,-0.8404,-0.8797,-0.901,-0.9012,-0.8424,-0.8123,-0.817,-0.7645,-0.741,-0.7505,-0.7818,-0.774,-0.7326,-0.7316,-0.7943,-0.8959,-0.7748,-0.8413,-1.0191,-0.8149,-0.7857,-0.8716,-0.8829,-0.8192,-0.7224,-0.749,-0.6809,-0.5581,-0.4428,-0.3469,-0.2636,-0.1819,-0.0588,0.0738,0.1572,0.2041,0.244,0.3261,0.4083,0.4709,0.4639,0.5216,0.6049,0.6854,0.7134,0.7437,0.8274,0.9335,1.0407,1.1315,1.2353,1.3289,1.4066,1.3344,1.2818,1.3276,1.2971,1.3259,1.4878,1.5599,1.5942,1.5859,1.5836,1.6252,1.7272,1.7355,1.7811,1.8894,1.8894,1.8907,1.8996,1.8943,1.8963,1.9103,1.8055,1.7524,1.7574,1.6475,1.5944,1.5935,1.5814,1.4887,-0.5588,-0.5246,-0.5015,-0.4495,-0.4581,-0.4669,-0.4139,-0.4629,-0.5427,-0.616,-0.7078,-0.8182,-0.9634,-0.8702,-0.7913,-0.8513,-0.7091,-0.5659,-0.4929,-0.4853,-0.4611,-0.3928,-0.3902,-0.4194,-0.4793,-0.555,-0.629,-0.6949,-0.7456,-0.7965,-0.8509,-0.8938,-0.9154,-0.9151,-0.8563,-0.8082,-0.7749,-0.7269,-0.7184,-0.7504,-0.7476,-0.7554,-0.7663,-0.7568,-0.8229,-0.9423,-0.911,-0.9727,-1.0913,-1.0271,-1.0008,-0.9931,-0.9033,-0.8618,-0.8435,-0.7718,-0.702,-0.6378,-0.592,-0.4803,-0.3442,-0.2546,-0.1649,-0.0729,0.0428,0.1358,0.2177,0.3033,0.3543,0.3988,0.4647,0.4952,0.5305,0.6149,0.6867,0.7431,0.7702,0.8528,0.9712,1.1332,1.2661,1.3692,1.425,1.3747,1.3431,1.3905,1.3872,1.4065,1.4843,1.5266,1.5763,1.6548,1.6436,1.6421,1.6722,1.6722,1.719,1.8249,1.7582,1.7714,1.9008,1.7915,1.7481,1.7923,1.6831,1.6171,1.5981,1.5392,1.5051,1.496,1.4914,1.4675,-0.5919,-0.5414,-0.5109,-0.4625,-0.4582,-0.4706,-0.4848,-0.541,-0.6132,-0.6933,-0.8162,-0.9333,-1.012,-0.9333,-0.866,-0.8935,-0.7374,-0.5856,-0.505,-0.4829,-0.4472,-0.3748,-0.3715,-0.4092,-0.4932,-0.5535,-0.6334,-0.7467,-0.7976,-0.8408,-0.8791,-0.8929,-0.9041,-0.9193,-0.8133,-0.732,-0.6854,-0.6769,-0.686,-0.7117,-0.7599,-0.7904,-0.8076,-0.8567,-0.923,-0.9975,-0.9554,-0.9783,-1.0418,-0.9889,-0.9574,-0.9338,-0.875,-0.8629,-0.87,-0.811,-0.7574,-0.7079,-0.6702,-0.5699,-0.4438,-0.344,-0.2704,-0.1983,-0.0787,0.0346,0.142,0.227,0.2837,0.331,0.3849,0.3944,0.4201,0.5339,0.6033,0.6633,0.7342,0.7952,0.8827,1.0392,1.1953,1.3137,1.3396,1.3238,1.3155,1.3418,1.3431,1.3581,1.4085,1.4544,1.509,1.5851,1.5794,1.5785,1.5952,1.5976,1.623,1.6832,1.6311,1.6443,1.7478,1.6638,1.6345,1.6673,1.6046,1.5656,1.5567,1.5232,1.5017,1.4937,1.4926,1.4471,-0.6783,-0.6003,-0.5418,-0.511,-0.4825,-0.4885,-0.5973,-0.6324,-0.666,-0.7656,-0.9248,-1.0397,-1.0215,-0.9898,-0.9582,-0.922,-0.7616,-0.6177,-0.5467,-0.4954,-0.4365,-0.3688,-0.359,-0.4045,-0.5193,-0.5323,-0.606,-0.779,-0.8627,-0.9061,-0.9022,-0.88,-0.8761,-0.8949,-0.7501,-0.6509,-0.6064,-0.6467,-0.6756,-0.6968,-0.8085,-0.8653,-0.8749,-0.9873,-1.0463,-1.0598,-0.978,-0.9595,-0.9779,-0.8849,-0.8386,-0.8281,-0.8472,-0.8518,-0.8498,-0.8506,-0.8193,-0.7703,-0.7141,-0.6405,-0.5536,-0.4415,-0.3703,-0.3092,-0.2052,-0.0897,0.0268,0.1176,0.2016,0.2643,0.276,0.2792,0.3096,0.4375,0.4929,0.5547,0.6887,0.7587,0.8247,0.9239,1.0876,1.211,1.211,1.2296,1.2457,1.2332,1.2384,1.2552,1.2942,1.3688,1.4324,1.4642,1.4674,1.4834,1.5181,1.5228,1.5251,1.5333,1.5311,1.5355,1.5513,1.5491,1.5524,1.5601,1.5568,1.5579,1.5656,1.5389,1.5254,1.5209,1.5153,1.4271,-0.6292,-0.5969,-0.5787,-0.5363,-0.5478,-0.5931,-0.6728,-0.6908,0.0,-0.8852,-0.9454,-0.9879,-1.0483,-1.0059,-0.9479,-0.9028,-0.7613,-0.6263,-0.5346,-0.4677,-0.4113,-0.3663,-0.359,-0.4042,-0.5194,-0.5453,-0.6103,-0.7404,-0.8048,-0.8435,-0.86,-0.8616,-0.8314,-0.7643,-0.7448,-0.7203,-0.6891,-0.7293,-0.7938,-0.8842,-0.9056,-0.9598,-1.0396,-1.0603,-1.0974,-1.1405,-1.1247,-1.1347,-1.1611,-1.1104,-1.0395,-0.9635,-0.9345,-0.8925,-0.8504,-0.8509,-0.8374,-0.8151,-0.7824,-0.7319,-0.6597,-0.525,-0.456,-0.4092,-0.3253,-0.2363,-0.1355,0.0185,0.1115,0.1821,0.2596,0.2711,0.2703,0.2956,0.4092,0.5196,0.546,0.7496,0.9328,0.954,1.0724,1.1679,1.1555,1.2021,1.2179,1.1541,1.203,1.2308,1.1839,1.3193,1.4266,1.4426,1.4598,1.4735,1.4796,1.4808,1.4975,1.5433,1.5355,1.5378,1.5568,1.549,1.5466,1.5599,1.5333,1.5085,1.488,1.4674,1.4466,1.4244,1.4244,1.405,-0.7614,-0.7167,-0.684,-0.641,-0.6154,-0.6324,-0.7649,0.0,0.0,0.0,-0.9567,-0.9667,-1.0223,-1.0,-0.9644,-0.9451,-0.7688,-0.6267,-0.6015,-0.4889,-0.4006,-0.373,-0.3645,-0.41,-0.5377,-0.5464,-0.6045,-0.7498,-0.779,-0.7983,-0.8167,-0.8385,-0.8043,-0.7069,-0.7542,-0.7585,-0.7104,-0.7323,-0.7905,-0.8842,-0.9507,-1.0295,-1.1181,-1.185,-1.2283,-1.2491,-1.1692,-1.1423,-1.1528,-1.0966,-1.0435,-1.0006,-1.0027,-0.9867,-0.9606,-0.9246,-0.8889,-0.8522,-0.8253,-0.7688,-0.6989,-0.6351,-0.5678,-0.4978,-0.4165,-0.3066,-0.1882,-0.0827,0.0328,0.1401,0.2094,0.2229,0.227,0.2623,0.3618,0.4589,0.5016,0.6337,0.7655,0.8334,0.9355,1.0176,1.024,1.0805,1.1107,1.0645,1.1103,1.1309,1.074,1.1823,1.2835,1.3346,1.351,1.3629,1.3811,1.381,1.3941,1.4179,1.434,1.4467,1.4559,1.4697,1.4563,1.4105,1.3935,1.3411,1.2521,1.235,1.2444,1.2779,1.185,1.1691,-0.8968,-0.8371,-0.785,-0.7378,-0.6782,-0.6743,-0.8404,-0.7905,0.0,-0.931,-0.9552,-0.948,-0.9667,-0.9732,-0.973,0.0,-0.7956,-0.6648,-0.6712,-0.5353,-0.4267,-0.402,-0.3811,-0.4214,-0.5543,-0.5505,-0.6016,-0.7551,-0.7531,-0.753,-0.7724,-0.7954,-0.7716,-0.6887,-0.7684,-0.7807,-0.715,-0.7265,-0.7731,-0.8545,-0.9538,-1.0511,-1.145,-1.2447,-1.282,-1.2625,-1.1391,-1.0775,-1.0612,-1.0329,-1.0137,-1.004,-1.0661,-1.0838,-1.0652,-1.011,-0.9468,-0.8829,-0.8631,-0.7966,-0.7184,-0.7121,-0.6382,-0.5413,-0.4764,-0.339,-0.1951,-0.1367,-0.018,0.1059,0.1617,0.1725,0.1904,0.2608,0.3218,0.3869,0.4678,0.5081,0.5626,0.6819,0.7791,0.8529,0.8884,0.9563,0.9961,0.9658,1.0118,1.0313,0.9787,1.0424,1.1212,1.1884,1.2014,1.2175,1.2412,1.244,1.2503,1.2599,1.3006,1.3208,1.3126,1.3508,1.3211,1.2083,1.2259,1.1606,1.0038,1.0177,1.0551,1.1039,0.9781,0.9548,-0.9107,-0.8699,-0.8285,-0.7627,-0.7414,-0.7671,-0.8814,0.0,-0.823,-0.9074,-0.9244,-0.9127,-0.8789,-0.9219,-0.9475,-0.9057,0.0,-0.7923,-0.693,-0.6022,-0.5234,-0.4691,-0.4221,-0.4402,-0.5496,-0.5639,-0.6115,-0.7176,-0.7065,-0.7031,-0.7169,-0.7151,-0.7117,-0.7065,-0.7792,-0.7898,-0.7291,-0.7589,-0.8151,-0.8941,-0.9071,-0.9826,-1.1138,-1.1258,-1.0981,-1.0386,-1.0189,-0.9726,-0.9196,-1.0477,-1.0572,-1.0048,-1.1413,-1.1478,-1.0771,-1.0652,-0.9962,-0.9073,-0.9049,-0.8392,-0.7461,-0.6918,-0.5944,-0.4941,-0.4816,-0.3474,-0.1805,-0.0856,-0.0121,0.0572,0.1395,0.1524,0.1655,0.2497,0.276,0.3023,0.3847,0.431,0.4835,0.5703,0.6566,0.738,0.8012,0.8964,0.9354,0.8507,0.9425,0.9972,0.9193,0.9681,1.0151,1.0222,1.0442,1.0608,1.0642,1.0642,1.0845,1.1331,1.1855,1.1978,1.163,1.2003,1.1498,0.9994,1.0868,1.0442,0.8608,0.9633,0.9768,0.9079,0.9585,0.9502,-0.9768,-0.93,-0.8791,-0.7982,-0.7928,-0.8282,-0.914,0.0,-0.8011,-0.9388,-0.8878,-0.833,-0.8813,-0.9014,-0.9238,-0.9625,0.0,0.0,-0.7706,-0.6455,-0.5396,-0.4983,-0.4811,-0.5039,-0.5836,-0.6514,-0.731,-0.8268,-0.7364,-0.6873,-0.7094,-0.7001,-0.7067,-0.7338,-0.7897,-0.8186,-0.8145,-0.7961,-0.8236,-0.8995,-0.863,-0.9203,-1.0578,-1.1228,-1.152,-1.1537,-1.1182,-1.079,-1.0403,-1.0432,-1.0498,-1.0657,-1.1695,-1.218,-1.2149,-1.0953,-1.0145,-0.948,-0.835,-0.7567,-0.7018,-0.6783,-0.5879,-0.4912,-0.4974,-0.3807,-0.2281,-0.1358,-0.0256,0.0796,0.1391,0.1499,0.154,0.1844,0.1921,0.2142,0.3001,0.3306,0.3727,0.4767,0.565,0.6441,0.7108,0.7999,0.8558,0.8349,0.8784,0.9014,0.8672,0.8856,0.904,0.904,0.9697,1.0159,1.0159,1.0159,1.0248,1.0467,1.0923,1.104,1.0805,1.1265,1.0904,0.9601,1.0043,0.9445,0.7732,0.8189,0.8504,0.8655,0.7907,0.7767,-1.0227,-0.9674,-0.9139,-0.8274,-0.8396,-0.8925,0.0,0.0,-0.8839,-1.0146,-0.9327,-0.848,-0.8769,-0.882,-0.8978,0.0,0.0,-0.7996,-0.8211,-0.7027,-0.6041,-0.5727,-0.5604,-0.5795,-0.6425,-0.7215,-0.7983,-0.8677,-0.7427,-0.671,-0.6972,-0.683,-0.6918,-0.7309,-0.7849,-0.8285,-0.8585,-0.8325,-0.8378,-0.8737,-0.8478,-0.8778,-0.9584,-1.0847,-1.1604,-1.1927,-1.1855,-1.1561,-1.1106,-1.0661,-1.0542,-1.0767,-1.172,-1.2455,-1.2816,-1.1679,-1.0718,-0.9818,-0.8492,-0.745,-0.6693,-0.6579,-0.5896,-0.5083,-0.4955,-0.3814,-0.2397,-0.1632,-0.0383,0.0841,0.1366,0.1496,0.1485,0.1418,0.1411,0.1566,0.2186,0.2319,0.265,0.3748,0.4517,0.525,0.6031,0.6776,0.7426,0.7936,0.8032,0.8115,0.8355,0.8395,0.8395,0.8395,0.9066,0.9503,0.9477,0.9503,0.9477,0.9399,0.9894,1.0067,0.9832,1.0314,1.0048,0.8806,0.913,0.8495,0.6798,0.7099,0.7423,0.7758,0.6747,0.6703,-1.0256,-0.9765,-0.9294,-0.8425,-0.8858,-0.9671,0.0,0.0,-1.1286,-1.1363,-1.0904,-1.0011,-0.8497,-0.8531,-0.8673,-0.8278,0.0,0.0,-0.821,-0.7859,-0.7528,-0.7126,-0.6673,-0.6649,-0.7319,-0.7572,-0.7756,-0.7914,-0.6984,-0.649,-0.669,-0.6511,-0.6559,-0.6902,-0.7627,-0.8104,-0.8299,-0.8689,-0.8631,-0.8118,-0.8705,-0.8651,-0.8071,-0.9753,-1.0548,-1.0676,-1.1671,-1.149,-1.057,-1.1296,-1.0919,-1.0068,-1.1529,-1.2113,-1.2221,-1.2975,-1.1891,-0.9997,-0.9976,-0.8526,-0.6638,-0.6312,-0.5925,-0.5461,-0.4724,-0.3336,-0.189,-0.1346,-0.0469,0.0494,0.1286,0.1511,0.1485,0.1418,0.1411,0.1411,0.1411,0.1411,0.1678,0.2541,0.3052,0.3671,0.4732,0.5267,0.5883,0.696,0.7127,0.7424,0.8277,0.8395,0.8395,0.8395,0.8401,0.8374,0.8221,0.8348,0.8268,0.7955,0.8738,0.8975,0.8448,0.8949,0.8553,0.7149,0.7969,0.7498,0.5607,0.6612,0.6649,0.585,0.6546,0.6902,-1.2884,-1.1834,-1.0701,-1.0075,-1.0226,-1.0776,-1.1705,0.0,-1.1594,-1.2118,-1.0898,-0.9674,-0.9412,-0.8311,-0.7768,-0.8783,-0.8396,0.0,0.0,0.0,-0.7865,-0.7721,-0.7377,-0.7529,-0.8539,-0.837,-0.8522,-0.9336,-0.8059,-0.7364,-0.7693,-0.7224,-0.6829,-0.6574,-0.7273,-0.7975,-0.8638,-0.8536,-0.8817,-0.9457,-0.8739,-0.8613,-0.9039,-0.9626,-1.048,-1.1466,-1.1158,-1.1597,-1.2412,-1.0537,-1.0238,-1.0971,-1.0703,-1.1234,-1.212,-1.1677,-1.0766,-0.9634,-0.894,-0.7556,-0.6072,-0.5964,-0.5623,-0.5155,-0.4656,-0.3168,-0.1335,0.0204,0.0899,0.1233,0.1448,0.1498,0.149,0.1409,0.1411,0.1411,0.1411,0.1411,0.1478,0.1765,0.2386,0.3084,0.3701,0.4682,0.5563,0.6187,0.6561,0.6855,0.7144,0.7182,0.7182,0.7182,0.7182,0.7482,0.8268,0.8368,0.8348,0.8242,0.8501,0.858,0.8401,0.8653,0.8528,0.7987,0.8344,0.8205,0.7509,0.7735,0.7643,0.7246,0.7488,0.7348,0.0,-1.4363,-1.3348,-1.2528,-1.227,0.0,0.0,0.0,-1.2502,-1.2963,-1.1746,-1.0539,-1.0285,-0.8728,-0.7873,-0.9059,-0.8291,-0.7909,0.0,-0.854,-0.8156,-0.8195,-0.8343,-0.8708,-0.9383,-0.9248,-0.9414,-1.0108,-0.9128,-0.8346,-0.8096,-0.8039,-0.7525,-0.6543,-0.7273,-0.7975,-0.8563,-0.9067,-0.9575,-1.0103,-0.9794,-0.9746,-0.9937,-1.0632,-1.1544,-1.2562,-1.2415,-1.2817,0.0,-1.1071,-1.0364,-1.0674,-0.9878,-1.0312,-1.1376,-1.1011,-1.0626,-1.0191,-0.9557,-0.8094,-0.6517,-0.6517,-0.5765,-0.4734,-0.4007,-0.3023,-0.1821,-0.0252,0.0211,0.0377,0.0947,0.1065,0.1117,0.1376,0.1505,0.1547,0.1547,0.1614,0.1658,0.1658,0.2103,0.2623,0.3076,0.3829,0.4677,0.5482,0.5843,0.6168,0.6551,0.6588,0.6588,0.6588,0.6588,0.6912,0.767,0.7723,0.767,0.7584,0.7557,0.7557,0.7557,0.7605,0.7765,0.807,0.8143,0.8276,0.8474,0.8295,0.7975,0.7542,0.7788,0.7676,0.0,-1.7222,-1.6699,-1.5492,-1.473,0.0,0.0,0.0,0.0,-1.3803,-1.3137,-1.2203,-1.1092,-0.9645,-0.8762,-0.9175,-0.8485,-0.8106,-0.8703,-0.8665,-0.8587,-0.8651,-0.9463,-1.0019,-0.9992,-1.0249,-1.0417,-1.0409,-1.0222,-0.957,-0.8272,-0.8947,-0.8616,-0.692,-0.7623,-0.811,-0.8312,-1.007,-1.0738,-1.0342,-1.161,-1.1685,-1.0798,-1.2344,-1.3228,-1.3602,-1.4585,-1.4469,-1.3505,-1.2356,-1.0962,-0.9526,-0.9094,-0.9374,-1.0119,-1.0868,-1.1189,-1.1275,-1.131,-0.9734,-0.7678,-0.7556,-0.6172,-0.4316,-0.3072,-0.2893,-0.294,-0.2134,-0.1916,-0.1571,-0.0071,0.0319,0.0492,0.1264,0.1625,0.181,0.1815,0.1973,0.2131,0.2109,0.2131,0.2296,0.279,0.2913,0.3401,0.4805,0.5046,0.5404,0.6315,0.6453,0.6453,0.6453,0.6453,0.6453,0.6453,0.6561,0.6507,0.6236,0.6236,0.6236,0.6236,0.6091,0.6492,0.7492,0.7572,0.7925,0.86,0.8348,0.7783,0.702,0.7639,0.7931,-2.1041,0.0,-1.7589,-1.7288,-1.5881,-1.4708,0.0,0.0,0.0,0.0,0.0,0.0,0.0,0.0,-0.9011,-0.958,-0.9262,-0.9101,-0.9563,-0.9887,-1.0141,-1.0246,-1.0287,-1.0438,-1.0769,-1.1343,-1.1607,-1.1383,-1.1922,-1.1954,-1.1237,-1.0524,-0.9655,-0.8579,-0.8327,-0.8613,-0.9414,-1.0126,-1.1167,-1.2555,-1.2314,-1.2197,-1.2194,-1.1784,-1.1777,-1.2057,-1.1517,-1.1728,-1.2323,-1.0422,-0.9887,-1.0133,-0.8772,-0.871,-0.949,-1.0184,-1.0235,-1.0012,-1.042,-0.9308,-0.7477,-0.6151,-0.5374,-0.4785,-0.3874,-0.2985,-0.2117,-0.1313,-0.1079,-0.0992,-0.0622,-0.0073,0.0452,0.0738,0.1394,0.1961,0.2029,0.2219,0.2373,0.2281,0.2326,0.2472,0.2717,0.3096,0.3505,0.3971,0.4385,0.472,0.4976,0.4979,0.4979,0.4979,0.4979,0.5038,0.5152,0.6046,0.6561,0.6507,0.6507,0.6507,0.6507,0.6389,0.674,0.7637,0.8209,0.8527,0.86,0.8421,0.8182,0.7901,0.8099,0.8201,-2.2241,-2.1132,-2.0086,-1.9838,-1.7645,-1.5566,-1.5707,0.0,0.0,0.0,0.0,0.0,0.0,0.0,-1.0146,-1.0292,-1.015,-1.0252,-1.0868,-1.0371,-1.0441,-1.1798,-1.144,-1.1393,-1.218,-1.2365,-1.2567,-1.2781,-1.3232,-1.321,-1.2546,-1.2119,-1.1335,-1.0144,-0.9875,-0.9411,-0.8651,-0.9563,-1.0567,-1.1658,-1.1959,-1.2286,-1.2589,-1.239,-1.2475,-1.277,-1.2221,-1.2492,-1.3214,-1.1558,-1.1117,-1.1324,-0.9458,-0.9209,-0.9828,-0.9398,-0.9496,-0.9862,-0.9847,-0.8884,-0.7402,-0.5899,-0.5282,-0.496,-0.4184,-0.3306,-0.2494,-0.2029,-0.1797,-0.1592,-0.1224,-0.0797,-0.0221,0.0736,0.1382,0.1893,0.2377,0.2595,0.2724,0.2724,0.2771,0.2939,0.3285,0.3575,0.3865,0.4121,0.4412,0.4605,0.4605,0.4605,0.4605,0.4605,0.4656,0.4684,0.4691,0.5395,0.5823,0.5823,0.5773,0.5691,0.5637,0.5469,0.5737,0.6497,0.8017,0.8362,0.7513,0.809,0.8156,0.7696,0.8104,0.8291,-2.2037,-2.2195,-2.2447,-2.1805,-1.8918,-1.6086,-1.5654,0.0,0.0,0.0,0.0,0.0,0.0,-1.1751,-1.1454,-1.1296,-1.1156,-1.1329,-1.2036,-1.0869,-1.0793,-1.3135,-1.3006,-1.3001,-1.3739,-1.3871,-1.3942,-1.403,-1.4522,-1.444,-1.3624,-1.3714,-1.3282,-1.2132,-1.1814,-1.0488,-0.8063,-0.93,-0.9923,-0.9908,-1.1203,-1.1972,-1.2277,-1.2856,-1.3325,-1.3697,-1.3678,-1.3879,-1.4164,-1.3318,-1.2766,-1.2285,-1.0467,-1.0124,-1.0467,-0.9101,-0.9262,-1.0054,-0.9287,-0.8318,-0.7236,-0.6148,-0.543,-0.4878,-0.4202,-0.3595,-0.3126,-0.3056,-0.2828,-0.2457,-0.1764,-0.1501,-0.0994,0.0687,0.1258,0.1647,0.2566,0.2854,0.2964,0.3189,0.3239,0.3439,0.4021,0.4122,0.4252,0.4669,0.4743,0.4743,0.4743,0.4743,0.4715,0.4691,0.4822,0.4846,0.4743,0.4982,0.5128,0.5156,0.4888,0.466,0.4546,0.4467,0.4719,0.5337,0.7515,0.7949,0.6586,0.7815,0.801,0.7283,0.7993,0.8291,-2.0302,-2.059,-2.1347,-2.0303,-1.7459,-1.487,-1.4853,0.0,0.0,0.0,0.0,0.0,0.0,-1.2238,-1.1797,-1.2782,-1.2374,-1.1897,-1.1878,-1.2609,-1.339,-1.3891,-1.5411,-1.5957,-1.4871,-1.6965,-1.7116,-1.401,-1.6386,-1.7586,-1.6674,-1.5405,-1.4985,-1.5602,-1.3502,-1.2066,-1.1459,-1.113,-1.0917,-1.0792,-1.0928,-1.1037,-1.1126,-1.069,-1.0822,-1.1384,-1.0931,-1.11,-1.1681,-1.1807,-1.1653,-1.1295,-1.0746,-1.0463,-1.0398,-1.0755,-1.0323,-0.9373,-0.8179,-0.7253,-0.6489,-0.5907,-0.5212,-0.4518,-0.4114,-0.3285,-0.2425,-0.2302,-0.2236,-0.217,-0.2034,-0.151,-0.0875,-0.0398,0.0313,0.1142,0.2036,0.2364,0.2666,0.3262,0.3464,0.3673,0.4122,0.4175,0.4328,0.4798,0.4873,0.4873,0.4873,0.4873,0.4822,0.4715,0.4822,0.4897,0.4873,0.5675,0.6218,0.6327,0.5417,0.4822,0.4688,0.523,0.5871,0.6534,0.7416,0.8045,0.8401,0.8402,0.8268,0.8035,0.822,0.8291,-2.0778,-1.9791,-1.897,-1.8462,-1.6846,-1.5284,-1.5032,0.0,0.0,0.0,0.0,0.0,0.0,-1.3113,-1.3454,-1.4615,-1.4039,-1.3752,-1.4659,-1.4477,-1.5042,-1.7169,-1.7207,-1.72,-1.7451,-1.8101,-1.7829,-1.6235,-1.7752,-1.8704,-1.8552,-1.8048,-1.7931,-1.8319,-1.7169,-1.6166,-1.534,-1.3959,-1.2453,-1.0879,-1.0677,-1.0354,-0.991,-0.946,-0.9467,-0.9807,-0.9561,-1.0179,-1.1376,-1.1536,-1.2068,-1.2688,-1.1846,-1.1447,-1.1202,-1.0287,-0.9461,-0.8628,-0.7347,-0.6686,-0.6318,-0.5813,-0.5124,-0.4386,-0.3792,-0.3029,-0.2244,-0.1757,-0.1723,-0.1821,-0.1821,-0.1227,-0.0561,-0.0288,0.0698,0.1687,0.2151,0.2275,0.2396,0.2788,0.2909,0.3121,0.3625,0.4063,0.4503,0.4934,0.5011,0.5011,0.5011,0.5011,0.4956,0.4822,0.4932,0.4956,0.4794,0.5274,0.5893,0.6625,0.606,0.5679,0.5627,0.6262,0.669,0.6905,0.8023,0.851,0.8311,0.8453,0.8467,0.8412,0.8348,0.8291,-2.1038,-1.9404,-1.7656,-1.7226,-1.6044,-1.5031,0.0,0.0,0.0,0.0,0.0,0.0,-1.3375,-1.4159,-1.506,-1.5582,-1.5405,-1.5573,-1.6777,-1.6127,-1.6599,-1.9571,-1.8988,-1.8664,-1.9537,-1.9193,-1.8652,-1.7951,-1.8898,-1.9654,-1.9968,-2.0342,-2.0552,-2.0529,-2.0194,-1.9318,-1.7815,-1.6552,-1.4385,-1.1301,-1.0585,-0.9897,-0.9214,-0.8583,-0.8542,-0.892,-0.8569,-0.9379,-1.0992,-1.1266,-1.2223,-1.3439,-1.2514,-1.2141,-1.1881,-0.9658,-0.8729,-0.8376,-0.6895,-0.6396,-0.6335,-0.5754,-0.5073,-0.4274,-0.3344,-0.2653,-0.2028,-0.1252,-0.1222,-0.1455,-0.1486,-0.0904,-0.0217,0.011,0.1162,0.2187,0.2527,0.254,0.2478,0.2582,0.2604,0.2723,0.3065,0.3789,0.4433,0.4831,0.5046,0.5156,0.5156,0.5128,0.5057,0.4953,0.5044,0.5106,0.5154,0.5271,0.578,0.6856,0.6813,0.6759,0.6788,0.7215,0.7348,0.7181,0.8253,0.8521,0.7933,0.8212,0.8397,0.8537,0.8375,0.8255,-1.9608,-1.9435,-1.9248,-1.731,-1.4501,0.0,-1.3957,-1.3518,0.0,-1.3906,-1.4224,-1.4323,-1.4298,-1.5369,-1.5867,-1.4623,-1.5771,-1.6604,-1.5988,-1.7243,-1.8461,-1.9014,-2.0986,-2.16,-1.9771,-2.1491,-2.1164,-1.7386,-1.9885,-2.1435,-2.1084,-2.1409,-2.1738,-2.2036,-2.0786,-1.916,-1.7183,-1.8129,-1.6667,-1.2824,-1.0739,-0.972,-0.9602,-0.7887,-0.7838,-0.9013,-0.7568,-0.776,-0.9181,-1.0297,-1.1056,-1.1544,-1.1884,-1.2013,-1.1785,-0.9938,-0.9318,-0.9115,-0.7031,-0.6393,-0.6378,-0.5722,-0.4975,-0.4065,-0.2772,-0.1989,-0.1422,-0.0748,-0.0739,-0.099,-0.1175,-0.0628,0.0055,0.0383,0.1127,0.2007,0.3021,0.3234,0.3213,0.3222,0.3225,0.3111,0.272,0.3277,0.3865,0.4226,0.4834,0.5297,0.5297,0.5183,0.5103,0.5088,0.5103,0.5486,0.6476,0.6568,0.6888,0.7593,0.766,0.7783,0.7963,0.7896,0.7801,0.7647,0.7276,0.7415,0.8091,0.7754,0.783,0.8319,0.8319,0.8159,-1.9259,-1.8567,-1.7737,-1.6475,-1.4296,0.0,0.0,-1.4679,-1.4237,-1.3551,-1.4275,-1.4821,-1.4202,-1.593,-1.6987,-1.5583,-1.7084,-1.8335,-1.8004,-1.876,-1.958,-2.0335,-2.2241,-2.2856,-2.1192,-2.2643,-2.2484,-1.9448,-2.1285,-2.2296,-2.1658,-2.27,-2.319,-2.2911,-2.2365,-2.1599,-2.0573,-1.9836,-1.8269,-1.5831,-1.3354,-1.2053,-1.1724,-0.8872,-0.8519,-1.0072,-0.7579,-0.7357,-0.8785,-0.8999,-0.9718,-1.0698,-1.0969,-1.086,-1.0451,-0.9476,-0.928,-0.9267,-0.7619,-0.705,-0.6952,-0.632,-0.5291,-0.4228,-0.3838,-0.2972,-0.2009,-0.1416,-0.1381,-0.1437,-0.1098,-0.0423,0.0259,0.0506,0.1178,0.2035,0.3083,0.2897,0.2705,0.3204,0.3292,0.3292,0.3293,0.3918,0.454,0.4843,0.4724,0.4789,0.523,0.4963,0.4828,0.5074,0.5037,0.5145,0.5536,0.6475,0.7187,0.7607,0.7714,0.7954,0.8443,0.8536,0.8724,0.8986,0.888,0.888,0.8961,0.8661,0.8592,0.8794,0.8441,0.8237,-1.8982,-1.7767,-1.6487,-1.6405,0.0,0.0,-1.5362,-1.527,-1.4658,-1.403,-1.4751,-1.5402,-1.5039,-1.6522,-1.7621,-1.7086,-1.8396,-1.9499,-1.9499,-1.9899,-2.0481,-2.1366,-2.2672,-2.3172,-2.2255,-2.3015,-2.2836,-2.1109,-2.222,-2.2889,-2.2694,-2.3664,-2.3995,-2.3473,-2.314,-2.2561,-2.1697,-2.0808,-1.9467,-1.7686,-1.6147,-1.4812,-1.358,-1.1248,-1.0959,-1.2095,-0.9067,-0.8367,-0.9312,-0.838,-0.8702,-0.9823,-1.0444,-1.0232,-0.9526,-0.9116,-0.9032,-0.8968,-0.788,-0.7487,-0.7393,-0.674,-0.5845,-0.4935,-0.4435,-0.351,-0.2463,-0.1726,-0.1478,-0.1315,-0.0854,-0.0187,0.042,0.0701,0.1366,0.2136,0.2939,0.2903,0.279,0.3125,0.3405,0.3572,0.3494,0.4153,0.4745,0.4919,0.4788,0.4803,0.5234,0.4998,0.4865,0.5077,0.5088,0.506,0.506,0.6215,0.7099,0.7497,0.7793,0.8311,0.9153,0.9316,0.9391,0.9441,0.9466,0.9372,0.9194,0.8881,0.888,0.9089,0.8728,0.8518,-1.8645,-1.7213,-1.5986,-1.7255,0.0,0.0,-1.6148,-1.4885,-1.3946,-1.5732,-1.59,-1.602,-1.7081,-1.7234,-1.7612,-1.8885,-1.9524,-1.9902,-1.9902,-2.0556,-2.1183,-2.1746,-2.2237,-2.2559,-2.268,-2.2511,-2.2252,-2.1845,-2.2553,-2.3386,-2.4337,-2.4132,-2.3903,-2.377,-2.2742,-2.1316,-1.9524,-2.0893,-2.0336,-1.7932,-1.8806,-1.7734,-1.4962,-1.5135,-1.5219,-1.5086,-1.2182,-1.0914,-1.0748,-0.8688,-0.8138,-0.8768,-1.044,-1.0366,-0.9262,-0.8983,-0.863,-0.822,-0.7685,-0.759,-0.7567,-0.6843,-0.6596,-0.6224,-0.4221,-0.3271,-0.2648,-0.1436,-0.0757,-0.0404,-0.0405,0.0043,0.0593,0.1016,0.1655,0.2295,0.2641,0.338,0.3767,0.3061,0.3619,0.3952,0.3137,0.3673,0.4206,0.4206,0.499,0.5519,0.5325,0.5348,0.5314,0.5118,0.527,0.5395,0.5395,0.6013,0.6695,0.7358,0.8102,0.9022,1.0155,1.0201,0.9746,0.8732,0.8443,0.8387,0.8516,0.8171,0.8387,0.9101,0.9095,0.8957,-1.6619,-1.5835,-1.5065,-1.4226,0.0,0.0,0.0,-1.5147,0.0,-1.6251,-1.5951,-1.5543,-1.5737,-1.6996,-1.7957,-1.7623,-1.902,-2.0225,-2.0372,-2.0745,-2.1046,-2.1219,-2.2691,-2.3167,-2.1825,-2.2846,-2.2977,-2.1484,-2.2101,-2.2467,-2.2247,-2.2673,-2.2596,-2.1792,-2.1632,-2.1051,-1.9986,-2.0625,-2.0092,-1.8414,-1.9652,-1.9763,-1.8765,-1.7071,-1.7189,-1.846,-1.4073,-1.2223,-1.2174,-1.0464,-0.9502,-0.9199,-1.0369,-0.9907,-0.8565,-0.8248,-0.8045,-0.7862,-0.7326,-0.7168,-0.7172,-0.6962,-0.649,-0.5821,-0.4607,-0.3783,-0.295,-0.15,-0.0991,-0.0758,-0.0139,0.0163,0.0461,0.1092,0.1409,0.1968,0.3451,0.3552,0.3449,0.3757,0.4018,0.4128,0.3875,0.4473,0.4969,0.4969,0.4888,0.4901,0.5078,0.5342,0.5568,0.5665,0.55,0.5326,0.519,0.5943,0.668,0.7286,0.8053,0.8851,0.9657,0.9857,0.9713,0.9263,0.9182,0.9119,0.9061,0.8966,0.9024,0.9245,0.9154,0.9053,-1.5487,-1.4504,-1.3611,-1.3667,-1.3998,-1.4469,-1.491,-1.5514,-1.6085,-1.6415,-1.6279,-1.6099,-1.6044,-1.7388,-1.8445,-1.8129,-1.9455,-2.0605,-2.0809,-2.1133,-2.1375,-2.1533,-2.2542,-2.2908,-2.2074,-2.2702,-2.2783,-2.1752,-2.2138,-2.2376,-2.2312,-2.2357,-2.2199,-2.1808,-2.1374,-2.0943,-2.0496,-2.0495,-2.008,-1.9268,-2.0113,-2.0544,-2.054,-1.9283,-1.9458,-2.056,-1.6883,-1.4233,-1.2481,-1.2078,-1.1068,-0.9914,-1.075,-1.0271,-0.9088,-0.8989,-0.8407,-0.7652,-0.7404,-0.7175,-0.7,-0.7007,-0.6671,-0.6132,-0.5373,-0.4303,-0.3106,-0.1936,-0.1089,-0.0389,0.0145,0.0269,0.0389,0.0836,0.1177,0.1722,0.2876,0.3353,0.3691,0.4044,0.4527,0.4837,0.4776,0.5188,0.5539,0.5539,0.5277,0.5159,0.5452,0.5616,0.5734,0.5771,0.5557,0.5326,0.512,0.5774,0.6345,0.6718,0.7447,0.8208,0.9002,0.9435,0.9612,0.9414,0.9434,0.9332,0.9177,0.9177,0.9177,0.9172,0.9172,0.9195,-1.5014,-1.3418,-1.2189,-1.4686,-1.4339,-1.3756,-1.5206,-1.5903,-1.6306,-1.6368,-1.6821,-1.7279,-1.7461,-1.8169,-1.8976,-1.9739,-2.0479,-2.0992,-2.1205,-2.1617,-2.2008,-2.2371,-2.2152,-2.2232,-2.2907,-2.2296,-2.2035,-2.2365,-2.2402,-2.2756,-2.3647,-2.2746,-2.2443,-2.2923,-2.1653,-2.0942,-2.0877,-2.0472,-2.0247,-2.0242,-2.017,-2.0348,-2.0687,-2.1267,-2.1455,-2.1209,-1.9833,-1.6471,-1.209,-1.3368,-1.2571,-1.0643,-1.1387,-1.1123,-1.032,-1.0513,-0.9336,-0.7623,-0.7724,-0.7404,-0.695,-0.6924,-0.6922,-0.6801,-0.6172,-0.4779,-0.3273,-0.2513,-0.1073,0.0277,0.0405,0.0431,0.0427,0.0438,0.1115,0.1736,0.1682,0.307,0.4302,0.4116,0.502,0.5733,0.5544,0.5729,0.5892,0.5939,0.5912,0.6003,0.6171,0.6016,0.5821,0.5635,0.5455,0.5292,0.509,0.5514,0.5815,0.5892,0.6474,0.7253,0.8258,0.8991,0.9385,0.9341,0.9309,0.9201,0.8985,0.8985,0.8985,0.8985,0.9177,0.9274,-1.4171,-1.373,0.0,-1.3823,-1.4024,-1.4429,-1.5514,-1.5963,-1.6328,-1.6895,-1.7097,-1.7304,-1.7613,-1.8347,-1.9105,-1.9604,-2.0499,-2.1272,-2.1617,-2.2035,-2.236,-2.2626,-2.2861,-2.292,-2.2774,-2.2601,-2.2478,-2.2402,-2.2402,-2.2478,-2.2681,-2.2483,-2.2141,-2.1614,-2.1513,-2.1208,-2.0665,-2.0754,-2.0707,-2.0503,-2.0158,-2.0146,-2.0474,-2.0761,-2.0189,-1.9017,-1.9294,-1.6829,-1.2664,-1.3508,-1.2461,-1.0417,-1.1102,-1.098,-1.0332,-0.9902,-0.9151,-0.8284,-0.7687,-0.71,-0.6587,-0.642,-0.6374,-0.6212,-0.5271,-0.471,-0.401,-0.2075,-0.1247,-0.0683,0.0365,0.0631,0.0657,0.0756,0.1839,0.2877,0.2907,0.3842,0.4687,0.4648,0.4843,0.5022,0.4992,0.5483,0.5963,0.6102,0.6122,0.6137,0.6187,0.6019,0.5814,0.5613,0.5352,0.509,0.4894,0.496,0.5239,0.5723,0.5977,0.681,0.8304,0.8492,0.8875,0.9519,0.928,0.9079,0.8985,0.8894,0.8835,0.8835,0.899,0.9049,-1.4232,-1.3698,0.0,-1.3944,0.0,-1.4723,-1.5049,-1.5632,-1.6266,-1.6932,-1.7266,-1.7501,-1.7784,-1.8701,-1.9532,-1.9847,-2.0873,-2.1769,-2.2176,-2.2402,-2.274,-2.3224,-2.3187,-2.3187,-2.3261,-2.3001,-2.2815,-2.2703,-2.2703,-2.259,-2.2402,-2.2402,-2.2101,-2.1512,-2.1429,-2.1219,-2.0886,-2.0829,-2.0753,-2.0605,-2.0372,-2.0217,-2.0177,-2.0216,-1.9803,-1.905,-1.9616,-1.7999,-1.4997,-1.4997,-1.3913,-1.2244,-1.1954,-1.1549,-1.1069,-1.076,-0.9975,-0.8938,-0.8227,-0.7601,-0.7062,-0.6625,-0.6501,-0.6392,-0.5856,-0.5334,-0.449,-0.2587,-0.1637,-0.0921,0.037,0.0688,0.0688,0.0659,0.1667,0.2747,0.3192,0.4092,0.4914,0.5255,0.5441,0.5529,0.5339,0.5631,0.5982,0.6161,0.6113,0.6047,0.6042,0.5954,0.5822,0.5617,0.5388,0.5156,0.496,0.4861,0.4925,0.5264,0.5329,0.6124,0.784,0.7892,0.8398,0.9519,0.9377,0.9502,0.9928,0.9669,0.9843,1.0368,1.0359,1.0095,-1.4413,-1.3535,-1.2532,-1.4424,-1.4891,-1.4807,-1.4545,-1.5325,-1.6236,-1.6826,-1.735,-1.7784,-1.8042,-1.9088,-1.9955,-2.016,-2.1271,-2.2252,-2.2628,-2.2777,-2.3075,-2.3824,-2.3519,-2.3446,-2.3861,-2.3446,-2.315,-2.3113,-2.3113,-2.2927,-2.259,-2.2553,-2.2327,-2.1883,-2.154,-2.1359,-2.132,-2.0964,-2.0799,-2.0799,-2.0722,-2.0411,-1.9893,-1.9832,-1.9782,-1.9716,-2.0082,-1.9141,-1.7218,-1.6639,-1.5434,-1.3935,-1.282,-1.2165,-1.1841,-1.1752,-1.0882,-0.9668,-0.9082,-0.8438,-0.7772,-0.7226,-0.6943,-0.6791,-0.6791,-0.6139,-0.5058,-0.3418,-0.2202,-0.1104,0.0277,0.0679,0.0648,0.0463,0.119,0.2152,0.2888,0.3936,0.4925,0.5538,0.6,0.6221,0.5962,0.5888,0.5954,0.6115,0.602,0.5888,0.5855,0.5855,0.5785,0.5587,0.5579,0.5529,0.5356,0.5159,0.5062,0.5062,0.5062,0.5784,0.738,0.7566,0.8284,0.9594,0.9736,1.0195,1.0958,1.0814,1.1208,1.2106,1.1881,1.1329,-1.376,0.0,-1.4093,0.0,-1.4805,-1.4756,-1.4834,-1.5449,-1.6236,-1.7001,-1.7461,-1.7852,-1.8337,-1.9229,-1.9955,-2.016,-2.1271,-2.2252,-2.2628,-2.3001,-2.3372,-2.3861,-2.4152,-2.4189,-2.3934,-2.3824,-2.3714,-2.3519,-2.3519,-2.3409,-2.3187,-2.3187,-2.2852,-2.2063,-2.1987,-2.1883,-2.1731,-2.1655,-2.1645,-2.1655,-2.1282,-2.0693,-1.9902,-1.9885,-1.969,-1.9416,-2.0129,-1.9077,-1.6785,-1.6688,-1.5027,-1.255,-1.2365,-1.2055,-1.157,-1.1107,-1.0833,-1.0664,-1.0219,-0.9174,-0.8038,-0.8013,-0.7461,-0.6791,-0.6791,-0.6701,-0.6083,-0.3818,-0.2903,-0.2172,-0.0092,0.0556,0.0648,0.0463,0.1094,0.1803,0.1956,0.3329,0.456,0.468,0.5323,0.5886,0.5914,0.5888,0.5925,0.5921,0.5921,0.5822,0.565,0.565,0.5587,0.5425,0.5974,0.6329,0.6325,0.6184,0.6116,0.6116,0.6116,0.6583,0.7611,0.8281,0.9087,1.0081,1.0744,1.1089,1.1173,1.1751,1.2071,1.2112,1.1888,1.1678,-1.4735,-1.509,-1.5806,0.0,-1.5737,-1.5569,-1.5535,-1.6024,-1.6627,-1.711,-1.7638,-1.8237,-1.894,-1.9681,-2.0416,-2.0989,-2.1919,-2.2703,-2.3001,-2.3298,-2.3567,-2.3861,-2.4164,-2.4273,-2.4091,-2.408,-2.4043,-2.3934,-2.3824,-2.3641,-2.3335,-2.3187,-2.2852,-2.2289,-2.2138,-2.1825,-2.1242,-2.1606,-2.1807,-2.1807,-2.1397,-2.1012,-2.0615,-2.0411,-1.9932,-1.9301,-1.9687,-1.9173,-1.8118,-1.7352,-1.6272,-1.5034,-1.4238,-1.3565,-1.3024,-1.2672,-1.2325,-1.1946,-1.1294,-1.0402,-0.9395,-0.8883,-0.8397,-0.7982,-0.776,-0.734,-0.6535,-0.4448,-0.3491,-0.2547,-0.0261,0.0131,0.01,0.0895,0.1371,0.1728,0.2099,0.3364,0.4564,0.5121,0.5438,0.5672,0.5852,0.5756,0.5657,0.5719,0.5657,0.5594,0.5491,0.5228,0.5002,0.4971,0.5019,0.5271,0.5906,0.5589,0.573,0.6647,0.6362,0.6824,0.825,0.8636,0.9232,1.0175,1.1029,1.1463,1.1422,1.2714,1.3327,1.3276,1.3493,1.3236,-1.5834,0.0,-1.6277,-1.6342,-1.6101,-1.5923,-1.5987,-1.6501,-1.7016,-1.7228,-1.7839,-1.8612,-1.9503,-2.0048,-2.0644,-2.143,-2.2254,-2.2944,-2.3239,-2.3446,-2.3593,-2.3787,-2.4007,-2.4116,-2.4116,-2.4164,-2.42,-2.42,-2.4007,-2.3751,-2.3372,-2.3187,-2.2815,-2.2252,-2.2063,-2.151,-2.0566,-2.1165,-2.1568,-2.1807,-2.1502,-2.132,-2.1167,-2.0886,-2.0294,-1.946,-1.946,-1.9381,-1.9234,-1.821,-1.7596,-1.7125,-1.6058,-1.5049,-1.4126,-1.3977,-1.3521,-1.2883,-1.2393,-1.169,-1.0935,-1.0275,-0.984,-0.9523,-0.9034,-0.8338,-0.7284,-0.5253,-0.4108,-0.2969,-0.0834,-0.0593,-0.0636,0.0459,0.1134,0.1755,0.2633,0.3435,0.4273,0.5265,0.5342,0.5335,0.56,0.5406,0.5234,0.54,0.5301,0.5203,0.5203,0.4844,0.4588,0.4588,0.4516,0.4728,0.5485,0.5379,0.5745,0.6905,0.6825,0.7247,0.846,0.8822,0.9293,0.9943,1.0988,1.1548,1.1587,1.3374,1.4234,1.4194,1.479,1.4553,0.0,-1.5523,0.0,-1.5409,-1.5202,-1.4988,-1.5797,-1.6621,-1.7222,-1.7356,-1.7962,-1.8816,-1.9881,-2.0089,-2.0291,-2.0765,-2.1672,-2.2546,-2.3206,-2.3298,-2.3372,-2.3604,-2.3787,-2.3934,-2.3934,-2.408,-2.42,-2.42,-2.4007,-2.3824,-2.3593,-2.3372,-2.2852,-2.1845,-2.1634,-2.1029,-1.9982,-2.0343,-2.0972,-2.1807,-2.1769,-2.1578,-2.1205,-2.1167,-2.0693,-1.9863,-1.9863,-1.9657,-1.9301,-1.9234,-1.8351,-1.7024,-1.6921,-1.5693,-1.3906,-1.3892,-1.3586,-1.3213,-1.348,-1.3041,-1.2331,-1.2544,-1.1992,-1.1169,-1.0508,-0.9821,-0.8772,-0.6226,-0.4919,-0.3883,-0.2223,-0.1668,-0.1597,-0.1706,-0.0148,0.1765,0.339,0.3426,0.3458,0.4398,0.455,0.4625,0.4912,0.4778,0.4706,0.4925,0.4778,0.4632,0.4632,0.4601,0.4604,0.4604,0.5365,0.5851,0.5696,0.6519,0.7003,0.6921,0.7846,0.8153,0.7684,0.8881,0.949,0.9339,1.0626,1.1414,1.1587,1.3466,1.433,1.4201,1.4862,1.5015,-1.666,0.0,0.0,-1.5805,-1.6385,-1.6878,-1.6155,-1.6909,-1.7755,-1.7927,-1.8362,-1.8892,-1.9494,-1.9868,-2.0284,-2.0854,-2.1571,-2.2201,-2.2437,-2.2952,-2.3335,-2.3409,-2.3703,-2.3897,-2.3897,-2.408,-2.397,-2.3482,-2.3224,-2.2879,-2.2268,-2.208,-2.1776,-2.1443,-2.1203,-2.0972,-2.076,-1.9932,-2.0284,-2.1807,-2.1415,-2.1339,-2.1578,-2.1578,-2.1272,-2.0731,-2.045,-1.9942,-1.9301,-1.9301,-1.8964,-1.8474,-1.8474,-1.7754,-1.6652,-1.5905,-1.5244,-1.471,-1.4398,-1.368,-1.2955,-1.3146,-1.2844,-1.2273,-1.1434,-1.0336,-0.9008,-0.7098,-0.5657,-0.4306,-0.2707,-0.2503,-0.2457,-0.1339,0.0153,0.1498,0.2212,0.3202,0.4038,0.4427,0.449,0.4529,0.4673,0.4651,0.4615,0.469,0.4651,0.4615,0.4615,0.4352,0.4138,0.4138,0.4152,0.4399,0.5007,0.5619,0.6419,0.7412,0.7979,0.843,0.8853,0.9238,0.9506,0.969,1.003,1.0384,1.0694,1.3306,1.4144,1.3272,1.4815,1.5355,-1.6432,-1.6728,-1.6758,-1.5788,-1.6075,-1.6584,-1.641,-1.6818,-1.7468,-1.8218,-1.8539,-1.8774,-1.9075,-1.9424,-1.9915,-2.0714,-2.1231,-2.1606,-2.1732,-2.2205,-2.2546,-2.2546,-2.2883,-2.3214,-2.3444,-2.3455,-2.3341,-2.3027,-2.2542,-2.2042,-2.1538,-2.1318,-2.1088,-2.0769,-2.0352,-2.0372,-2.077,-1.9666,-1.9814,-2.1262,-2.0779,-2.0702,-2.0972,-2.0972,-2.0905,-2.076,-2.0479,-2.005,-1.9499,-1.9341,-1.9301,-1.9301,-1.9301,-1.8775,-1.8008,-1.7372,-1.6652,-1.5832,-1.5248,-1.462,-1.4062,-1.3845,-1.366,-1.3335,-1.2479,-1.135,-1.0051,-0.8411,-0.6972,-0.56,-0.4126,-0.3971,-0.3787,-0.1966,-0.0794,0.0082,0.0736,0.2452,0.3864,0.3919,0.4112,0.4299,0.4415,0.4365,0.4365,0.444,0.4365,0.4326,0.4326,0.4051,0.3865,0.3865,0.3534,0.3606,0.4224,0.5112,0.6093,0.7199,0.7915,0.8544,0.9084,0.9089,0.9241,0.9501,0.943,0.962,1.011,1.2355,1.3227,1.283,1.4416,1.5164,0.0,0.0,0.0,-1.5162,-1.4192,-1.3868,-1.6401,-1.6407,-1.6367,-1.8084,-1.8476,-1.8583,-1.8774,-1.8808,-1.9186,-2.0357,-2.0545,-2.0717,-2.1226,-2.1093,-2.0977,-2.1023,-2.1326,-2.1837,-2.2501,-2.2212,-2.2262,-2.2888,-2.2,-2.142,-2.1382,-2.1211,-2.076,-1.9904,-1.9112,-1.9091,-1.9902,-1.9499,-1.9618,-2.0206,-1.9991,-1.9698,-1.9335,-1.9304,-1.9502,-1.9904,-1.9864,-1.9874,-1.9863,-1.946,-1.9301,-1.9301,-1.9301,-1.8623,-1.7705,-1.8148,-1.7567,-1.6554,-1.6111,-1.5912,-1.5786,-1.4904,-1.4565,-1.4382,-1.3665,-1.2939,-1.201,-1.0126,-0.8846,-0.7751,-0.6537,-0.6067,-0.5502,-0.3873,-0.3203,-0.2505,-0.1003,0.1111,0.2721,0.276,0.327,0.3771,0.4008,0.3888,0.3845,0.4045,0.3886,0.3767,0.3767,0.3769,0.3771,0.3767,0.3769,0.369,0.3526,0.5153,0.6202,0.6202,0.7803,0.8539,0.8174,0.8513,0.8703,0.8737,0.8903,0.9284,0.9884,1.0654,1.1682,1.3002,1.3729,1.4448,-1.5375,0.0,0.0,0.0,0.0,0.0,-1.4481,-1.5822,-1.7209,-1.6768,-1.7889,-1.8942,-1.9008,-1.9008,-1.9116,-1.9475,-1.9687,-2.0051,-2.0694,-2.0576,-2.0634,-2.115,-2.1104,-2.1252,-2.1837,-2.1897,-2.1694,-2.1155,-2.0648,-1.9952,-1.9079,-1.9126,-1.9184,-1.9253,-1.9183,-1.939,-1.9902,-1.935,-1.9548,-2.0479,-1.9657,-1.9411,-1.9737,-1.9413,-1.9374,-1.9462,-1.9155,-1.9362,-1.9874,-1.9775,-1.9736,-1.9706,-1.942,-1.911,-1.8755,-1.8232,-1.7826,-1.7458,-1.6979,-1.6752,-1.6626,-1.6781,-1.6222,-1.5402,-1.4818,-1.3372,-1.1705,-1.0406,-0.9183,-0.8053,-0.6984,-0.6668,-0.6401,-0.5423,-0.4351,-0.3392,-0.2804,-0.1056,0.0636,0.1502,0.178,0.1978,0.2185,0.2682,0.3094,0.3134,0.3094,0.3094,0.3094,0.2692,0.258,0.3018,0.2817,0.293,0.3655,0.4985,0.6022,0.6673,0.8067,0.8952,0.916,0.9019,0.9056,0.9354,0.9132,0.9208,0.9695,1.0566,1.1624,1.2811,1.4471,1.5277,-1.5582,-1.6202,-1.662,-1.5642,0.0,0.0,-1.5085,-1.5655,-1.6455,-1.688,-1.787,-1.864,-1.864,-1.8774,-1.8841,-1.8841,-1.8965,-1.9274,-1.9784,-1.9799,-1.9896,-2.0321,-2.0242,-2.0453,-2.123,-2.1047,-2.074,-2.041,-2.0027,-1.9304,-1.8137,-1.8048,-1.8124,-1.8386,-1.8504,-1.8891,-1.9657,-1.9231,-1.9311,-1.9942,-1.9201,-1.8873,-1.8847,-1.8607,-1.8598,-1.8749,-1.8527,-1.8877,-1.962,-1.945,-1.9578,-1.9863,-1.9627,-1.946,-1.9234,-1.8683,-1.8485,-1.838,-1.7705,-1.7427,-1.7279,-1.7181,-1.6694,-1.5936,-1.4979,-1.3779,-1.2421,-1.0908,-0.9625,-0.8566,-0.7635,-0.7458,-0.7394,-0.6817,-0.5542,-0.4415,-0.4202,-0.2768,-0.1093,0.0214,0.0676,0.0923,0.1007,0.166,0.2139,0.2139,0.2305,0.2428,0.2428,0.2125,0.2048,0.2391,0.2293,0.2453,0.3076,0.4288,0.5416,0.6306,0.7585,0.8617,0.9268,0.9106,0.9154,0.9458,0.91,0.8975,0.9236,0.9931,1.0811,1.1942,1.4034,1.4916,-1.599,-1.6523,-1.7048,-1.6795,-1.537,0.0,-1.6653,-1.5659,-1.4935,-1.7111,-1.7588,-1.7596,-1.754,-1.7865,-1.8104,-1.7966,-1.8167,-1.8435,-1.8787,-1.8942,-1.9008,-1.9065,-1.9142,-1.9609,-2.0561,-1.9881,-1.9563,-2.0138,-1.966,-1.8877,-1.7861,-1.7452,-1.7299,-1.735,-1.7449,-1.8013,-1.907,-1.9045,-1.9002,-1.9002,-1.882,-1.829,-1.7554,-1.7432,-1.7587,-1.7925,-1.7885,-1.835,-1.9146,-1.8767,-1.9054,-1.9784,-1.9784,-1.9548,-1.9222,-1.9262,-1.9301,-1.9167,-1.8344,-1.8082,-1.7904,-1.7017,-1.6576,-1.6114,-1.4738,-1.4113,-1.3465,-1.1432,-1.0221,-0.9339,-0.8591,-0.8506,-0.8543,-0.8045,-0.6706,-0.5443,-0.517,-0.3963,-0.2455,-0.105,-0.03,0.0127,0.0169,0.0633,0.1012,0.1054,0.1434,0.1729,0.1771,0.1733,0.1734,0.1772,0.1902,0.2071,0.2187,0.3349,0.4477,0.5541,0.6736,0.7858,0.8873,0.8983,0.9099,0.9335,0.8928,0.8742,0.8742,0.9228,0.9876,1.0706,1.2894,1.3824,-1.5503,-1.5874,-1.6525,-1.6367,-1.6407,0.0,-1.4426,-1.486,-1.5109,-1.3216,-1.4174,-1.5164,-1.4574,-1.5179,-1.5503,-1.4687,-1.601,-1.7574,-1.8843,-1.8707,-1.8573,-1.8841,-1.8731,-1.8785,-1.9166,-1.9042,-1.8904,-1.8859,-1.7694,-1.667,-1.6054,-1.5931,-1.6059,-1.6376,-1.711,-1.7618,-1.7852,-1.8602,-1.9002,-1.9002,-1.882,-1.862,-1.8411,-1.7716,-1.7432,-1.7505,-1.7139,-1.7448,-1.8238,-1.8158,-1.8447,-1.8944,-1.8922,-1.8891,-1.8851,-1.9192,-1.9301,-1.9253,-1.9091,-1.9025,-1.8976,-1.8816,-1.7617,-1.6189,-1.5874,-1.4273,-1.24,-1.1442,-1.1043,-1.0819,-1.0302,-1.021,-0.9954,-0.8876,-0.7405,-0.609,-0.5323,-0.3964,-0.2826,-0.25,-0.2044,-0.1638,-0.1416,-0.0698,-0.0086,0.0129,0.0388,0.0604,0.082,0.057,0.0573,0.1038,0.0876,0.1135,0.2108,0.2788,0.3833,0.5507,0.6419,0.7619,0.9078,0.8981,0.9134,0.9527,0.9164,0.8946,0.8946,0.9946,1.044,1.0495,1.201,1.3099,-1.5919,-1.6195,-1.6801,-1.677,-1.646,0.0,0.0,-1.5363,-1.5221,-1.4375,-1.5016,-1.5633,-1.5263,-1.5767,-1.585,-1.4603,-1.6149,-1.7236,-1.6462,-1.7549,-1.8472,-1.864,-1.8563,-1.863,-1.8908,-1.8774,-1.8573,-1.8375,-1.7095,-1.6114,-1.5632,-1.536,-1.5275,-1.5487,-1.5853,-1.6346,-1.6953,-1.7372,-1.7913,-1.8596,-1.8399,-1.8417,-1.87,-1.825,-1.7927,-1.7676,-1.7229,-1.7302,-1.77,-1.7448,-1.7489,-1.7781,-1.8434,-1.8523,-1.8282,-1.8803,-1.8913,-1.8865,-1.9183,-1.9301,-1.9222,-1.8904,-1.8117,-1.6998,-1.5693,-1.3635,-1.168,-1.1375,-1.1284,-1.1252,-1.1054,-1.0863,-1.0424,-0.9329,-0.8376,-0.7455,-0.6586,-0.5491,-0.4643,-0.4643,-0.3801,-0.2913,-0.2423,-0.1779,-0.128,-0.1148,-0.0618,-0.0221,-0.0044,0.0,0.0134,0.0398,0.0401,0.0667,0.1261,0.1727,0.2807,0.4618,0.5488,0.6666,0.8418,0.8743,0.9026,0.9301,0.9004,0.886,0.8861,0.9418,0.9656,0.9584,1.0824,1.1684,-1.6269,-1.6422,-1.6961,-1.7109,-1.6326,-1.5753,0.0,0.0,0.0,-1.5999,-1.611,-1.607,-1.5936,-1.6379,-1.6281,-1.4886,-1.6257,-1.6639,-1.4179,-1.6078,-1.7735,-1.7619,-1.816,-1.8542,-1.8513,-1.8271,-1.8092,-1.8065,-1.6838,-1.5989,-1.5693,-1.518,-1.4832,-1.4692,-1.4687,-1.5113,-1.6035,-1.6138,-1.6703,-1.7798,-1.7821,-1.807,-1.8545,-1.8545,-1.8411,-1.8121,-1.7716,-1.7473,-1.7351,-1.6984,-1.6779,-1.6812,-1.7983,-1.8103,-1.7659,-1.8282,-1.8442,-1.8376,-1.8935,-1.9103,-1.9015,-1.8416,-1.7965,-1.718,-1.4907,-1.2978,-1.158,-1.158,-1.158,-1.158,-1.158,-1.1315,-1.0868,-0.9934,-0.9423,-0.8874,-0.7839,-0.6964,-0.6357,-0.6183,-0.491,-0.3715,-0.3186,-0.2693,-0.2334,-0.2244,-0.1525,-0.0942,-0.0852,-0.0404,-0.0045,0.0226,0.0315,0.0449,0.0676,0.0899,0.1792,0.3528,0.4419,0.5664,0.7448,0.833,0.8796,0.8932,0.8727,0.8666,0.8688,0.8684,0.8703,0.8703,0.9638,1.029,-1.5597,-1.5398,-1.6055,-1.65,-1.6607,-1.6448,-1.5772,0.0,-1.4903,-1.3683,0.0,-1.3365,-1.2913,0.0,0.0,-1.29,-1.3966,-1.4853,-1.4691,-1.4877,-1.4877,-1.4468,-1.6979,-1.8143,-1.6523,-1.6568,-1.6926,-1.7459,-1.6262,-1.5522,-1.551,-1.5117,-1.4613,-1.3959,-1.4535,-1.4853,-1.481,-1.5826,-1.6349,-1.6352,-1.7149,-1.7687,-1.7974,-1.8046,-1.8282,-1.858,-1.8121,-1.7716,-1.7392,-1.7351,-1.7066,-1.6771,-1.7351,-1.7383,-1.7212,-1.7659,-1.8023,-1.8296,-1.8376,-1.8416,-1.8376,-1.8126,-1.6723,-1.4907,-1.3844,-1.3045,-1.2534,-1.2534,-1.2534,-1.2534,-1.2534,-1.251,-1.2263,-1.1366,-1.0646,-0.9685,-0.7951,-0.6964,-0.6139,-0.5314,-0.4472,-0.3892,-0.3805,-0.3229,-0.2739,-0.2513,-0.2199,-0.1839,-0.1391,-0.0897,-0.0181,0.101,0.0499,0.0543,0.1701,0.1178,0.1299,0.2596,0.3755,0.5043,0.6505,0.7681,0.8401,0.8647,0.8431,0.8453,0.8716,0.8682,0.8703,0.8703,0.8837,0.953,-1.4762,-1.5237,-1.6044,-1.5333,-1.6078,-1.6713,-1.5634,-1.5326,-1.5146,-1.4766,0.0,0.0,0.0,0.0,0.0,0.0,-1.4471,-1.4872,-1.3289,-1.4785,-1.5948,-1.5676,-1.5936,-1.6074,-1.5948,-1.6868,-1.7448,-1.7404,-1.6553,-1.5934,-1.5693,-1.4982,-1.4461,-1.4145,-1.421,-1.4286,-1.4307,-1.4564,-1.5069,-1.5756,-1.6275,-1.7068,-1.8076,-1.8307,-1.8643,-1.9033,-1.8603,-1.8331,-1.8129,-1.7595,-1.727,-1.7106,-1.7188,-1.7017,-1.6763,-1.7172,-1.7286,-1.7245,-1.7448,-1.757,-1.748,-1.7155,-1.5835,-1.43,-1.3928,-1.33,-1.2705,-1.2705,-1.2705,-1.2705,-1.2705,-1.2705,-1.2462,-1.1549,-1.1503,-1.1187,-0.9332,-0.868,-0.8165,-0.7214,-0.6027,-0.5188,-0.5188,-0.39,-0.2873,-0.2739,-0.2424,-0.2064,-0.166,-0.1211,-0.0675,0.0045,0.0501,0.0961,0.1569,0.1375,0.1732,0.2961,0.4228,0.5741,0.7482,0.7962,0.8529,0.9183,0.8839,0.8729,0.8867,0.8739,0.871,0.8703,0.8703,0.9057,-1.4685,-1.51,-1.5623,-1.4441,-1.5203,-1.6079,-1.5479,-1.5342,-1.5428,-1.5793,-1.5594,0.0,0.0,0.0,-1.5374,-1.4414,0.0,-1.4919,-1.3029,-1.4581,-1.585,-1.5608,-1.4771,-1.4704,-1.5951,-1.7098,-1.7597,-1.7181,-1.6774,-1.6342,-1.5816,-1.5098,-1.4613,-1.4397,-1.4072,-1.3964,-1.4093,-1.3746,-1.4085,-1.503,-1.5342,-1.619,-1.757,-1.807,-1.8616,-1.9112,-1.8922,-1.8812,-1.866,-1.8008,-1.7635,-1.7392,-1.7221,-1.6927,-1.6599,-1.6845,-1.6722,-1.6509,-1.6706,-1.6706,-1.6591,-1.6229,-1.5228,-1.4181,-1.4265,-1.3633,-1.2875,-1.2875,-1.279,-1.2705,-1.2705,-1.2705,-1.2534,-1.1843,-1.2015,-1.188,-1.0269,-0.9705,-0.9231,-0.8277,-0.7007,-0.6083,-0.6083,-0.4478,-0.3186,-0.3186,-0.2738,-0.2289,-0.2019,-0.157,-0.1078,-0.0497,0.0595,0.1434,0.172,0.1908,0.2559,0.3766,0.4831,0.6209,0.7954,0.7938,0.8273,0.9008,0.8687,0.8625,0.8791,0.8657,0.8638,0.8703,0.8703,0.8822,-1.5845,-1.4828,-1.4306,-1.4061,-1.4041,-1.4292,-1.5045,-1.5456,-1.5714,-1.5782,-1.5643,-1.5536,-1.5682,-1.5812,-1.5784,0.0,0.0,0.0,0.0,-1.3897,-1.2771,-1.232,-1.3465,-1.486,-1.6326,-1.6585,-1.6618,-1.6536,-1.6638,-1.6423,-1.5843,-1.5603,-1.5141,-1.4425,-1.4209,-1.4093,-1.4093,-1.3899,-1.3797,-1.3849,-1.4394,-1.5062,-1.5914,-1.6838,-1.7799,-1.8732,-1.9112,-1.9073,-1.87,-1.866,-1.817,-1.7392,-1.7392,-1.727,-1.7009,-1.6599,-1.655,-1.6657,-1.6255,-1.5974,-1.5692,-1.5506,-1.4957,-1.444,-1.4608,-1.4062,-1.3398,-1.3398,-1.3052,-1.2705,-1.2705,-1.2705,-1.2705,-1.2662,-1.1972,-1.1058,-1.0096,-0.9187,-0.8281,-0.7316,-0.6567,-0.6083,-0.6083,-0.4875,-0.3849,-0.3849,-0.3318,-0.2784,-0.2513,-0.2064,-0.1265,0.0046,0.083,0.1721,0.275,0.304,0.3654,0.4881,0.5305,0.5942,0.7011,0.709,0.7275,0.754,0.7555,0.7812,0.8304,0.8315,0.8434,0.8703,0.8703,0.8822,-1.5549,-1.6035,-1.6202,-1.4235,-1.4732,-1.5524,-1.483,-1.4553,-1.46,-1.5167,-1.5672,-1.5623,-1.4294,-1.5358,0.0,0.0,0.0,0.0,0.0,-1.4519,-1.4177,-1.434,-1.51,-1.5281,-1.4411,-1.6587,-1.7532,-1.6255,-1.7328,-1.7703,-1.6954,-1.6139,-1.5594,-1.5338,-1.4669,-1.4317,-1.4317,-1.3971,-1.3863,-1.4,-1.4408,-1.5084,-1.5974,-1.6799,-1.7768,-1.87,-1.8962,-1.9112,-1.9073,-1.8812,-1.8331,-1.7797,-1.7668,-1.7465,-1.7229,-1.6771,-1.6558,-1.6427,-1.585,-1.5352,-1.5075,-1.534,-1.5041,-1.4608,-1.4692,-1.4314,-1.3675,-1.2729,-1.2826,-1.2833,-1.1268,-1.1316,-1.1623,-1.1009,-1.0616,-1.0101,-0.9192,-0.8715,-0.8237,-0.7272,-0.6922,-0.6745,-0.6745,-0.5852,-0.4828,-0.4028,-0.3318,-0.2784,-0.2513,-0.2243,-0.1844,-0.1177,0.051,0.17,0.2092,0.308,0.4073,0.4795,0.5038,0.5766,0.714,0.7375,0.7694,0.8106,0.8025,0.8068,0.8241,0.8217,0.8314,0.8438,0.8604,0.8724,-1.6127,-1.6642,-1.6761,-1.4697,-1.5219,-1.5927,-1.4538,-1.4324,-1.4466,-1.4664,-1.4999,-1.5043,-1.4421,-1.5047,-1.5468,0.0,0.0,0.0,0.0,-1.5148,-1.5415,-1.5815,-1.5745,-1.5291,-1.4374,-1.6029,-1.6848,-1.6176,-1.6893,-1.7146,-1.6652,-1.5995,-1.5521,-1.5303,-1.4713,-1.4425,-1.4461,-1.4008,-1.3891,-1.4101,-1.4352,-1.4922,-1.5697,-1.6588,-1.7521,-1.8451,-1.8772,-1.9042,-1.9262,-1.9002,-1.8643,-1.8241,-1.8031,-1.7789,-1.7554,-1.7017,-1.6517,-1.5974,-1.5643,-1.5151,-1.4783,-1.5257,-1.5215,-1.495,-1.495,-1.444,-1.362,-1.2632,-1.2388,-1.21,-1.0664,-1.0539,-1.0712,-1.0231,-0.9753,-0.9231,-0.8627,-0.8237,-0.7841,-0.7228,-0.7095,-0.7095,-0.7095,-0.6387,-0.5589,-0.4786,-0.3808,-0.3096,-0.3004,-0.2602,-0.2199,-0.1974,0.0139,0.1913,0.2716,0.388,0.4697,0.5042,0.5383,0.6029,0.6985,0.7293,0.7549,0.7776,0.7797,0.781,0.7858,0.8033,0.8184,0.8299,0.859,0.8716]},{"header":{"parameterUnit":"m.s-1","parameterCategory":1,"la1":30.6,"la2":29.2853,"lo1":-89.7004,"lo2":-87.6739,"dy":0.0162,"dx":0.0183,"nx":112,"ny":82,"refTime":"2023-04-28T18:00:00:Z","depth":0,"parameterNumber":3,"parameterNumberName":"V-component_of_WINDS"},"data":[0.0,0.0,0.0,0.0,0.0,0.0,0.0,0.0,0.0,0.0,0.0,0.0,0.0,0.0,0.0,0.0,0.0,0.0,0.0,0.0,0.0,0.0,0.0,0.0,0.0,0.0,0.0,0.0,0.0,0.0,0.0,0.0,0.0,0.0,0.0,0.0,0.0,0.0,0.0,0.0,0.0,0.0,0.0,0.0,0.0,0.0,0.0,0.0,0.0,0.0,0.0,0.0,0.0,0.0,0.0,0.0,0.0,0.0,0.0,0.0,0.0,0.0,0.0,0.0,0.0,0.0,0.0,0.0,0.0,0.0,0.0,0.0,0.0,0.0,0.0,0.0,0.0,0.0,0.0,0.0,0.0,0.0,0.0,0.0,0.0,0.0,0.0,0.0,0.0,0.0,1.2767,1.2736,1.7137,2.0117,2.0223,2.1632,1.8817,1.0158,0.0,0.0,0.0,0.0,0.0,0.0,0.0,0.0,0.0,0.0,0.0,0.0,0.0,0.0,0.0,0.0,0.0,0.0,0.0,0.0,0.0,0.0,0.0,0.0,0.0,0.0,0.0,0.0,0.0,0.0,0.0,0.0,0.0,0.0,0.0,0.0,0.0,0.0,0.0,0.0,0.0,0.0,0.0,0.0,0.0,0.0,0.0,0.0,0.0,0.0,0.0,0.0,0.0,0.0,0.0,0.0,0.0,0.0,0.0,0.0,0.0,0.0,0.0,0.0,0.0,0.0,0.0,0.0,0.0,0.0,0.0,0.0,0.0,0.0,0.0,0.0,0.0,0.0,0.0,0.0,0.0,0.0,0.0,0.0,0.0,0.0,0.0,0.0,0.0,0.0,0.0,0.0,0.0,0.0,0.0,0.0,0.0,0.0,0.0,0.0,0.0,0.0,0.0,0.0,1.5488,2.0386,2.1107,2.162,2.2582,2.2317,1.8808,1.1069,0.0,0.0,0.0,0.0,0.0,0.0,0.0,0.0,0.0,0.0,0.0,0.0,0.0,0.0,0.0,0.0,0.0,0.0,0.0,0.0,0.0,0.0,0.0,0.0,0.0,0.0,0.0,0.0,0.0,0.0,0.0,0.0,0.0,0.0,0.0,0.0,0.0,0.0,0.0,0.0,0.0,0.0,0.0,0.0,0.0,0.0,0.0,0.0,0.0,0.0,0.0,0.0,0.0,0.0,0.0,0.0,0.0,0.0,0.0,0.0,0.0,0.0,0.0,0.0,0.0,0.0,0.0,0.0,0.0,0.0,0.0,0.0,0.0,0.0,0.0,0.0,0.0,0.0,0.0,0.0,0.0,0.0,0.0,0.0,0.0,0.0,0.0,0.0,0.0,0.0,0.0,0.0,0.0,0.0,0.0,0.0,0.0,0.0,0.0,0.0,0.0,0.0,0.0,1.3756,1.6841,2.2821,2.3137,2.3218,2.4008,2.4154,2.0777,1.2673,0.9823,0.0,0.0,0.0,0.0,0.0,0.0,0.0,0.0,0.0,0.0,0.0,0.0,0.0,0.0,0.0,0.0,0.0,0.0,0.0,0.0,0.0,0.0,0.0,0.0,0.0,0.0,0.0,0.0,0.0,0.0,0.0,0.0,0.0,0.0,0.0,0.0,0.0,0.0,0.0,0.0,0.0,0.0,0.0,0.0,0.0,0.0,0.0,0.0,0.0,0.0,0.0,0.0,0.0,0.0,0.0,0.0,0.0,0.0,0.0,0.0,0.0,0.0,0.0,0.0,0.0,0.0,0.0,0.0,0.0,0.0,0.0,0.0,0.0,0.0,0.0,0.0,0.0,0.0,0.0,0.0,0.0,0.0,0.0,0.0,0.0,0.0,0.0,0.0,0.0,0.0,0.0,0.0,0.0,0.0,0.0,0.0,0.0,0.0,0.0,0.0,0.0,0.0,1.7572,1.9781,2.4298,2.4547,2.4633,2.5265,2.5993,2.2911,1.4749,1.3634,0.0,0.0,0.0,0.0,0.0,0.0,0.0,0.0,0.0,0.0,0.0,0.0,0.0,0.0,0.0,0.0,0.0,0.0,0.0,0.0,0.0,0.0,0.0,0.0,0.0,0.0,0.0,0.0,0.0,0.0,0.0,0.0,0.0,0.0,0.0,0.0,0.0,0.0,0.0,0.0,0.0,0.0,0.0,0.0,0.0,0.0,0.0,0.0,0.0,0.0,0.0,0.0,0.0,0.0,0.0,0.0,0.0,0.0,0.0,0.0,0.0,0.0,0.0,0.0,0.0,0.0,0.0,0.0,0.0,0.0,0.0,0.0,0.0,0.0,0.0,0.0,0.0,0.0,0.0,0.0,0.0,0.0,0.0,0.0,0.0,0.0,0.0,0.0,0.0,0.0,0.0,0.0,0.0,0.0,0.0,0.0,0.0,0.0,0.0,0.0,0.0,0.0,2.2235,2.6548,2.6774,2.5841,2.5658,2.676,2.7129,2.4346,1.7368,1.8699,0.0,0.0,0.0,0.0,0.0,0.0,0.0,0.0,0.0,0.0,0.0,0.0,0.0,0.0,0.0,0.0,0.0,0.0,0.0,0.0,0.0,0.0,0.0,0.0,0.0,0.0,0.0,0.0,0.0,0.0,0.0,0.0,0.0,0.0,0.0,0.0,0.0,0.0,0.0,0.0,0.0,0.0,0.0,0.0,0.0,0.0,0.0,0.0,0.0,0.0,0.0,0.0,0.0,0.0,0.0,0.0,0.0,0.0,0.0,0.0,0.0,0.0,0.0,0.0,0.0,0.0,0.0,0.0,0.0,0.0,0.0,0.0,0.0,0.0,0.0,0.0,0.0,0.0,0.0,0.0,0.0,0.0,0.0,0.0,0.0,0.0,0.0,0.0,0.0,0.0,0.0,0.0,0.0,0.0,0.0,0.0,0.0,0.0,0.0,0.0,0.0,0.0,2.2627,2.5957,2.7457,2.7231,2.7269,2.7936,2.81,2.5531,1.9345,0.0,0.0,0.0,0.0,0.0,0.0,0.0,0.0,0.0,0.0,0.0,0.0,0.0,0.0,0.0,0.0,0.0,0.0,0.0,0.0,0.0,0.0,0.0,0.0,0.0,0.0,0.0,0.0,0.0,0.0,0.0,0.0,0.0,0.0,0.0,0.0,0.0,0.0,0.0,0.0,0.0,0.0,0.0,0.0,0.0,0.0,0.0,0.0,0.0,0.0,0.0,0.0,0.0,0.0,0.0,0.0,0.0,0.0,0.0,0.0,0.0,0.0,0.0,0.0,0.0,0.0,0.0,0.0,0.0,0.0,0.0,0.0,0.0,0.0,0.0,0.0,0.0,0.0,0.0,0.0,0.0,0.0,0.0,0.0,0.0,0.0,0.0,0.0,0.0,0.0,0.0,0.0,0.0,0.0,0.0,0.0,0.0,0.0,0.0,0.0,0.0,0.0,1.9748,2.3573,2.6568,2.8006,2.8062,2.8154,2.8577,2.8892,2.6736,2.1275,0.0,0.0,0.0,0.0,0.0,0.0,0.0,0.0,0.0,0.0,0.0,0.0,0.0,0.0,0.0,0.0,0.0,0.0,0.0,0.0,0.0,0.0,0.0,0.0,0.0,0.0,0.0,0.0,0.0,0.0,0.0,0.0,0.0,0.0,0.0,0.0,0.0,0.0,0.0,0.0,0.0,0.0,0.0,0.0,0.0,0.0,0.0,0.0,0.0,0.0,0.0,0.0,0.0,0.0,0.0,0.0,0.0,0.0,0.0,0.0,0.0,0.0,0.0,0.0,0.0,0.0,0.0,0.0,0.0,0.0,0.0,0.0,0.0,0.0,0.0,0.0,0.0,0.0,0.0,0.0,0.0,0.0,0.0,0.0,0.0,0.0,0.0,0.0,0.0,0.0,0.0,0.0,0.0,0.0,0.0,0.0,0.0,0.0,0.0,0.0,0.0,0.0,1.9845,2.5706,2.963,2.8632,2.8228,2.8191,2.8594,2.955,2.8047,0.0,0.0,0.0,0.0,0.0,0.0,0.0,0.0,0.0,0.0,0.0,0.0,0.0,0.0,0.0,0.0,0.0,0.0,0.0,0.0,0.0,0.0,0.0,0.0,0.0,0.0,0.0,0.0,0.0,0.0,0.0,0.0,0.0,0.0,0.0,0.0,0.0,0.0,0.0,0.0,0.0,0.0,0.0,0.0,0.0,0.0,0.0,0.0,0.0,0.0,0.0,0.0,0.0,0.0,0.0,0.0,0.0,0.0,0.0,0.0,0.0,0.0,0.0,0.0,0.0,0.0,0.0,0.0,0.0,0.0,0.0,0.0,0.0,0.0,0.0,0.0,0.0,0.0,0.0,0.0,0.0,0.0,0.0,0.0,0.0,0.0,0.0,0.0,0.0,0.0,0.0,0.0,0.0,0.0,0.0,0.0,0.0,0.0,0.0,0.0,0.0,0.0,0.0,2.2855,2.7417,3.0423,3.0092,2.9713,2.9759,3.0438,3.052,2.8652,2.4302,0.0,0.0,0.0,0.0,0.0,0.0,0.0,0.0,0.0,0.0,0.0,0.0,0.0,0.0,0.0,0.0,0.0,0.0,0.0,0.0,0.0,0.0,0.0,0.0,0.0,0.0,0.0,0.0,0.0,0.0,0.0,0.0,0.0,0.0,0.0,0.0,0.0,0.0,0.0,0.0,0.0,0.0,0.0,0.0,0.0,0.0,0.0,0.0,0.0,0.0,0.0,0.0,0.0,0.0,0.0,0.0,0.0,0.0,0.0,0.0,0.0,0.0,0.0,0.0,0.0,0.0,0.0,0.0,0.0,0.0,0.0,0.0,0.0,0.0,0.0,0.0,0.0,0.0,0.0,0.0,0.0,0.0,0.0,0.0,0.0,0.0,0.0,0.0,0.0,0.0,0.0,0.0,0.0,0.0,0.0,0.0,0.0,0.0,0.0,0.0,0.0,0.0,2.3726,2.815,3.0987,3.0396,3.0127,3.0152,3.0594,3.0469,2.9042,2.5938,0.0,0.0,0.0,0.0,0.0,0.0,0.0,0.0,0.0,0.0,0.0,0.0,0.0,0.0,0.0,0.0,0.0,0.0,0.0,0.0,0.0,0.0,0.0,0.0,0.0,0.0,0.0,0.0,0.0,0.0,0.0,0.0,0.0,0.0,0.0,0.0,0.0,0.0,0.0,0.0,0.0,0.0,0.0,0.0,0.0,0.0,0.0,0.0,0.0,0.0,0.0,0.0,0.0,0.0,0.0,0.0,0.0,0.0,0.0,0.0,0.0,0.0,0.0,0.0,0.0,0.0,0.0,0.0,0.0,0.0,0.0,0.0,0.0,0.0,0.0,0.0,0.0,0.0,0.0,0.0,0.0,0.0,0.0,0.0,0.0,0.0,0.0,0.0,0.0,0.0,0.0,0.0,0.0,0.0,0.0,0.0,0.0,0.0,0.0,0.0,0.0,0.0,2.3238,2.8052,3.1087,2.9963,2.9811,2.9764,2.9713,2.9844,2.9211,2.754,0.0,0.0,0.0,0.0,0.0,0.0,0.0,0.0,0.0,0.0,0.0,0.0,0.0,0.0,0.0,0.0,0.0,0.0,0.0,0.0,0.0,0.0,0.0,0.0,0.0,0.0,0.0,0.0,0.0,0.0,0.0,0.0,0.0,0.0,0.0,0.0,0.0,0.0,0.0,0.0,0.0,0.0,0.0,0.0,0.0,0.0,0.0,0.0,0.0,0.0,0.0,0.0,0.0,0.0,0.0,0.0,0.0,0.0,0.0,0.0,1.7165,1.3726,0.0,0.0,0.0,0.0,0.0,0.0,0.0,0.0,0.0,0.0,0.0,0.0,0.0,0.0,0.0,0.0,0.0,0.0,0.0,0.0,0.0,0.0,0.0,0.0,0.0,0.0,0.0,0.0,0.0,0.0,0.0,0.0,0.0,0.0,0.0,0.0,0.0,0.0,0.0,0.0,2.423,2.7256,2.9494,3.0072,2.9829,2.9885,3.0486,3.0303,2.903,2.6428,2.6317,0.0,0.0,0.0,0.0,0.0,0.0,0.0,0.0,0.0,0.0,0.0,0.0,0.0,0.0,0.0,0.0,0.0,0.0,0.0,0.0,0.0,0.0,0.0,0.0,0.0,0.0,0.0,0.0,0.0,0.0,0.0,0.0,0.0,0.0,0.0,0.0,0.0,0.0,0.0,0.0,0.0,0.0,0.0,0.0,0.0,0.0,0.0,0.0,0.0,0.0,0.0,0.0,0.0,0.0,0.0,0.0,0.0,0.0,0.0,1.92,1.7851,0.0,0.0,0.0,0.0,0.0,0.0,0.0,0.0,0.0,0.0,0.0,0.0,0.0,0.0,0.0,0.0,0.0,0.0,0.0,0.0,0.0,0.0,0.0,0.0,0.0,0.0,0.0,0.0,0.0,0.0,0.0,0.0,0.0,0.0,0.0,0.0,0.0,0.0,0.0,0.0,2.3701,2.7056,2.9572,3.011,2.9965,2.9943,3.0166,3.0038,2.9237,2.755,2.6438,0.0,0.0,0.0,0.0,0.0,0.0,0.0,0.0,0.0,0.0,0.0,0.0,0.0,0.0,0.0,0.0,0.0,0.0,0.0,0.0,0.0,0.0,0.0,0.0,0.0,0.0,0.0,0.0,0.0,0.0,0.0,0.0,0.0,0.0,0.0,0.0,0.0,0.0,0.0,0.0,0.0,0.0,0.0,0.0,0.0,0.0,0.0,0.0,0.0,0.0,0.0,0.0,0.0,1.9974,2.0487,2.1011,1.9727,2.0438,2.2656,2.1241,2.2313,2.4596,1.8698,0.0,0.0,0.0,0.0,0.0,0.0,0.0,0.0,0.0,0.0,0.0,0.0,0.0,0.0,0.0,0.0,0.0,0.0,0.0,0.0,0.0,0.0,2.2192,2.152,2.4888,2.7358,2.4041,0.0,0.0,0.0,0.0,0.0,0.0,0.0,0.0,0.0,0.0,0.0,2.3342,2.7154,2.9888,2.9928,2.9919,2.9777,2.9457,2.9457,2.9337,2.8975,2.6534,2.4669,0.0,0.0,0.0,0.0,0.0,0.0,0.0,0.0,0.0,0.0,0.0,0.0,0.0,0.0,0.0,0.0,0.0,0.0,0.0,0.0,0.0,0.0,0.0,0.0,0.0,0.0,0.0,0.0,0.0,0.0,0.0,0.0,1.4214,1.3682,0.0,0.0,0.0,0.0,0.0,0.0,0.0,0.0,0.0,0.0,0.0,0.0,0.0,1.5883,1.6621,1.9992,2.1794,2.1991,2.52,2.6795,2.6854,2.5972,2.6179,2.7187,2.629,0.0,2.2404,2.1352,0.0,0.0,0.0,0.0,0.0,0.0,0.0,0.0,0.0,0.0,0.0,0.0,0.0,0.0,0.0,0.0,0.0,0.0,0.0,0.0,0.0,0.0,2.8285,2.862,2.9404,2.9788,2.8817,2.5409,2.233,2.1658,2.2222,2.233,0.0,0.0,0.0,0.0,0.0,0.0,2.5536,2.7452,2.8721,2.9191,2.922,2.9213,2.916,2.885,2.855,2.8319,2.7615,2.6195,2.3932,2.3029,0.0,0.0,0.0,0.0,0.0,0.0,0.0,0.0,0.0,0.0,0.0,0.0,0.0,0.0,0.0,0.0,0.0,0.0,0.0,0.0,0.0,0.0,0.0,0.0,0.0,0.0,0.0,0.0,0.0,1.1394,1.3015,1.3863,1.2248,1.0636,0.0,0.0,0.0,0.0,0.0,0.0,0.0,0.0,0.0,1.9322,1.9667,2.0397,2.166,2.4232,2.5063,2.4175,2.6345,2.733,2.7237,2.6478,2.6334,2.6673,2.6327,2.5346,2.3926,2.2698,2.1089,1.9169,0.0,0.0,0.0,0.0,1.633,1.6414,1.91,1.9823,1.9394,1.8238,0.0,0.0,0.0,0.0,0.0,0.0,0.0,1.9117,2.305,2.5101,2.6615,2.8477,2.9652,3.0343,3.0371,2.832,2.6002,2.4391,2.3309,2.2045,2.0126,2.0789,0.0,0.0,0.0,2.3861,2.4917,2.6336,2.7409,2.7926,2.7736,2.7616,2.7751,2.7651,2.7498,2.7265,2.6985,2.6259,2.503,2.3638,2.2816,0.0,0.0,0.0,0.0,0.0,0.0,0.0,0.0,0.0,0.0,0.0,0.0,0.0,0.0,0.0,0.0,0.0,0.0,0.0,0.0,0.0,0.0,0.0,0.0,0.0,0.0,0.0,0.0,1.1635,1.2898,1.4215,1.34,1.2148,0.0,0.0,0.0,0.0,0.0,0.0,1.5394,1.6711,1.8955,2.2227,2.2695,2.3562,2.4996,2.6447,2.6403,2.489,2.5783,2.6068,2.5764,2.5427,2.5267,2.5257,2.5503,2.5591,2.5466,2.3912,2.3122,2.2588,1.9736,1.8453,1.8288,1.8961,1.8945,1.8974,2.1926,2.2685,2.2224,2.1476,2.0806,2.0085,1.8971,0.0,0.0,0.0,0.0,1.9622,2.3005,2.4322,2.5327,2.7464,2.881,2.969,3.0,2.9146,2.8033,2.7111,2.5239,2.316,2.1036,2.2137,0.0,2.0056,2.2596,2.4753,2.458,2.5621,2.6465,2.6786,2.6519,2.6388,2.661,2.66,2.6538,2.6421,2.5991,2.5714,2.5582,2.42,2.379,2.457,0.0,0.0,0.0,0.0,0.0,0.0,0.0,0.0,0.0,0.0,0.0,0.0,0.0,0.0,0.0,0.0,0.0,0.0,0.0,0.0,0.0,0.0,0.0,0.0,0.0,0.0,0.0,0.0,0.0,1.6028,1.6756,0.0,0.0,0.0,0.0,1.3015,1.428,1.5894,1.7823,1.9134,2.0787,2.2888,2.3045,2.3103,2.313,2.3975,2.399,2.3236,2.3973,2.3965,2.3316,2.4036,2.4322,2.4313,2.5208,2.5557,2.5493,2.5464,2.4077,2.1948,2.1756,2.0258,1.8484,2.0856,2.1698,2.2044,2.4622,2.5504,2.5043,2.2422,1.9773,1.8178,2.1293,1.9943,0.0,0.0,2.2401,2.3358,2.697,2.7799,2.7722,2.7873,2.7821,2.7688,2.7511,2.6105,2.5863,2.931,2.9167,2.7999,2.6544,0.0,2.4791,2.5069,2.4292,2.4262,2.5879,2.6154,2.6162,2.6077,2.6039,2.6136,2.6395,2.5996,2.5853,2.6117,2.5161,2.4686,2.4926,2.4746,2.449,2.4242,2.4786,0.0,0.0,0.0,0.0,0.0,0.0,0.0,0.0,0.0,0.0,0.0,0.0,0.0,0.0,0.0,0.0,0.0,0.0,0.0,0.0,0.0,0.0,0.0,0.0,0.0,0.0,0.0,0.0,1.5982,1.6566,0.0,1.5408,1.5596,1.5973,1.646,1.8311,1.9715,2.0437,2.1437,2.2323,2.3041,2.3059,2.2782,2.2227,2.2477,2.2176,2.1367,2.2202,2.2443,2.2236,2.3078,2.345,2.345,2.3781,2.3914,2.39,2.3969,2.4101,2.4284,2.4282,2.3734,2.3064,2.3966,2.4287,2.4401,2.5313,2.5636,2.5375,2.3832,2.3037,2.2801,2.3512,2.3217,2.2898,2.4154,2.4553,2.4893,2.6193,2.6436,2.6479,2.6953,2.6979,2.6963,2.7244,2.7049,2.7213,2.8415,2.7433,2.6197,2.5536,2.6036,2.6014,2.4456,2.4921,2.5682,2.6312,2.5834,2.5445,2.5486,2.4657,2.42,2.4332,2.398,2.4047,2.4707,2.4502,2.4468,2.4702,2.4741,2.4841,2.5038,2.5716,2.4637,0.0,0.0,0.0,0.0,0.0,0.0,0.0,0.0,0.0,0.0,0.0,0.0,0.0,0.0,0.0,0.0,0.0,0.0,0.0,0.0,0.0,0.0,0.0,0.0,0.0,1.4237,1.5735,1.5646,1.6637,1.7173,1.6711,1.7346,1.8146,1.9033,2.0508,2.1366,2.1368,2.1567,2.1718,2.1772,2.1387,2.0937,2.0465,2.0429,2.0136,1.9566,2.0078,2.0518,2.0886,2.1669,2.222,2.2587,2.2871,2.3006,2.2994,2.3043,2.373,2.4715,2.473,2.471,2.4727,2.4719,2.4724,2.4732,2.4752,2.4761,2.4652,2.4079,2.4294,2.4659,2.4118,2.4331,2.4766,2.4752,2.4764,2.4758,2.4758,2.466,2.4768,2.549,2.5595,2.5673,2.6249,2.6821,2.7163,2.6935,2.6563,2.6138,2.5691,2.6658,2.6548,2.3788,2.4896,2.578,2.5008,2.4726,2.4599,2.4652,2.3876,2.3379,2.3499,2.2808,2.2926,2.4194,2.3605,2.36,2.445,2.408,2.4043,2.4466,2.5176,2.4289,2.1778,0.0,0.0,0.0,0.0,0.0,0.0,0.0,0.0,0.0,0.0,0.0,0.0,0.0,0.0,0.0,0.0,0.0,0.0,0.0,0.0,0.0,0.0,0.0,1.3922,1.5054,1.5809,1.5278,1.733,1.8433,1.7535,1.8442,1.9491,2.0428,2.0494,2.048,2.0469,1.9478,1.898,1.9132,1.8165,1.7692,1.783,1.7902,1.7921,1.788,1.7699,1.8115,1.9119,1.9724,2.0578,2.1609,2.2469,2.2854,2.2913,2.2846,2.2853,2.2912,2.2987,2.2992,2.2998,2.3001,2.3009,2.3004,2.3065,2.3098,2.3086,2.3079,2.3083,2.3087,2.3063,2.3079,2.3105,2.3125,2.3139,2.3135,2.3125,2.2978,2.2991,2.3635,2.3693,2.3776,2.4423,2.5031,2.538,2.5121,2.6914,2.8243,2.7453,2.7382,2.6478,2.3576,2.4317,0.0,2.2169,2.2991,2.3713,2.3507,2.3596,2.3746,2.3942,2.2585,2.2576,2.4632,2.2493,2.2106,2.4226,2.2793,2.2126,2.2558,2.3206,2.381,2.4328,0.0,0.0,0.0,0.0,0.0,0.0,0.0,0.0,0.0,0.0,0.0,0.0,0.0,0.0,0.0,0.0,0.0,0.0,0.0,0.0,0.0,1.4768,1.6904,1.6489,1.7796,1.852,1.7724,1.8322,1.8719,1.8515,1.8869,1.9482,2.0422,2.0501,2.0224,1.9591,1.9135,1.8645,1.8053,1.831,1.8462,1.845,1.8579,1.8259,1.7533,1.7536,1.7271,1.6837,1.7689,1.8229,1.8516,1.8764,1.9662,2.0857,1.9458,1.9661,2.1043,2.2451,2.2971,2.2927,2.2979,2.2997,2.2997,2.2976,2.2996,2.2925,2.2281,2.255,2.2988,2.234,2.2592,2.3198,2.3636,2.375,2.3744,2.3698,2.3539,2.3443,2.3725,2.3669,2.3577,2.375,2.4288,2.4617,2.434,2.5179,2.5901,2.5822,2.5979,2.576,2.4697,2.463,2.4461,2.3844,2.3529,2.2863,2.1491,2.095,2.074,2.0909,2.0205,2.0939,2.3667,2.3222,2.3242,2.4121,2.3253,2.3063,2.3709,2.2976,2.3298,0.0,0.0,0.0,0.0,0.0,0.0,0.0,0.0,0.0,0.0,0.0,0.0,0.0,0.0,0.0,0.0,0.0,0.0,0.0,0.0,0.0,0.0,1.6605,1.8416,1.8054,1.8836,1.9244,1.8706,1.8094,1.7883,1.8316,1.8443,1.8898,1.9836,2.025,2.0169,1.9494,1.905,1.8341,1.7346,1.7496,1.7434,1.7119,1.7182,1.6965,1.6437,1.6282,1.615,1.6048,1.6353,1.6772,1.726,1.7222,1.7872,1.8864,1.7723,1.7883,1.8962,0.0,0.0,0.0,0.0,2.1186,2.0851,2.0828,2.0855,2.0875,2.0709,2.1012,2.1431,2.126,2.157,2.2021,2.2333,2.2401,2.239,2.2296,2.218,2.219,2.2511,2.2502,2.2482,2.2768,2.3116,2.3344,2.3297,2.3573,0.0,2.4112,2.4719,2.472,2.3287,2.3391,2.3347,2.2631,2.266,2.2394,2.1482,2.1123,2.0918,2.076,1.99,0.0,0.0,0.0,2.2368,2.2992,2.2629,0.0,0.0,0.0,2.2605,2.4916,2.3134,0.0,0.0,2.338,2.2749,0.0,0.0,0.0,0.0,0.0,0.0,0.0,0.0,0.0,0.0,0.0,0.0,0.0,0.0,0.0,0.0,1.8334,1.9739,1.896,1.881,1.8725,1.8557,1.7217,1.6679,1.7623,1.7757,1.8184,1.9148,1.9939,2.0186,1.9753,1.9088,0.0,0.0,0.0,1.5661,1.4968,1.5043,1.5089,1.5076,1.4663,1.4982,1.5888,1.5414,1.5779,1.6794,1.6725,1.6863,1.71,1.6872,1.6772,1.6824,1.7367,1.8019,1.867,1.8954,1.8554,1.7909,1.789,0.0,0.0,1.8954,1.9254,1.9482,2.0188,2.0419,2.0391,2.0345,2.0324,2.0273,2.0153,2.0167,2.0323,2.0797,2.0962,2.1156,2.1676,2.1822,2.1934,2.2129,2.22,2.2344,2.2652,2.3668,2.3568,2.0968,2.1613,2.1827,2.0242,2.1197,2.207,2.2173,2.2425,0.0,2.1966,2.062,2.0636,2.2613,2.1218,2.0637,2.1387,2.1512,2.1412,2.1102,2.0909,2.2125,2.4799,2.4344,2.4873,2.6262,2.3844,2.3077,0.0,0.0,0.0,0.0,0.0,0.0,0.0,0.0,0.0,0.0,0.0,0.0,0.0,0.0,0.0,1.6618,1.8622,1.9998,1.9789,1.9103,1.8366,1.7663,1.7238,1.7377,1.8313,1.8326,1.8738,1.9902,2.0136,1.9973,1.9344,1.903,1.8033,1.6229,1.652,1.6256,1.5312,1.5898,1.5802,1.502,1.4984,0.0,1.4026,1.3973,1.4076,1.43,1.4275,1.5166,1.6503,1.4823,1.4347,1.4869,1.6723,1.7567,1.7778,1.7994,1.8009,1.7888,1.7837,1.8296,1.8917,1.9066,1.963,2.0275,2.0422,2.0483,0.0,2.104,2.1081,2.0981,2.0915,2.1209,2.1447,2.1075,2.1357,2.1583,2.1119,2.1338,2.1598,2.1365,2.1679,2.2136,2.2626,2.3159,2.3272,2.243,2.2326,2.2116,2.1573,2.1574,2.107,1.9689,1.9917,2.0215,2.0265,1.959,2.0096,2.2254,2.1921,2.1433,2.0944,2.156,2.1694,2.1182,2.2173,2.3145,2.4082,2.4679,2.5012,2.5149,2.5241,2.5452,0.0,0.0,0.0,0.0,0.0,0.0,0.0,0.0,0.0,0.0,0.0,1.4162,1.4706,0.0,1.7311,1.8286,1.9322,1.9827,1.9316,1.8843,1.8407,1.7998,1.7444,1.7106,1.7146,1.7549,1.7841,1.7979,1.8397,1.8454,1.8013,1.8448,1.7975,1.6401,1.6733,1.6502,1.5551,1.5311,1.4967,1.4503,1.4392,1.4111,1.3644,1.3684,1.3648,1.3564,1.3731,1.4261,1.4919,1.4019,1.3874,1.4329,1.5555,1.6138,1.6325,1.6884,1.6866,1.6546,1.655,1.6832,1.7344,1.8172,1.8781,1.9346,2.0154,2.0408,2.0438,2.0642,2.0647,2.0567,2.0402,2.0553,2.0667,2.0374,2.0536,2.0656,2.0288,2.0403,2.0689,2.1025,2.1326,2.1754,2.257,2.2729,2.2742,2.2713,2.2586,2.2323,2.1864,2.1836,2.14,2.0277,2.0477,2.0662,2.0602,2.0167,2.036,2.1493,2.1623,2.1427,2.0937,2.1365,2.1334,2.061,2.1862,2.258,2.2755,2.3851,2.4338,2.4217,2.516,2.5659,0.0,0.0,0.0,0.0,0.0,0.0,0.0,0.0,1.3163,1.4859,1.5798,1.6555,1.7371,1.7962,1.8687,1.9825,1.9928,1.96,1.8839,1.874,1.8677,1.8496,1.7553,1.6631,1.5924,1.6582,1.6748,1.6016,1.6611,1.695,1.6768,1.7635,1.7605,1.6455,1.6528,1.6159,1.5282,1.4267,1.3785,1.3839,1.3605,1.3553,1.3666,1.3666,1.3576,1.3427,1.3641,1.3584,1.3329,1.3473,1.3706,1.3951,1.4239,1.4483,1.4793,1.578,1.5728,1.5215,1.5265,1.5402,1.5789,1.7127,1.773,1.8141,1.9444,1.9948,2.0031,1.9875,1.9917,1.9971,1.9719,1.9645,1.9611,1.9595,1.9576,1.9583,1.9583,1.9677,2.0026,2.0909,2.1174,2.1553,2.2531,2.2511,2.2392,2.2435,2.2549,2.2418,2.181,2.2019,2.2067,2.1739,2.1825,2.1758,2.1441,2.1104,2.0873,2.0768,2.1013,2.1073,2.0889,2.1103,2.0874,2.012,2.115,2.1692,2.1722,2.2919,2.3454,2.3453,2.4639,2.5182,1.2867,1.2951,1.4548,1.6771,1.6674,1.691,0.0,0.0,1.7337,1.8858,1.9369,1.9613,1.9726,1.9744,1.9824,1.9977,1.9893,1.9748,1.9595,1.9569,1.9191,1.8194,1.7227,1.6577,1.6427,1.6453,1.6497,1.6511,1.6668,1.6707,1.6626,1.6735,1.6362,1.5403,1.522,1.4691,1.3767,1.3438,1.3277,1.3294,1.3208,1.3156,1.3182,1.3182,1.3165,1.3129,1.2919,1.2755,1.2604,1.24,1.2428,1.265,1.2973,1.3264,1.3627,1.4732,1.5182,1.5201,1.5208,1.5753,1.6484,1.6662,1.7258,1.7924,1.8104,1.8662,1.9235,1.922,1.9631,2.005,1.9912,1.9775,1.9649,1.9541,1.9508,1.9518,1.9518,1.9924,2.046,2.1006,2.1473,2.2007,2.2596,2.2867,2.2737,2.1995,2.215,2.2225,2.1935,2.2071,2.2254,2.2377,2.2095,2.1758,2.1441,2.1356,2.1137,2.0651,2.0666,2.0617,2.0471,2.071,2.0742,2.0536,2.0967,2.1476,2.2135,2.2751,2.2971,2.2853,2.4447,2.5033,1.7701,1.7407,1.7758,1.9606,1.9352,1.9122,2.0927,1.949,1.8339,2.0327,2.0354,2.005,2.0098,2.0059,1.9974,1.9909,1.9834,1.9763,1.9662,1.9647,1.9249,1.8187,1.7224,1.6402,1.5755,1.5765,1.558,1.4967,1.4949,1.4927,1.4854,1.5336,1.5479,1.5142,1.5024,1.4744,1.4322,1.3607,1.3251,1.3197,1.3163,1.3136,1.3102,1.3133,1.2857,1.2357,1.2631,1.2259,1.1499,1.1965,1.2157,1.2173,1.232,1.2662,1.3161,1.4005,1.446,1.4683,1.4771,1.5229,1.5876,1.6387,1.6808,1.7229,1.7697,1.8081,1.8335,1.8294,1.8451,1.8601,1.8483,1.8643,1.8805,1.8761,1.8971,1.9201,1.9201,1.9435,1.9875,2.0653,2.1027,2.1464,2.2319,2.2454,2.235,2.1976,2.2769,2.3223,2.2714,2.2618,2.242,2.1974,2.1913,2.1883,2.187,2.1592,2.1288,2.1093,2.0684,2.0487,2.0515,2.0556,2.0535,2.0483,2.1011,2.1345,2.151,2.2247,2.2395,2.2033,2.323,2.3836,1.9732,1.9804,1.9912,2.1332,2.125,2.0871,2.1103,1.9801,1.907,2.0976,2.0852,2.046,2.0713,2.0513,2.0274,2.0162,1.9938,1.9738,1.9641,1.9647,1.9283,1.8246,1.7567,1.6652,1.5343,1.5088,1.4667,1.3783,1.3684,1.36,1.3497,1.3998,1.4352,1.4491,1.444,1.4401,1.4407,1.3633,1.3225,1.3163,1.2912,1.2885,1.3067,1.2874,1.2448,1.1858,1.194,1.1469,1.0689,1.1213,1.1392,1.1384,1.1572,1.2008,1.2623,1.3307,1.3787,1.4131,1.4527,1.4843,1.5187,1.5916,1.6171,1.6311,1.6917,1.7247,1.7426,1.7388,1.7619,1.7844,1.7704,1.8099,1.849,1.8452,1.8742,1.9031,1.9031,1.9169,1.9551,2.0423,2.0737,2.1146,2.2081,2.2115,2.1958,2.1801,2.2948,2.3603,2.3016,2.281,2.2381,2.1517,2.1639,2.1874,2.2104,2.1755,2.1543,2.1626,2.1166,2.0932,2.1031,2.0811,2.0755,2.0901,2.1171,2.1293,2.1244,2.1985,2.2018,2.1465,2.2439,2.292,1.617,1.767,1.9214,2.1193,2.2013,2.2338,2.2344,2.1204,2.0342,2.1138,2.1321,2.1584,2.2285,2.1681,2.1067,2.1061,2.0295,1.9701,1.9699,1.9751,1.9407,1.8327,1.828,1.7591,1.567,1.4612,1.397,1.3813,1.3625,1.3419,1.3219,1.2926,1.2829,1.2964,1.2901,1.2959,1.3156,1.3128,1.3102,1.3093,1.2178,1.2194,1.2971,1.212,1.1839,1.192,1.0498,1.0125,1.0455,0.9771,0.9598,0.9832,1.0481,1.111,1.1745,1.2615,1.3171,1.3676,1.4726,1.4925,1.4778,1.5132,1.5234,1.5245,1.527,1.5876,1.6541,1.6548,1.7511,1.8531,1.8406,1.8817,1.9239,1.9099,1.9101,1.9107,1.9107,1.9471,1.9939,2.0495,2.0913,2.139,2.1987,2.211,2.1905,2.1312,2.2145,2.2734,2.2378,2.2261,2.1968,2.1271,2.1392,2.1609,2.1896,2.1888,2.1971,2.2165,2.2161,2.2161,2.2161,2.1649,2.1614,2.2142,2.1459,2.136,2.1881,2.2229,2.2022,2.1342,2.26,2.2813,1.7606,1.9668,2.1785,2.2716,2.3112,2.3005,2.2027,2.1795,2.1728,2.1483,2.0802,2.023,2.0077,2.0079,1.9779,1.879,1.9767,2.0439,1.9918,1.9848,1.9741,1.9432,1.8847,1.8232,1.7622,1.6079,1.4783,1.3923,1.3678,1.3459,1.3201,1.297,1.2829,1.2829,1.285,1.2606,1.204,1.2134,1.1838,1.1174,1.0859,1.0748,1.0816,1.0634,1.0211,0.9629,0.9839,0.9363,0.848,0.9048,0.9149,0.9079,1.0103,1.0877,1.1577,1.2931,1.3437,1.3549,1.4409,1.483,1.4899,1.4526,1.4761,1.5104,1.457,1.4985,1.5642,1.5641,1.5974,1.6422,1.6786,1.7286,1.7791,1.8157,1.8509,1.8762,1.877,1.8892,1.9248,2.0049,2.0355,2.0585,2.0979,2.1524,2.1816,2.157,2.165,2.1795,2.1947,2.1744,2.1387,2.0862,2.0857,2.1006,2.1286,2.1302,2.137,2.1538,2.1364,2.1565,2.2165,2.1429,2.1372,2.2112,2.1506,2.1214,2.1301,2.1496,2.1383,2.099,2.1413,2.1768,1.9743,2.1243,2.2622,2.3834,2.3725,2.316,2.2537,2.2523,2.258,2.2365,2.095,1.9694,1.9565,1.9596,1.9118,1.7481,1.9105,2.0289,1.9471,1.9388,1.9552,1.9991,1.9484,1.8976,1.8634,1.7444,1.6201,1.4988,1.46,1.4187,1.3656,1.3438,1.3143,1.2742,1.2533,1.2117,1.1466,1.1305,1.0708,0.967,0.9959,0.985,0.9376,0.9516,0.9198,0.857,0.8934,0.8479,0.7525,0.8248,0.8447,0.8392,0.9549,1.0397,1.1151,1.2803,1.3484,1.3686,1.4397,1.4764,1.4851,1.4505,1.4547,1.4696,1.4425,1.454,1.4789,1.506,1.5306,1.5574,1.596,1.6478,1.7064,1.77,1.8086,1.8378,1.8586,1.8745,1.9084,1.985,2.0162,2.0398,2.0767,2.0893,2.1015,2.1251,2.0542,2.0334,2.1317,2.1113,2.0775,2.0521,2.0503,2.0587,2.0826,2.0865,2.0938,2.1125,2.0969,2.114,2.1743,2.1191,2.1116,2.1633,2.1178,2.0892,2.0745,2.0792,2.0705,2.0545,2.0595,2.0889,2.2174,2.2198,2.1916,2.4419,2.3872,2.293,2.3751,2.3352,2.2964,2.3509,2.1536,1.99,0.0,2.0038,1.9009,1.7161,1.8521,1.9525,1.8677,1.8608,1.9011,1.9988,2.0159,1.9807,1.8774,1.8595,1.8062,1.6901,1.6269,1.5501,1.452,1.4286,1.371,1.2693,1.2031,1.1574,1.1349,1.062,0.9701,0.8615,0.94,0.9389,0.8692,0.87,0.8669,0.8576,0.7748,0.741,0.7438,0.7354,0.744,0.7745,0.8848,0.9698,1.0511,1.2223,1.3256,1.3902,1.4597,1.4734,1.4667,1.4948,1.4558,1.4082,1.48,1.4525,1.4107,1.4861,1.5507,1.596,1.5981,1.6418,1.7024,1.7683,1.7825,1.7954,1.8529,1.8981,1.9418,1.9898,2.0307,2.0759,2.1302,2.0305,1.9691,2.0443,1.905,1.8588,2.0478,2.033,2.0087,2.0252,2.027,2.034,2.0539,2.0546,2.067,2.0938,2.0938,2.0953,2.1005,2.0947,2.0876,2.0801,2.0587,2.0427,2.0306,2.021,2.0135,2.0168,2.0287,2.0303,2.2621,2.3303,2.4113,2.4255,2.4418,2.4302,2.3327,2.3812,2.3863,2.1661,1.985,1.8057,1.5994,1.7311,1.8198,1.6574,1.9887,2.218,2.0831,2.0608,2.0483,2.0208,2.0193,2.0054,1.9679,1.9357,1.9006,1.8587,1.7097,1.5976,1.547,1.5249,1.4685,1.3664,1.2999,1.1982,1.0593,0.9017,0.7961,0.7439,0.7741,0.7637,0.7161,0.7261,0.6935,0.6252,0.6087,0.573,0.5337,0.596,0.6391,0.6826,0.8442,0.9613,1.051,1.1661,1.2252,1.262,1.3655,1.4354,1.476,1.4346,1.4477,1.4845,1.5072,1.4958,1.49,1.5786,1.5659,1.535,1.5816,1.6071,1.6389,1.7009,1.7489,1.783,1.7927,1.8393,1.901,1.9776,2.0163,2.0589,2.1227,2.0671,2.0388,2.1058,2.009,1.9403,1.9653,1.9451,1.9379,1.9591,1.9762,1.9876,1.9929,1.9929,1.9994,2.0179,2.0093,2.0288,2.0835,2.0294,2.0154,2.0573,2.0372,2.0329,2.0454,2.0707,2.0859,2.0925,2.0957,2.0959,2.4189,2.4547,2.5111,2.5105,2.4874,2.4493,2.3828,2.3667,2.2985,2.0644,1.8066,1.5765,1.4253,1.633,1.7659,1.5792,2.0055,2.3057,2.1445,2.1235,2.1153,2.0857,2.0804,2.0573,1.9966,1.9706,1.9423,1.9079,1.7914,1.6956,1.6318,1.5863,1.5121,1.3988,1.2766,1.1245,0.9433,0.8266,0.7569,0.7354,0.737,0.7275,0.7083,0.7109,0.6768,0.6188,0.616,0.5864,0.5409,0.584,0.6128,0.6448,0.7913,0.88,0.9432,1.091,1.1335,1.1329,1.2474,1.3346,1.4021,1.4259,1.4416,1.4573,1.5018,1.5113,1.5266,1.615,1.6298,1.6268,1.6591,1.6749,1.6928,1.7464,1.7835,1.81,1.8288,1.8564,1.9093,2.0176,2.0861,2.1385,2.1753,2.1185,2.0798,2.1163,2.0341,1.9531,1.9122,1.8826,1.8843,1.9358,1.9504,1.9712,2.0054,2.0085,2.0132,2.0194,2.0142,2.0261,2.0646,2.0228,2.0139,2.0452,2.0354,2.0311,2.0379,2.0679,2.086,2.0893,2.0925,2.0958,2.6227,2.5875,2.5625,2.6444,2.5564,2.4558,2.4879,2.3399,2.1532,2.0011,1.6513,1.3735,1.3774,1.5879,1.7109,1.5536,1.9776,2.2852,2.1725,2.1567,2.1575,2.1602,2.1598,2.118,2.0081,1.9866,1.9592,1.9161,1.8713,1.8026,1.7013,1.6335,1.5329,1.3913,1.1918,1.0072,0.8365,0.7932,0.7687,0.7655,0.7539,0.7522,0.7589,0.7474,0.7225,0.6882,0.6769,0.6487,0.6096,0.6124,0.6135,0.6212,0.7252,0.7703,0.8012,0.9893,1.0254,0.9993,1.1129,1.1857,1.2544,1.411,1.4253,1.4019,1.4957,1.5208,1.5369,1.6305,1.703,1.7556,1.7676,1.7751,1.7898,1.8313,1.8394,1.8503,1.8922,1.9137,1.9606,2.0751,2.1814,2.2538,2.2538,2.1789,2.1201,2.1252,2.0357,1.9561,1.9188,1.8711,1.8625,1.9168,1.9341,1.9685,2.0377,2.0439,2.047,2.058,2.0597,2.0563,2.0494,2.051,2.0461,2.0378,2.0427,2.0395,2.0311,2.0514,2.0614,2.0648,2.0713,2.0764,2.7392,2.7204,2.7224,2.743,2.7228,2.6753,2.5898,2.4189,0.0,1.8823,1.617,1.3849,1.1901,1.3501,1.5814,1.7912,2.0362,2.2585,2.4242,2.3922,2.3034,2.1744,2.1598,2.1419,2.0928,2.0174,1.9885,2.0272,1.9371,1.8349,1.7296,1.7048,1.5929,1.3718,1.1442,0.9734,0.8644,0.7373,0.6795,0.6892,0.6871,0.6926,0.7045,0.7018,0.6384,0.5303,0.5274,0.4758,0.4012,0.4929,0.5239,0.5259,0.6438,0.7227,0.7776,0.8199,0.8392,0.8609,0.9749,0.9891,0.9968,1.2369,1.3777,1.4695,1.5642,1.5465,1.5292,1.6933,1.7014,1.6796,1.7504,1.7743,1.7823,1.7902,1.8178,1.8422,1.8508,1.9591,2.0647,2.0872,2.1867,2.2677,2.274,2.2431,2.2257,2.2528,2.1536,2.079,2.0926,2.017,1.928,1.8422,1.8981,1.9466,1.9591,1.9607,1.9872,2.0481,2.0563,2.0547,2.0427,2.0462,2.0431,2.033,2.058,2.0763,2.0862,2.1055,2.1246,2.1419,2.1419,2.143,2.8047,2.7963,2.8085,2.8186,2.7904,2.7124,2.5315,0.0,0.0,0.0,1.4184,1.2126,1.1479,1.3422,1.5622,1.7182,2.0292,2.2888,2.3903,2.4438,2.4261,2.306,2.2539,2.2123,2.1768,2.0939,2.0657,2.1173,2.0294,1.9272,1.8235,1.7097,1.541,1.3053,1.1614,1.0204,0.8773,0.8045,0.7502,0.7112,0.7051,0.7158,0.7418,0.7351,0.6967,0.633,0.5877,0.5403,0.4983,0.5363,0.5461,0.5475,0.6543,0.712,0.7405,0.788,0.7933,0.7843,0.8565,0.8844,0.9088,1.0288,1.2006,1.3818,1.5019,1.55,1.5905,1.7226,1.7712,1.8051,1.8927,1.9187,1.9182,1.9118,1.9173,1.9205,1.9139,2.0099,2.1033,2.1362,2.2106,2.2856,2.3341,2.3171,2.3028,2.3223,2.2639,2.2076,2.1838,2.1606,2.0997,1.974,1.9983,2.0397,2.0768,2.0816,2.0963,2.1321,2.126,2.1198,2.1135,2.1039,2.0847,2.057,2.0709,2.075,2.0685,2.081,2.1073,2.1373,2.0785,2.0875,2.8444,2.8605,2.8793,2.8917,2.8521,2.7425,2.4848,2.1794,0.0,1.5688,1.2733,1.0858,1.147,1.3426,1.5199,0.0,1.9388,2.2088,2.266,2.402,2.4673,2.3863,2.3403,2.3016,2.2652,2.1876,2.16,2.2085,2.0974,1.9746,1.8533,1.6677,1.4744,1.2751,1.1917,1.0745,0.9111,0.8793,0.82,0.7347,0.7237,0.7326,0.7578,0.746,0.7365,0.7234,0.656,0.6221,0.6111,0.6054,0.5956,0.5929,0.6857,0.7122,0.7084,0.7775,0.7736,0.7375,0.7636,0.8054,0.8505,0.8735,1.0543,1.2831,1.3935,1.5213,1.6486,1.7368,1.8378,1.9405,2.0268,2.0494,2.0478,2.0322,2.0175,2.002,1.9867,2.0473,2.118,2.1626,2.2311,2.3042,2.3681,2.3668,2.361,2.3756,2.3479,2.3095,2.2643,2.2873,2.2672,2.1661,2.1343,2.1409,2.1993,2.2044,2.2099,2.2269,2.2079,2.1982,2.2008,2.1776,2.1454,2.1034,2.1181,2.1101,2.0811,2.0982,2.1278,2.1666,2.0739,2.089,2.8666,2.9486,2.9625,2.9761,2.9734,2.8881,2.5781,0.0,1.9993,1.6162,1.3672,1.2002,1.1351,1.1907,1.3345,1.6172,0.0,1.8385,2.1488,2.2873,2.3366,2.2804,2.3491,2.3895,2.3687,2.2829,2.2525,2.3111,2.0888,1.8682,1.6838,1.5737,1.4674,1.3607,1.2057,1.0871,1.0081,0.8749,0.7668,0.686,0.6851,0.6737,0.6528,0.6516,0.6292,0.5876,0.5868,0.5615,0.5283,0.611,0.6258,0.6068,0.6943,0.7173,0.7011,0.7084,0.7122,0.7136,0.7166,0.7136,0.7316,0.8697,1.0751,1.2706,1.2837,1.4472,1.6483,1.742,1.8418,1.9406,2.0265,2.051,2.046,2.0336,2.0282,2.0225,2.0024,2.0609,2.1154,2.1098,2.2255,2.3231,2.3186,2.3505,2.3899,2.4275,2.385,2.3563,2.3794,2.3663,2.3486,2.337,2.2392,2.175,2.182,2.182,2.2113,2.2788,2.2652,2.2587,2.2702,2.2574,2.2265,2.1803,2.2406,2.2521,2.2135,2.2625,2.3013,2.3272,2.3068,2.3082,2.8572,2.9384,2.956,2.9789,2.8954,2.7409,2.4774,0.0,1.8368,1.5664,1.3541,1.212,1.1993,1.2209,1.2891,1.4405,0.0,0.0,1.8604,2.0164,2.1441,2.2362,2.2879,2.3709,2.5152,2.4743,2.4193,2.3759,2.258,2.0541,1.7504,1.5911,1.4611,1.3551,1.273,1.1745,1.0639,0.9637,0.8717,0.7871,0.7518,0.7223,0.6985,0.645,0.6206,0.6134,0.5364,0.5233,0.5604,0.5993,0.623,0.6419,0.7044,0.7373,0.7463,0.7302,0.7337,0.744,0.7274,0.7291,0.7476,0.8102,0.95,1.1196,1.2546,1.4024,1.5497,1.6565,1.8025,1.9202,1.8992,1.9317,1.9843,2.0307,2.0418,2.0376,2.0228,2.0437,2.0742,2.1069,2.1557,2.2189,2.307,2.3314,2.3593,2.4247,2.4135,2.4029,2.4154,2.4087,2.4019,2.4019,2.3339,2.2885,2.2885,2.2885,2.3017,2.3304,2.3094,2.3017,2.3171,2.2907,2.2605,2.2213,2.2424,2.2386,2.2063,2.2273,2.2593,2.2995,2.225,2.232,2.7537,2.881,2.9434,2.9709,2.8231,2.6197,0.0,0.0,1.7679,1.5512,1.3828,1.2632,1.2266,1.2422,1.2645,0.0,0.0,1.5566,1.6115,1.7783,1.9455,2.0828,2.1286,2.2508,2.5069,2.5584,2.5416,2.4588,2.3646,2.1946,1.9286,1.6852,1.492,1.3567,1.3193,1.234,1.0915,1.0373,0.9512,0.8328,0.7718,0.7284,0.6979,0.6013,0.5659,0.5753,0.4595,0.4598,0.5432,0.5535,0.5919,0.6502,0.7077,0.7447,0.7643,0.7548,0.761,0.7705,0.7497,0.7548,0.7717,0.7789,0.8721,1.0167,1.2112,1.3637,1.4926,1.603,1.7574,1.879,1.8387,1.8749,1.9416,2.0282,2.0498,2.0467,2.0371,2.0357,2.0474,2.0857,2.1024,2.1457,2.2507,2.2783,2.3113,2.3892,2.4004,2.4079,2.4266,2.4294,2.4294,2.4294,2.4009,2.3819,2.3829,2.3819,2.3829,2.386,2.3595,2.3501,2.3664,2.3372,2.3041,2.2645,2.2811,2.2722,2.241,2.2603,2.293,2.3355,2.2507,2.254,2.5305,2.7767,2.9365,2.9626,2.7987,2.5952,0.0,0.0,1.8876,1.6078,1.494,1.3875,1.1884,1.2099,1.2358,1.1632,0.0,0.0,1.4474,1.6202,1.747,1.7638,1.8522,2.0163,2.2779,2.4767,2.5874,2.5785,2.3577,2.2175,2.2054,1.858,1.5739,1.3843,1.3345,1.239,1.0914,1.0707,0.9627,0.7704,0.7096,0.6564,0.6068,0.4863,0.4289,0.4179,0.3443,0.3568,0.4338,0.4679,0.5326,0.6185,0.6979,0.7296,0.7343,0.7681,0.7796,0.7793,0.7724,0.7694,0.7738,0.8007,0.8867,1.0058,1.1404,1.3258,1.5117,1.6194,1.7181,1.8118,1.898,1.9198,1.9416,2.0282,2.0498,2.0498,2.0498,2.0498,2.0459,2.033,2.0891,2.1366,2.1237,2.1835,2.2546,2.3217,2.331,2.3545,2.421,2.4294,2.4294,2.4294,2.4312,2.4321,2.4394,2.433,2.4358,2.4482,2.4172,2.4085,2.4275,2.4095,2.3741,2.3201,2.3902,2.4054,2.3581,2.4252,2.4707,2.4968,2.4754,2.4678,2.2714,2.4064,2.4759,2.4936,2.3518,2.1972,2.167,0.0,1.7434,1.6228,1.4896,1.3945,1.3889,1.2557,1.1792,1.2899,1.2806,0.0,0.0,0.0,1.8813,2.0049,2.3396,2.6043,2.7186,2.7484,2.6926,2.5305,2.4263,2.258,1.9976,1.888,1.7504,1.5775,1.4159,1.2888,1.1999,1.12,1.001,0.8441,0.7749,0.6836,0.5731,0.4984,0.4503,0.4244,0.3829,0.3684,0.3824,0.4664,0.516,0.5485,0.6149,0.675,0.7246,0.7297,0.7609,0.7995,0.7875,0.8015,0.8263,0.8341,0.9153,1.0284,1.1453,1.326,1.5254,1.6971,1.6812,1.6595,1.8655,1.8768,1.8671,2.0146,2.0498,2.0498,2.0498,2.0498,2.0494,2.0432,2.0545,2.0788,2.1262,2.1908,2.2627,2.3395,2.3962,2.4407,2.4609,2.4639,2.4639,2.4639,2.4639,2.4569,2.4358,2.4303,2.433,2.4367,2.4257,2.4229,2.4312,2.4182,2.4081,2.3958,2.4146,2.4173,2.4091,2.4348,2.452,2.466,2.4588,2.461,0.0,2.1855,2.2716,2.3134,2.1468,0.0,0.0,0.0,1.6819,1.6517,1.5482,1.4674,1.4758,1.3031,1.198,1.3089,1.2827,1.3066,0.0,1.713,1.939,2.1143,2.5115,2.783,2.8145,2.8149,2.7537,2.6078,2.5423,2.3732,2.0553,2.0344,1.9476,1.7676,1.5162,1.3709,1.3442,1.1605,1.0112,0.8978,0.7985,0.692,0.5795,0.4929,0.4259,0.3736,0.3167,0.3003,0.0,0.4016,0.4669,0.5249,0.6009,0.6713,0.7335,0.7462,0.7738,0.8052,0.7966,0.8147,0.8417,0.8417,0.9501,1.1018,1.2108,1.3634,1.5243,1.6521,1.6092,1.5718,1.7709,1.8055,1.8267,1.9678,2.0257,2.0508,2.0508,2.0503,2.0499,2.0499,2.0439,2.0615,2.1381,2.1855,2.2487,2.351,2.4107,2.4509,2.4773,2.4804,2.4804,2.4804,2.4804,2.4716,2.4512,2.4495,2.4512,2.4518,2.4526,2.4526,2.4526,2.4491,2.4441,2.4383,2.4338,2.4293,2.4266,2.4348,2.4455,2.4572,2.4515,2.453,0.0,2.0708,2.2363,2.324,2.1135,0.0,0.0,0.0,0.0,1.6894,1.6478,1.5796,1.4753,1.3584,1.2748,1.2599,1.3004,1.4219,1.6718,1.8372,1.9928,2.1614,2.4652,2.6531,2.6374,2.7321,2.7862,2.7657,2.6892,2.5427,2.3198,2.2569,2.146,1.9678,1.6487,1.4821,1.4843,1.1922,0.9992,0.915,0.7831,0.6831,0.614,0.4847,0.3824,0.2984,0.2034,0.2017,0.2686,0.3081,0.4031,0.5335,0.6353,0.7032,0.7504,0.7969,0.8092,0.8005,0.7956,0.815,0.8435,0.8597,1.0122,1.2105,1.3242,1.43,1.5127,1.5183,1.5192,1.5428,1.6347,1.7204,1.804,1.8962,1.9816,2.0428,2.0486,2.0491,2.0495,2.0497,2.0495,2.0752,2.1558,2.1759,2.2261,2.3618,2.3867,2.4129,2.4754,2.484,2.484,2.484,2.484,2.484,2.484,2.4811,2.4825,2.4895,2.4895,2.4895,2.4895,2.4891,2.4769,2.4505,2.4481,2.4389,2.4201,2.433,2.4497,2.4685,2.4603,2.4592,1.6625,0.0,1.7821,1.8059,1.7369,1.6846,0.0,0.0,0.0,0.0,0.0,0.0,0.0,0.0,1.305,1.427,1.4059,1.4924,1.8274,2.3153,2.6505,2.6779,2.8949,2.9476,2.7078,2.8888,2.9372,2.7313,2.7338,2.6383,2.3961,2.2763,2.2339,2.2794,1.8869,1.5659,1.3413,1.2257,1.0391,0.7845,0.7417,0.6761,0.5964,0.5956,0.5383,0.4448,0.4653,0.4153,0.3288,0.4237,0.4584,0.4658,0.582,0.6519,0.6942,0.7416,0.7836,0.8089,0.7623,0.8344,0.9723,1.1417,1.2359,1.3015,1.4208,1.4839,1.5185,1.5197,1.5196,1.5398,1.6297,1.6719,1.7279,1.8775,1.9325,1.9688,2.0368,2.0466,2.0429,2.042,2.0415,2.0693,2.1548,2.2207,2.2937,2.3891,2.4553,2.5008,2.5157,2.5176,2.5176,2.5176,2.5176,2.5185,2.5181,2.4942,2.4811,2.4825,2.4825,2.4825,2.4825,2.4816,2.4723,2.4501,2.4357,2.4247,2.4201,2.4284,2.4366,2.45,2.5113,2.5429,1.5465,1.5997,1.6595,1.6831,1.6418,1.6084,1.6624,0.0,0.0,0.0,0.0,0.0,0.0,0.0,1.5184,1.4801,1.6686,1.908,2.1621,2.4581,2.685,2.7795,2.9228,2.9874,2.9224,3.0225,3.0247,2.8624,2.8784,2.7694,2.4756,2.4642,2.4518,2.419,2.1857,1.9031,1.5727,1.4046,1.2345,1.0636,0.9406,0.8365,0.7527,0.6815,0.5967,0.5046,0.525,0.4624,0.351,0.4278,0.4393,0.4178,0.5256,0.5938,0.6382,0.7227,0.7639,0.7775,0.7763,0.8654,1.0072,1.1768,1.2674,1.3221,1.3957,1.4611,1.5108,1.5158,1.5187,1.5308,1.5773,1.623,1.6893,1.8227,1.8875,1.9439,2.0271,2.0402,2.0346,2.0346,2.0359,2.075,2.1982,2.257,2.3255,2.446,2.5024,2.5307,2.5307,2.5307,2.5307,2.5307,2.5278,2.5273,2.5311,2.5111,2.4975,2.4975,2.5006,2.5025,2.5037,2.5055,2.4974,2.4788,2.44,2.4284,2.4478,2.4355,2.4375,2.4503,2.5317,2.5708,1.4934,1.6237,1.7459,1.7422,1.67,1.6121,1.6568,0.0,0.0,0.0,0.0,0.0,0.0,1.7258,1.7596,1.5548,1.9921,2.409,2.5592,2.5452,2.5739,2.7232,2.8458,2.9722,3.1041,3.1431,3.1314,3.0609,3.0704,2.9443,2.6311,2.7208,2.7008,2.5222,2.4768,2.308,2.0019,1.6864,1.4957,1.4283,1.2146,1.0756,1.0009,0.821,0.6845,0.592,0.5561,0.4864,0.3961,0.4135,0.4194,0.4275,0.5049,0.5626,0.6166,0.7321,0.7618,0.7559,0.8454,0.9278,1.0145,1.1441,1.2526,1.3356,1.3481,1.4221,1.503,1.5104,1.5168,1.5193,1.5191,1.5769,1.6552,1.7486,1.8277,1.907,1.9992,2.015,2.0134,2.0278,2.031,2.0831,2.2515,2.2794,2.3366,2.5037,2.5282,2.5282,2.5282,2.5282,2.5287,2.5311,2.5247,2.5222,2.5282,2.5335,2.5346,2.534,2.5294,2.5297,2.5298,2.5332,2.5306,2.5243,2.458,2.4464,2.4906,2.4507,2.4382,2.4588,2.5352,2.5708,1.4954,1.7664,1.995,1.7188,1.6245,1.6017,1.6033,0.0,0.0,0.0,0.0,0.0,0.0,1.8272,1.7698,1.913,2.2439,2.5808,2.8588,3.0441,3.0703,2.8559,3.125,3.2092,2.903,3.2763,3.4329,3.1839,3.2598,3.2389,3.0551,2.9126,2.8332,2.822,2.6286,2.5015,2.4504,2.0715,1.7013,1.3477,1.3139,1.2894,1.2687,1.1821,1.0611,0.9219,0.8502,0.7364,0.5984,0.5365,0.5465,0.6006,0.6034,0.6475,0.7146,0.7725,0.8011,0.8329,1.019,1.0727,1.0934,1.3191,1.4128,1.4385,1.4526,1.4816,1.5099,1.5178,1.5188,1.5197,1.5196,1.5336,1.5718,1.6597,1.6892,1.7424,1.8973,1.925,1.9427,2.0168,2.0292,2.0831,2.2516,2.2804,2.3352,2.4973,2.5217,2.5217,2.5217,2.5217,2.5247,2.5287,2.5247,2.5192,2.5217,2.5729,2.6025,2.5979,2.5485,2.5247,2.5292,2.5145,2.5304,2.5847,2.4936,2.4761,2.5384,2.4663,2.4358,2.4456,2.53,2.5708,1.4181,1.6062,1.8002,1.8302,1.9465,2.0422,1.9903,0.0,0.0,0.0,0.0,0.0,0.0,2.0338,2.2335,2.6779,2.6755,2.721,3.014,3.0098,2.9601,2.9147,3.1283,3.2264,3.0923,3.3864,3.5085,3.3195,3.3386,3.2975,3.1574,3.0488,2.999,3.0189,2.9147,2.8284,2.7673,2.5379,2.2641,1.9427,1.7211,1.5982,1.5594,1.302,1.1459,1.0749,1.0366,0.9185,0.7476,0.6966,0.6383,0.5833,0.6134,0.646,0.6915,0.8183,0.8727,0.9072,1.064,1.1408,1.1882,1.3211,1.4077,1.463,1.4795,1.497,1.5127,1.527,1.5274,1.5243,1.5243,1.5596,1.6064,1.6501,1.7291,1.8144,1.8882,1.9044,1.9167,1.9529,1.961,2.0131,2.181,2.2468,2.3299,2.4946,2.519,2.519,2.519,2.519,2.5201,2.5247,2.5225,2.5201,2.5252,2.5495,2.578,2.6086,2.5862,2.5748,2.578,2.5593,2.5868,2.67,2.6038,2.5903,2.6358,2.5449,2.5033,2.5051,2.5504,2.5708,1.3793,1.5263,1.7087,1.9599,2.1243,2.2443,0.0,0.0,0.0,0.0,0.0,0.0,2.0401,2.2659,2.6217,3.1253,2.9831,2.9059,3.1803,2.9936,2.8824,3.0281,3.1291,3.2165,3.292,3.4805,3.5451,3.4209,3.3919,3.3282,3.211,3.155,3.1273,3.1312,3.132,3.0766,2.9649,2.9255,2.7632,2.4727,2.1348,1.953,1.8997,1.5094,1.3153,1.2828,1.2097,1.0765,0.9081,0.8802,0.7712,0.6303,0.6954,0.7134,0.7227,0.883,0.9485,0.9721,1.1007,1.2061,1.2882,1.3194,1.4033,1.4968,1.5163,1.5339,1.5532,1.5908,1.5969,1.5832,1.5436,1.5912,1.6581,1.6816,1.8029,1.9192,1.9525,1.9621,1.9649,1.9616,1.9613,2.0011,2.1304,2.2198,2.3213,2.4708,2.5083,2.5201,2.5201,2.5206,2.528,2.548,2.5502,2.5669,2.6058,2.6054,2.6206,2.6631,2.6703,2.6737,2.673,2.6577,2.6723,2.7274,2.6785,2.6721,2.7105,2.6143,2.5653,2.5607,2.568,2.5596,1.4676,1.7731,2.0641,2.0583,1.8189,0.0,2.2944,2.1792,0.0,2.3316,2.3968,2.3955,2.3856,2.4896,2.6148,2.7286,2.9506,3.1982,3.4482,3.3036,3.2056,3.2933,3.2784,3.2711,3.2986,3.5415,3.6291,3.4587,3.4617,3.4303,3.3416,3.2346,3.1629,3.1398,3.1329,3.0887,3.0065,3.1165,2.9459,2.4965,2.391,2.3393,2.3252,2.0152,1.8188,1.7085,1.4159,1.224,1.1162,1.0827,1.0021,0.908,0.9688,0.962,0.9249,0.9894,1.0058,1.019,1.1907,1.3071,1.3835,1.4119,1.4977,1.5935,1.6131,1.6344,1.6678,1.7562,1.7817,1.7433,1.5816,1.5984,1.6777,1.7535,1.8423,1.9506,2.0995,2.1319,2.1341,2.1399,2.1419,2.1455,2.1567,2.226,2.3097,2.3966,2.4727,2.5191,2.5191,2.5195,2.551,2.6329,2.6406,2.6967,2.8332,2.8451,2.8415,2.8336,2.8338,2.8305,2.8234,2.8233,2.7894,2.7228,2.6459,2.64,2.7099,2.6282,2.5811,2.5699,2.5699,2.5299,1.4845,1.7774,2.063,2.021,1.8843,0.0,0.0,2.5489,2.4413,2.3952,2.536,2.6196,2.466,2.8014,3.0646,2.954,3.2215,3.4757,3.5719,3.4552,3.3575,3.3512,3.3762,3.3727,3.3185,3.5202,3.6157,3.5266,3.4649,3.4007,3.335,3.2269,3.1483,3.1033,3.0996,3.0918,3.079,3.0691,2.9739,2.7981,2.6711,2.6145,2.6101,2.2451,2.0888,2.0881,1.764,1.5598,1.4477,1.3248,1.2135,1.12,1.1508,1.1904,1.2264,1.1754,1.1359,1.1167,1.1959,1.2818,1.3644,1.3948,1.4536,1.5245,1.5911,1.5936,1.5928,1.6815,1.7073,1.7068,1.7035,1.7612,1.8279,1.8548,1.9261,2.021,2.1262,2.1111,2.09,2.1442,2.1547,2.1705,2.2198,2.2949,2.377,2.4626,2.4589,2.4636,2.5145,2.5239,2.5583,2.6411,2.7015,2.7591,2.8152,2.8472,2.8825,2.9282,2.8789,2.844,2.8278,2.825,2.8315,2.85,2.8164,2.8164,2.8528,2.768,2.7252,2.7167,2.6172,2.554,1.6537,1.8438,2.0451,2.1139,0.0,0.0,2.6742,2.7198,2.6376,2.6318,2.7239,2.7572,2.6048,2.9653,3.237,3.0904,3.3794,3.6195,3.6195,3.5081,3.4086,3.3538,3.3851,3.3795,3.3072,3.4608,3.5588,3.5394,3.4545,3.3775,3.3176,3.22,3.1342,3.066,3.0569,3.049,3.0418,3.0135,2.9905,2.9727,2.8833,2.8379,2.8232,2.5116,2.4046,2.4458,2.1167,1.93,1.8425,1.6357,1.4663,1.3335,1.2955,1.364,1.4634,1.3358,1.2869,1.2867,1.258,1.3066,1.3832,1.3858,1.4512,1.5359,1.5856,1.6166,1.6477,1.714,1.7555,1.796,1.8633,1.9003,1.9253,1.946,2.0169,2.0985,2.1775,2.1682,2.1558,2.1887,2.2122,2.2393,2.2701,2.3404,2.4128,2.473,2.4776,2.4853,2.5164,2.571,2.6411,2.7226,2.8137,2.8698,2.8698,2.893,2.9289,2.9794,2.9213,2.8866,2.8918,2.8886,2.8903,2.8949,2.892,2.8951,2.9048,2.8492,2.8164,2.8077,2.6962,2.6312,2.0081,2.0154,2.0599,2.3749,0.0,0.0,2.7278,2.5912,2.5029,3.0959,2.9903,2.803,2.8427,2.9404,3.02,3.0369,3.3562,3.5997,3.5997,3.4723,3.3654,3.3246,3.2967,3.2747,3.2616,3.377,3.4594,3.4875,3.4399,3.379,3.3039,3.2243,3.1363,3.0356,3.0111,2.961,2.8742,2.9838,3.015,2.9624,3.0096,3.0106,2.9685,2.854,2.8029,2.7857,2.4567,2.3141,2.2917,2.0161,1.7755,1.5617,1.4142,1.4701,1.6123,1.4516,1.4615,1.5339,1.4007,1.4125,1.4733,1.4069,1.5171,1.6648,1.6177,1.7331,1.8838,1.9047,1.9829,2.0582,2.0601,1.9922,1.9424,2.0228,2.1029,2.1833,2.2738,2.3489,2.3785,2.3059,2.3512,2.3775,2.3049,2.3523,2.4009,2.4009,2.5373,2.6103,2.5325,2.6736,2.8155,2.9025,2.989,3.0404,3.0404,3.0228,3.0044,2.9929,2.9716,2.9858,3.0461,3.0487,2.9774,2.8231,2.8278,2.8315,2.8297,2.8378,2.8315,2.8114,2.8096,2.7668,1.6802,1.9598,2.1972,2.0176,0.0,0.0,0.0,2.6909,0.0,3.1219,2.992,2.8186,2.8391,3.082,3.223,3.0601,3.3447,3.5839,3.5734,3.4611,3.3763,3.3631,3.3249,3.3086,3.3288,3.4111,3.4797,3.5145,3.4691,3.4105,3.3453,3.2835,3.227,3.1782,3.0894,3.0774,3.1523,3.1014,3.1013,3.1496,3.2465,3.2488,3.1698,3.0173,3.0151,3.1106,2.7178,2.5482,2.531,2.3027,2.1468,2.0362,1.895,1.8246,1.7857,1.6817,1.6633,1.6957,1.7365,1.7685,1.7978,1.8436,1.8649,1.8746,1.8739,1.8803,1.8892,1.9062,1.931,1.9849,2.1171,2.1308,2.1147,2.1281,2.1497,2.2218,2.4169,2.4312,2.4347,2.5328,2.5189,2.4835,2.4639,2.4735,2.484,2.484,2.5294,2.5967,2.6908,2.7971,2.8982,2.9838,3.0226,3.0396,3.04,3.0222,3.0288,3.079,3.0053,2.9644,2.972,2.9675,2.9455,2.9047,2.9011,2.9031,2.907,2.9099,2.9061,2.8991,2.8384,2.7966,1.9601,2.1503,2.2878,2.3435,2.5581,2.7721,2.8415,2.9024,2.9936,3.1618,3.0697,2.9574,2.9626,3.1941,3.3276,3.1639,3.3783,3.56,3.5503,3.4741,3.4041,3.3477,3.3656,3.3645,3.3193,3.4137,3.4832,3.498,3.4667,3.4211,3.3551,3.3145,3.2757,3.2408,3.1688,3.1717,3.2563,3.1939,3.1902,3.2467,3.3144,3.3361,3.3111,3.1934,3.1988,3.2823,3.0302,2.8237,2.6613,2.5464,2.4147,2.2801,2.2224,2.1414,2.0412,1.9169,1.8663,1.8647,1.8558,1.8815,1.9297,1.9855,2.0011,1.9979,1.9792,2.0031,2.033,2.0102,2.0361,2.0953,2.2089,2.2381,2.2282,2.1879,2.2,2.2512,2.3634,2.4242,2.4884,2.5897,2.6174,2.6257,2.6249,2.623,2.6198,2.6198,2.6232,2.6853,2.8546,2.8893,2.9327,3.0216,3.0355,3.0396,3.0392,3.0235,3.034,3.0779,3.0148,2.9849,3.0027,2.9587,2.9365,2.9409,2.9361,2.9373,2.9443,2.9443,2.9443,2.9424,2.8871,2.8618,2.5362,2.4584,2.3667,3.0279,2.9318,2.7515,3.0415,3.1551,3.2003,3.2037,3.1802,3.1578,3.15,3.2693,3.3539,3.3096,3.4337,3.5373,3.5291,3.5018,3.4379,3.3088,3.403,3.4235,3.2791,3.4007,3.4756,3.4521,3.4497,3.4218,3.3537,3.3329,3.304,3.2661,3.2559,3.2557,3.2692,3.2762,3.2879,3.2951,3.2995,3.3367,3.4007,3.3624,3.3435,3.3452,3.3335,3.1059,2.7477,2.7792,2.6355,2.3974,2.4559,2.4336,2.3455,2.1796,2.1093,2.0733,1.8998,1.9041,1.9833,1.9759,2.0318,2.0853,2.0109,2.1226,2.2576,2.1848,2.2337,2.3104,2.32,2.3219,2.3023,2.23,2.2687,2.3021,2.23,2.3925,2.5539,2.5628,2.676,2.7714,2.7713,2.7695,2.772,2.779,2.7816,2.8396,2.9997,2.957,2.943,3.0221,3.0354,3.0402,3.0417,3.0303,3.0267,3.0312,3.0133,3.0356,3.109,3.0112,2.9541,2.9514,2.9524,2.9517,2.9502,2.9502,2.9502,2.9502,2.9443,2.9412,2.0239,2.3194,0.0,2.735,2.8515,2.9665,3.0697,3.0994,3.12,3.1608,3.1654,3.1542,3.137,3.2593,3.3511,3.3198,3.4371,3.5228,3.5018,3.4756,3.4431,3.4023,3.4053,3.4061,3.3924,3.4227,3.4448,3.4497,3.4497,3.4448,3.4267,3.4211,3.434,3.4674,3.3769,3.3776,3.4908,3.4034,3.404,3.4981,3.5181,3.4895,3.4158,3.3962,3.3851,3.3785,3.3334,3.2327,3.1052,3.1631,3.027,2.7862,2.8458,2.7435,2.5654,2.6136,2.5933,2.5402,2.5242,2.4967,2.4582,2.3959,2.3891,2.3913,2.3178,2.3278,2.3488,2.2855,2.2837,2.3193,2.3923,2.4113,2.4073,2.3894,2.4384,2.5011,2.5518,2.65,2.7454,2.8154,2.8002,2.7772,2.7778,2.7725,2.7905,2.8554,2.865,2.9026,3.0073,3.0087,3.0088,3.0285,3.0352,3.0417,3.0469,3.0458,3.0689,3.1258,3.0573,3.0719,3.1966,3.1148,3.0574,3.042,3.0474,3.0167,2.9502,2.955,2.9588,2.9588,2.9521,2.9482,2.1707,2.3665,0.0,2.7967,0.0,3.0695,3.0601,3.068,3.0836,3.0944,3.1228,3.1411,3.1274,3.2391,3.3241,3.3031,3.4145,3.4923,3.4643,3.4497,3.4275,3.3949,3.3975,3.3975,3.3924,3.4101,3.4226,3.43,3.43,3.4374,3.4497,3.4497,3.4691,3.5105,3.4629,3.4712,3.5458,3.4924,3.497,3.56,3.5734,3.5552,3.5035,3.4492,3.4213,3.4192,3.4321,3.3941,3.3195,3.3195,3.2286,3.0884,3.1039,2.9793,2.8009,2.8589,2.8169,2.7305,2.7119,2.718,2.7184,2.6448,2.6197,2.6124,2.5749,2.5643,2.5625,2.5415,2.5396,2.5569,2.6111,2.628,2.626,2.6261,2.5864,2.5595,2.5996,2.6977,2.8049,2.8881,2.9006,2.8949,2.8985,2.8969,2.9078,2.946,2.955,2.9723,3.0202,3.0279,3.0305,3.0304,3.0365,3.0406,3.0458,3.0474,3.0662,3.1041,3.0614,3.0963,3.2345,3.195,3.1618,3.1381,3.1403,3.1325,3.1131,3.0783,3.0748,3.0987,3.0516,3.0172,2.381,2.423,2.3819,2.982,3.1307,3.1131,3.0325,3.0486,3.0697,3.0355,3.0823,3.1274,3.1171,3.2165,3.2966,3.2818,3.3876,3.4594,3.4349,3.425,3.405,3.3555,3.3745,3.3797,3.3529,3.3797,3.4,3.4025,3.4025,3.4151,3.4374,3.4399,3.4546,3.4851,3.5065,3.5198,3.5222,3.5412,3.5487,3.5487,3.5532,3.5711,3.598,3.5142,3.4788,3.4848,3.5494,3.5345,3.4628,3.402,3.3576,3.3232,3.2966,3.2004,3.0748,3.0615,2.9898,2.8894,2.8161,2.8259,2.8632,2.8069,2.7718,2.7494,2.7494,2.7547,2.7627,2.7838,2.798,2.8103,2.826,2.8293,2.8293,2.8297,2.7259,2.624,2.611,2.7355,2.8662,2.9345,2.9992,3.0405,3.0318,3.0292,3.0279,3.0227,3.0266,3.0292,3.0299,3.0299,3.0292,3.0329,3.047,3.0578,3.0569,3.0623,3.0659,3.0659,3.0659,3.1207,3.2453,3.261,3.2617,3.252,3.2478,3.2583,3.287,3.2321,3.2207,3.2486,3.1777,3.1127,1.8852,0.0,2.7145,0.0,3.1391,3.1198,3.0163,3.0402,3.0697,3.028,3.0783,3.1235,3.0975,3.2081,3.2966,3.2818,3.3876,3.4594,3.4349,3.4101,3.3848,3.3529,3.3319,3.3293,3.3477,3.3555,3.3633,3.3745,3.3745,3.3822,3.3975,3.3975,3.4201,3.4715,3.4763,3.4851,3.4947,3.4994,3.4977,3.4994,3.5245,3.5571,3.5997,3.5873,3.5891,3.604,3.5759,3.569,3.5791,3.5685,3.5294,3.4715,3.4678,3.4642,3.458,3.3931,3.3589,3.3315,3.2534,3.1097,2.9612,2.9518,2.8593,2.7494,2.7494,2.7516,2.7579,2.7825,2.7916,2.7982,2.8242,2.8295,2.8293,2.8297,2.8651,2.8967,2.8879,3.009,3.1212,3.1312,3.1388,3.1188,3.0427,3.0292,3.0305,3.0286,3.0286,3.0305,3.0298,3.0298,3.0329,3.0379,3.0912,3.128,3.1261,3.1269,3.1283,3.1283,3.1283,3.1647,3.248,3.3061,3.3618,3.4169,3.3946,3.3506,3.2797,3.33,3.3164,3.2504,3.2441,3.1977,2.0051,2.4149,2.8442,0.0,3.1306,3.0888,3.0489,3.0456,3.0465,3.0241,3.0705,3.1193,3.1366,3.2195,3.2912,3.3106,3.3833,3.43,3.4101,3.3899,3.3736,3.3529,3.3335,3.3256,3.3388,3.3372,3.3398,3.3477,3.3555,3.3684,3.3873,3.3975,3.4201,3.457,3.4667,3.4842,3.5178,3.5001,3.4899,3.4899,3.5175,3.5406,3.5616,3.5711,3.5958,3.6301,3.6071,3.6059,3.6142,3.5975,3.5705,3.5418,3.524,3.5337,3.554,3.5294,3.5293,3.5319,3.4631,3.35,3.2233,3.1364,3.0668,3.0052,2.9605,2.9853,3.0259,2.9984,3.0347,3.0656,2.994,3.0097,3.0429,3.0377,3.0633,3.1026,3.1493,3.1677,3.1724,3.1659,3.1646,3.1366,3.0459,3.0318,3.0336,3.0305,3.0336,3.0368,3.0367,3.0829,3.1144,3.1168,3.1912,3.2366,3.2257,3.2313,3.2288,3.2132,3.217,3.2454,3.3089,3.3393,3.3862,3.4487,3.4716,3.4637,3.4259,3.4697,3.4717,3.436,3.4255,3.36,2.1156,0.0,2.6562,3.002,3.0282,2.9868,3.0629,3.0711,3.054,3.0219,3.0588,3.113,3.1594,3.2083,3.2562,3.3079,3.3543,3.3856,3.3892,3.3797,3.3694,3.3581,3.3424,3.3346,3.3346,3.3335,3.3309,3.3309,3.3424,3.3607,3.3848,3.3975,3.4226,3.4594,3.4715,3.5015,3.5532,3.5224,3.5024,3.4899,3.5088,3.5222,3.5314,3.5458,3.5778,3.6216,3.6216,3.6259,3.627,3.6031,3.5878,3.5803,3.5545,3.556,3.5747,3.5827,3.6043,3.6255,3.5992,3.5323,3.4418,3.3478,3.2957,3.2541,3.1768,3.224,3.2855,3.2033,3.2574,3.3109,3.1844,3.1967,3.2396,3.234,3.248,3.2805,3.3451,3.3025,3.2454,3.2328,3.2355,3.2099,3.1161,3.1056,3.1066,3.1018,3.1055,3.1091,3.1091,3.1702,3.2135,3.2135,3.2914,3.3378,3.3222,3.3259,3.3218,3.3016,3.2993,3.3203,3.362,3.3809,3.4088,3.4534,3.5118,3.541,3.5398,3.589,3.602,3.5805,3.5816,3.5027,0.0,1.9647,0.0,2.6489,2.7638,2.7821,3.0266,3.1178,3.123,3.0213,3.0494,3.1007,3.1358,3.1457,3.1698,3.2438,3.2898,3.3347,3.3843,3.3899,3.3848,3.371,3.3581,3.3477,3.3477,3.3372,3.3309,3.3309,3.3424,3.3555,3.3694,3.3848,3.4201,3.4875,3.4961,3.526,3.5864,3.5683,3.5339,3.4899,3.4923,3.5041,3.5291,3.5314,3.5571,3.6019,3.6019,3.611,3.6301,3.627,3.6113,3.5894,3.5878,3.5878,3.5876,3.5839,3.5977,3.6303,3.7037,3.6323,3.5187,3.592,3.5201,3.387,3.3201,3.3695,3.4226,3.2992,3.3409,3.4076,3.3363,3.322,3.3243,3.3237,3.3808,3.4388,3.4423,3.44,3.4338,3.427,3.427,3.3984,3.3114,3.2956,3.2966,3.2954,3.2956,3.2957,3.2957,3.3001,3.302,3.302,3.3637,3.4052,3.4038,3.393,3.3853,3.383,3.3648,3.3635,3.3786,3.4339,3.4662,3.4703,3.5168,3.5392,3.5398,3.6501,3.6612,3.5823,3.6441,3.5807,1.8666,0.0,0.0,2.3051,2.5595,2.7408,2.7772,2.9659,3.1223,3.074,3.0711,3.0754,3.0747,3.1111,3.161,3.2266,3.2824,3.3226,3.3421,3.3709,3.3873,3.3822,3.3617,3.3503,3.3503,3.3372,3.345,3.3771,3.3949,3.4159,3.4537,3.4658,3.4849,3.5078,3.5201,3.5339,3.5509,3.5958,3.5761,3.4899,3.5118,3.5165,3.5041,3.5041,3.5228,3.5549,3.5689,3.5975,3.6301,3.6301,3.6236,3.616,3.616,3.6301,3.6434,3.6148,3.6241,3.6524,3.7025,3.6589,3.5836,3.6119,3.5896,3.5269,3.4049,3.4072,3.4366,3.3574,3.3807,3.4144,3.3465,3.3677,3.4072,3.4075,3.5117,3.6121,3.6163,3.5696,3.51,3.4502,3.4396,3.4115,3.3247,3.3093,3.3098,3.3107,3.3093,3.3098,3.3098,3.3626,3.4007,3.4007,3.4753,3.5195,3.5074,3.4981,3.4843,3.4686,3.456,3.4452,3.4386,3.4629,3.4718,3.4647,3.4835,3.4914,3.4841,3.6311,3.6726,3.6219,3.7134,3.6956,1.7202,1.7782,1.8288,2.0208,2.2433,2.4529,2.6134,2.8129,2.9878,3.0774,3.0855,3.0712,3.0526,3.086,3.1336,3.1821,3.2229,3.2566,3.2834,3.3153,3.3347,3.3347,3.314,3.3077,3.3249,3.3265,3.3489,3.4059,3.4382,3.4682,3.4975,3.5131,3.527,3.5436,3.57,3.5734,3.5526,3.6127,3.6023,3.5211,3.5453,3.5498,3.5339,3.5339,3.5402,3.5509,3.565,3.5893,3.6195,3.628,3.6301,3.6301,3.6301,3.6356,3.6416,3.6421,3.6434,3.652,3.6811,3.6644,3.6276,3.6067,3.6054,3.5904,3.4637,3.4674,3.5052,3.4537,3.4657,3.4866,3.4539,3.4853,3.5286,3.5297,3.6378,3.7422,3.7493,3.6793,3.6004,3.5428,3.5072,3.4696,3.411,3.4018,3.4018,3.4008,3.4018,3.4003,3.4003,3.4548,3.4943,3.4943,3.5488,3.5815,3.5688,3.5809,3.5694,3.5189,3.5335,3.5249,3.4811,3.483,3.479,3.4699,3.4739,3.4687,3.4547,3.5882,3.6464,3.6357,3.7312,3.7415,0.0,0.0,0.0,1.7949,1.8084,1.9088,2.5376,2.6643,2.7307,3.0171,3.0825,3.0851,3.0712,3.0692,3.0779,3.105,3.1114,3.1375,3.2069,3.2249,3.2302,3.2295,3.2143,3.2223,3.274,3.3008,3.3397,3.4012,3.4616,3.4955,3.4978,3.5128,3.5419,3.5907,3.6423,3.6478,3.5997,3.6195,3.6131,3.5805,3.5881,3.5998,3.6172,3.6211,3.6105,3.5907,3.5929,3.5946,3.6019,3.6216,3.6301,3.6301,3.6301,3.6061,3.5803,3.6499,3.6522,3.622,3.6399,3.6486,3.6413,3.5981,3.5824,3.5709,3.5026,3.555,3.6287,3.5904,3.5979,3.6271,3.6608,3.6749,3.6818,3.6848,3.7559,3.8219,3.8288,3.7718,3.7166,3.7144,3.6455,3.5877,3.587,3.5864,3.5829,3.5847,3.5845,3.5838,3.5838,3.5857,3.5877,3.5838,3.5857,3.5865,3.5803,3.6375,3.633,3.5398,3.594,3.5913,3.5056,3.4955,3.4908,3.4879,3.4898,3.4798,3.4612,3.5261,3.5819,3.6213,3.6966,3.7153,1.4212,0.0,0.0,0.0,0.0,0.0,1.9704,2.3347,2.6691,2.7429,2.9193,3.0609,3.0568,3.0568,3.0593,3.0644,3.1203,3.155,3.1414,3.2142,3.2545,3.2259,3.2266,3.2262,3.2223,3.2159,3.2391,3.3047,3.3366,3.3787,3.4332,3.4953,3.561,3.6305,3.6364,3.6276,3.5997,3.6297,3.6191,3.565,3.611,3.622,3.5977,3.613,3.6151,3.6126,3.6312,3.6224,3.5946,3.6045,3.6067,3.6105,3.6237,3.6226,3.6125,3.5976,3.5852,3.5794,3.6001,3.613,3.6273,3.6611,3.6542,3.6174,3.5445,3.5411,3.5626,3.5702,3.5995,3.6325,3.6566,3.6644,3.6533,3.602,3.7109,3.8287,3.8296,3.8696,3.8862,3.8232,3.7927,3.7741,3.7749,3.7188,3.6745,3.6742,3.6745,3.6745,3.6745,3.7325,3.7489,3.681,3.7355,3.7229,3.5908,3.6931,3.7231,3.6226,3.6202,3.6074,3.5739,3.5191,3.4859,3.4759,3.4839,3.4819,3.4666,3.5247,3.5776,3.6302,3.7332,3.7812,1.4247,1.4493,1.464,1.4239,0.0,0.0,1.9395,2.2514,2.5643,2.7818,2.9594,3.0794,3.0794,3.0712,3.0671,3.0671,3.1099,3.1299,3.098,3.1456,3.1763,3.1517,3.1545,3.1571,3.1549,3.1648,3.2013,3.2663,3.2922,3.3351,3.4022,3.4577,3.5285,3.6182,3.6122,3.6098,3.611,3.636,3.6318,3.5975,3.6398,3.6547,3.6495,3.6618,3.66,3.6501,3.6658,3.6457,3.6041,3.6199,3.6152,3.6019,3.6148,3.6216,3.627,3.5986,3.5891,3.5879,3.5803,3.583,3.5924,3.6122,3.6006,3.5792,3.5611,3.5548,3.5693,3.6531,3.7051,3.729,3.7113,3.707,3.6963,3.6557,3.7641,3.8753,3.8757,3.9591,4.0083,3.9218,3.8724,3.8465,3.8463,3.803,3.7674,3.7674,3.7683,3.7676,3.7676,3.8163,3.8285,3.7737,3.8173,3.8065,3.7021,3.8001,3.8232,3.7184,3.7283,3.7138,3.6659,3.5854,3.5398,3.5298,3.5029,3.4859,3.4771,3.5066,3.55,3.6083,3.7165,3.7746,1.4813,1.5041,1.5451,1.5696,1.5538,0.0,2.1267,2.2416,2.3786,2.8477,2.9784,3.0097,3.0152,3.0029,2.9908,2.99,3.0235,3.053,3.0658,3.0609,3.0568,3.051,3.0485,3.0558,3.0845,3.1358,3.1924,3.2464,3.2801,3.3281,3.3947,3.4159,3.4696,3.5672,3.5776,3.5933,3.6246,3.6392,3.6502,3.6502,3.664,3.6886,3.722,3.7278,3.7184,3.6956,3.6976,3.6704,3.6295,3.6536,3.6409,3.6062,3.6062,3.6191,3.6343,3.6322,3.6301,3.6239,3.5809,3.568,3.5617,3.5182,3.5047,3.5155,3.569,3.5942,3.6377,3.7985,3.8652,3.8714,3.7966,3.7785,3.7756,3.7646,3.8522,3.9352,3.927,4.0235,4.0864,4.0084,3.9276,3.8691,3.8691,3.8667,3.8639,3.8638,3.8645,3.8633,3.8631,3.8731,3.875,3.8651,3.8723,3.8714,3.8512,3.9271,3.9296,3.8214,3.8695,3.8623,3.768,3.671,3.6158,3.6097,3.5315,3.4898,3.4898,3.4894,3.5163,3.5715,3.6666,3.7223,1.4647,1.4419,1.4717,1.4835,1.5167,0.0,1.5709,1.7514,1.9252,1.9639,2.1465,2.3128,2.3551,2.377,2.3816,2.3618,2.6061,2.8608,3.0303,3.0753,3.0834,3.0671,3.0716,3.0729,3.0746,3.0846,3.0999,3.1232,3.1839,3.2717,3.3847,3.3969,3.4341,3.5119,3.5572,3.5824,3.5904,3.6313,3.6502,3.6502,3.664,3.6742,3.6826,3.7143,3.7278,3.7222,3.7392,3.7206,3.6781,3.6821,3.6698,3.6489,3.6544,3.6582,3.6602,3.6381,3.6301,3.6305,3.6191,3.616,3.6163,3.6049,3.602,3.6043,3.6183,3.6823,3.7742,3.894,3.9318,3.9178,3.8448,3.8271,3.7975,3.6796,3.7877,3.9,3.8481,3.9803,4.1055,4.0881,4.0691,4.0572,4.0561,3.9994,3.9551,3.955,3.9549,3.9546,3.9542,4.0211,4.0386,3.9635,4.0166,4.0023,3.8614,3.9864,4.0267,3.9185,3.9145,3.8969,3.8555,3.7052,3.6129,3.6027,3.5274,3.4907,3.4907,3.5265,3.5529,3.5716,3.6287,3.6863,1.4975,1.4646,1.4995,1.5001,1.5282,0.0,0.0,1.7518,1.8838,1.9515,2.0716,2.1716,2.2001,2.2053,2.2017,2.1907,2.4631,2.6604,2.6217,2.892,3.0895,3.0794,3.0818,3.0777,3.063,3.0712,3.0834,3.0885,3.1567,3.2319,3.3052,3.3223,3.3713,3.4581,3.4887,3.5155,3.5344,3.5618,3.583,3.6009,3.611,3.6342,3.6702,3.6906,3.7064,3.7163,3.7372,3.7317,3.7108,3.7206,3.7186,3.7069,3.6771,3.6748,3.6869,3.6606,3.6527,3.653,3.6364,3.6301,3.6343,3.6509,3.6536,3.6661,3.7196,3.7978,3.8808,3.9346,3.9514,3.9401,3.9031,3.8679,3.8233,3.759,3.8174,3.8802,3.8582,3.97,4.0752,4.0752,4.0878,4.101,4.1081,4.0742,4.0448,4.0452,4.0444,4.0449,4.0449,4.0898,4.1015,4.0545,4.0857,4.0756,3.9863,4.0569,4.0782,4.0145,3.9996,3.9837,3.9603,3.8252,3.7061,3.6127,3.5779,3.5372,3.4888,3.5147,3.5264,3.5304,3.5822,3.6229,1.5372,1.4949,1.5372,1.5237,1.5425,1.6065,0.0,0.0,0.0,2.0341,2.0527,2.0384,2.0489,2.0363,2.0241,2.0255,2.2687,2.3708,2.1321,2.5605,2.9012,2.9106,3.0148,3.0556,2.9772,3.0036,3.0485,3.0977,3.1173,3.1551,3.2265,3.2553,3.3119,3.3992,3.4185,3.4448,3.4783,3.4907,3.5117,3.5407,3.5549,3.5948,3.6496,3.6693,3.6826,3.6948,3.7143,3.7259,3.7316,3.7484,3.7576,3.754,3.6972,3.6913,3.7127,3.6869,3.6788,3.6756,3.6471,3.6406,3.643,3.6736,3.6937,3.7266,3.8211,3.8929,3.9408,3.9408,3.9408,3.9408,3.9408,3.8977,3.8536,3.8585,3.8693,3.8823,3.8965,3.9746,4.0421,4.0468,4.0721,4.0925,4.1048,4.1084,4.1106,4.1111,4.1104,4.1102,4.1104,4.115,4.123,4.1406,4.1249,4.1189,4.1322,4.1182,4.1035,4.0844,4.0757,4.0623,4.0433,3.9402,3.8099,3.6501,3.635,3.5923,3.5173,3.4993,3.4908,3.4908,3.535,3.5593,1.5394,1.4644,1.4972,1.4598,1.5151,1.578,1.5772,0.0,1.4455,1.4933,0.0,1.3482,1.3969,0.0,0.0,1.3955,1.6607,1.8507,1.8061,2.0383,2.2264,2.2602,2.7437,2.9679,2.7029,2.7505,2.895,3.1255,2.9641,2.966,3.2245,3.2603,3.2918,3.3391,3.3932,3.4263,3.4367,3.4728,3.496,3.5066,3.5553,3.5768,3.5756,3.6593,3.6869,3.6763,3.6948,3.7143,3.7297,3.7316,3.7447,3.7558,3.7316,3.7279,3.7337,3.7127,3.6952,3.6796,3.6756,3.6736,3.6756,3.6858,3.7451,3.8211,3.8691,3.8989,3.9156,3.9156,3.9156,3.9156,3.9156,3.9082,3.8894,3.8371,3.8881,3.9393,3.9082,3.9746,4.0474,4.0709,4.083,4.0889,4.0917,4.1025,4.11,4.1095,4.1093,4.1092,4.1109,4.1103,4.1386,4.2097,4.1579,4.1442,4.2114,4.1507,4.1054,4.0972,4.0863,4.0704,4.0496,3.9514,3.8488,3.7452,3.67,3.6254,3.6131,3.5315,3.4908,3.4908,3.4955,3.5258,1.5421,1.5641,1.6327,1.4937,1.5628,1.6459,1.5634,1.4607,1.397,1.4511,0.0,0.0,0.0,0.0,0.0,0.0,1.5827,1.7298,1.5491,1.9009,2.1801,2.1926,2.3906,2.5538,2.6282,2.8282,3.007,3.1397,3.0727,3.0855,3.2265,3.2687,3.2963,3.3122,3.3476,3.3656,3.3604,3.3898,3.4147,3.4374,3.5102,3.5484,3.5573,3.6419,3.6687,3.6464,3.6708,3.6866,3.6965,3.7201,3.7353,3.7428,3.7391,3.7448,3.7541,3.7355,3.7281,3.73,3.7206,3.7148,3.7169,3.732,3.7878,3.8504,3.8661,3.8902,3.9101,3.9101,3.9101,3.9101,3.9101,3.9101,3.9077,3.8989,3.9146,3.9339,3.9438,3.9767,4.0135,4.0396,4.063,4.0784,4.0784,4.0967,4.1091,4.11,4.11,4.11,4.1099,4.1095,4.1225,4.1562,4.1735,4.1962,4.2275,4.1989,4.1761,4.1692,4.1092,4.0848,4.1122,4.0255,3.928,3.8249,3.7909,3.7253,3.6236,3.5885,3.5429,3.4908,3.4908,3.502,1.6345,1.6733,1.7313,1.4889,1.5236,1.6044,1.5649,1.459,1.3952,1.4824,1.432,0.0,0.0,0.0,1.3335,1.3353,0.0,1.5998,1.3941,1.711,1.9661,1.9754,2.0145,2.1698,2.5038,2.7363,2.9142,3.0291,3.0496,3.1061,3.2248,3.2655,3.2918,3.3013,3.3152,3.3198,3.3101,3.3289,3.3486,3.3758,3.456,3.512,3.5434,3.6145,3.6438,3.6423,3.6544,3.6623,3.6722,3.7025,3.7182,3.7297,3.7354,3.7467,3.7613,3.7504,3.7559,3.7632,3.7523,3.7523,3.7595,3.7774,3.8168,3.8569,3.8538,3.8766,3.9045,3.9045,3.9073,3.9101,3.9101,3.9101,3.9156,3.935,3.9298,3.9318,3.9709,3.9851,3.9983,4.0232,4.0512,4.07,4.07,4.0888,4.1048,4.1048,4.1081,4.1108,4.1103,4.1103,4.1177,4.1403,4.1949,4.2398,4.2602,4.2633,4.2599,4.2509,4.1595,4.1234,4.1649,4.0837,3.9993,3.9213,3.8985,3.8118,3.6616,3.6407,3.5809,3.4908,3.4908,3.4898,1.8676,1.7516,1.7163,1.403,1.3237,1.3682,1.531,1.4413,1.357,1.4749,1.4209,1.3446,1.3246,1.3151,1.3185,0.0,0.0,0.0,0.0,1.3275,1.3081,1.3533,1.6262,1.9322,2.242,2.2932,2.4293,2.7318,2.7485,2.888,3.2126,3.2439,3.2657,3.2979,3.3073,3.3101,3.3101,3.3247,3.331,3.3331,3.4013,3.464,3.5224,3.5701,3.6192,3.6664,3.6423,3.6444,3.6702,3.6722,3.6946,3.7297,3.7297,3.7353,3.743,3.7613,3.7613,3.7523,3.7721,3.7862,3.8001,3.814,3.8338,3.8494,3.843,3.8634,3.891,3.891,3.9007,3.9101,3.9101,3.9101,3.9101,3.9115,3.9311,3.9537,3.9754,3.9993,4.0251,4.0457,4.0605,4.07,4.07,4.0804,4.0913,4.0913,4.1018,4.1097,4.1095,4.11,4.1406,4.2187,4.2277,4.2621,4.3409,4.3468,4.3401,4.3261,4.2443,4.1944,4.1898,4.0993,4.0484,4.0436,3.9558,3.8612,3.765,3.6747,3.5817,3.4908,3.4908,3.4898,2.1849,2.2533,2.2558,1.7976,1.7596,1.7741,1.5491,1.4115,1.3526,1.4206,1.4235,1.3822,1.273,1.3234,0.0,0.0,0.0,0.0,0.0,1.3868,1.3661,1.346,1.6016,1.813,1.8952,2.2519,2.5038,2.5701,2.8071,2.983,3.0664,3.176,3.2421,3.2521,3.285,3.3026,3.3026,3.3216,3.3262,3.3183,3.3944,3.4588,3.5154,3.572,3.6229,3.6702,3.6523,3.6423,3.6444,3.6623,3.6866,3.7105,3.7145,3.7241,3.7372,3.7558,3.7631,3.7667,3.7914,3.8118,3.8271,3.8207,3.8305,3.843,3.8399,3.8541,3.8752,3.9031,3.9041,3.9059,3.9458,3.9464,3.9395,3.9531,3.9618,3.9772,4.0012,4.0139,4.026,4.0465,4.0546,4.0576,4.0576,4.0675,4.0789,4.0896,4.1018,4.1097,4.1095,4.1091,4.1209,4.1487,4.2497,4.3267,4.3543,4.4052,4.4325,4.4233,4.338,4.3073,4.3539,4.2093,4.1261,4.1222,4.0342,3.9437,3.8563,3.8248,3.7307,3.5836,3.5837,3.5486,2.4599,2.5383,2.5444,2.1039,2.0567,2.0248,1.6761,1.5564,1.5244,1.5352,1.4804,1.4591,1.5634,1.4755,1.4081,0.0,0.0,0.0,0.0,1.4312,1.4312,1.3839,1.5438,1.6797,1.736,2.0516,2.3296,2.5149,2.71,2.882,3.0273,3.1307,3.2088,3.2538,3.2852,3.2979,3.2963,3.3201,3.3229,3.3119,3.3607,3.4318,3.5257,3.5473,3.6023,3.6806,3.6643,3.6482,3.6322,3.6502,3.6687,3.6888,3.697,3.7087,3.722,3.7448,3.7649,3.7862,3.8,3.8219,3.8385,3.8241,3.8257,3.832,3.832,3.8494,3.873,3.9022,3.9141,3.9272,3.9625,3.9679,3.9632,3.9739,3.9859,3.9983,4.0158,4.026,4.0339,4.0473,4.0496,4.0496,4.0496,4.0614,4.0732,4.0814,4.0956,4.1055,4.1023,4.107,4.1093,4.1105,4.2597,4.3825,4.4409,4.4911,4.5166,4.5129,4.4244,4.3944,4.4415,4.2722,4.1745,4.1703,4.0825,3.9947,3.9061,3.9045,3.8096,3.631,3.6302,3.579]}]]